[[{"header":{"parameterUnit":"m.s-1","parameterCategory":1,"la1":30.6,"la2":28.766,"lo1":-90.7593,"lo2":-88.6598,"dy":0.0162,"dx":0.0183,"nx":116,"ny":114,"refTime":"2023-11-08T06:00:00:Z","depth":0,"parameterNumber":2,"parameterNumberName":"U-component_of_WINDS"},"data":[0.0,0.0,0.0,0.0,0.0,0.0,0.0,0.0,0.0,0.0,0.0,0.0,0.0,0.0,0.0,0.0,0.0,0.0,0.0,0.0,0.0,0.0,0.0,0.0,0.0,0.0,0.0,0.0,0.0,0.0,0.0,0.0,0.0,0.0,0.0,0.0,0.0,0.0,0.0,0.0,0.0,0.0,0.0,0.0,0.0,0.0,0.0,0.0,0.0,0.0,0.0,0.0,0.0,0.0,0.0,0.0,0.0,0.0,0.0,0.0,0.0,0.0,0.0,0.0,0.0,0.0,0.0,0.0,0.0,0.0,0.0,0.0,0.0,0.0,0.0,0.0,0.0,0.0,0.0,0.0,0.0,0.0,0.0,0.0,0.0,0.0,0.0,0.0,0.0,0.0,0.0,0.0,0.0,0.0,0.0,0.0,0.0,0.0,0.0,0.0,0.0,0.0,0.0,0.0,0.0,0.0,0.0,0.0,0.0,0.0,0.0,0.0,0.0,0.0,0.0,0.0,0.0,0.0,0.0,0.0,0.0,0.0,0.0,0.0,0.0,0.0,0.0,0.0,0.0,0.0,0.0,0.0,0.0,0.0,0.0,0.0,0.0,0.0,0.0,0.0,0.0,0.0,0.0,0.0,0.0,0.0,0.0,0.0,0.0,0.0,0.0,0.0,0.0,0.0,0.0,0.0,0.0,0.0,0.0,0.0,0.0,0.0,0.0,0.0,0.0,0.0,0.0,0.0,0.0,0.0,0.0,0.0,0.0,0.0,0.0,0.0,0.0,0.0,0.0,0.0,0.0,0.0,0.0,0.0,0.0,0.0,0.0,0.0,0.0,0.0,0.0,0.0,0.0,0.0,0.0,0.0,0.0,0.0,0.0,0.0,0.0,0.0,0.0,0.0,0.0,0.0,0.0,0.0,0.0,0.0,0.0,0.0,0.0,0.0,0.0,0.0,0.0,0.0,0.0,0.0,0.0,0.0,0.0,0.0,0.0,0.0,0.0,0.0,0.0,0.0,0.0,0.0,0.0,0.0,0.0,0.0,0.0,0.0,0.0,0.0,0.0,0.0,0.0,0.0,0.0,0.0,0.0,0.0,0.0,0.0,0.0,0.0,0.0,0.0,0.0,0.0,0.0,0.0,0.0,0.0,0.0,0.0,0.0,0.0,0.0,0.0,0.0,0.0,0.0,0.0,0.0,0.0,0.0,0.0,0.0,0.0,0.0,0.0,0.0,0.0,0.0,0.0,0.0,0.0,0.0,0.0,0.0,0.0,0.0,0.0,0.0,0.0,0.0,0.0,0.0,0.0,0.0,0.0,0.0,0.0,0.0,0.0,0.0,0.0,0.0,0.0,0.0,0.0,0.0,0.0,0.0,0.0,0.0,0.0,0.0,0.0,0.0,0.0,0.0,0.0,0.0,0.0,0.0,0.0,0.0,0.0,0.0,0.0,0.0,0.0,0.0,0.0,0.0,0.0,0.0,0.0,0.0,0.0,0.0,0.0,0.0,0.0,0.0,0.0,0.0,0.0,0.0,0.0,0.0,0.0,0.0,0.0,0.0,0.0,0.0,0.0,0.0,0.0,0.0,0.0,0.0,0.0,0.0,0.0,0.0,0.0,0.0,0.0,0.0,0.0,0.0,0.0,0.0,0.0,0.0,0.0,0.0,0.0,0.0,0.0,0.0,0.0,0.0,0.0,0.0,0.0,0.0,0.0,0.0,0.0,0.0,0.0,0.0,0.0,0.0,0.0,0.0,0.0,0.0,0.0,0.0,0.0,0.0,0.0,0.0,0.0,0.0,0.0,0.0,0.0,0.0,0.0,0.0,0.0,0.0,0.0,0.0,0.0,0.0,0.0,0.0,0.0,0.0,0.0,0.0,0.0,0.0,0.0,0.0,0.0,0.0,0.0,0.0,0.0,0.0,0.0,0.0,0.0,0.0,0.0,0.0,0.0,0.0,0.0,0.0,0.0,0.0,0.0,0.0,0.0,0.0,0.0,0.0,0.0,0.0,0.0,0.0,0.0,0.0,0.0,0.0,0.0,0.0,0.0,0.0,0.0,0.0,0.0,0.0,0.0,0.0,0.0,0.0,0.0,0.0,0.0,0.0,0.0,0.0,0.0,0.0,0.0,0.0,0.0,0.0,0.0,0.0,0.0,0.0,0.0,0.0,0.0,0.0,0.0,0.0,0.0,0.0,0.0,0.0,0.0,0.0,0.0,0.0,0.0,0.0,0.0,0.0,0.0,0.0,0.0,0.0,0.0,0.0,0.0,0.0,0.0,0.0,0.0,0.0,0.0,0.0,0.0,0.0,0.0,0.0,0.0,0.0,0.0,0.0,0.0,0.0,0.0,0.0,0.0,0.0,0.0,0.0,0.0,0.0,0.0,0.0,0.0,0.0,0.0,0.0,0.0,0.0,0.0,0.0,0.0,0.0,0.0,0.0,0.0,0.0,0.0,0.0,0.0,0.0,0.0,0.0,0.0,0.0,0.0,0.0,0.0,0.0,0.0,0.0,0.0,0.0,0.0,0.0,0.0,0.0,0.0,0.0,0.0,0.0,0.0,0.0,0.0,0.0,0.0,0.0,0.0,0.0,0.0,0.0,0.0,0.0,0.0,0.0,0.0,0.0,0.0,0.0,0.0,0.0,0.0,0.0,0.0,0.0,0.0,0.0,0.0,0.0,0.0,0.0,0.0,0.0,0.0,0.0,0.0,0.0,0.0,0.0,0.0,0.0,0.0,0.0,0.0,0.0,0.0,0.0,0.0,0.0,0.0,0.0,0.0,0.0,0.0,0.0,0.0,0.0,0.0,0.0,0.0,0.0,0.0,0.0,0.0,0.0,0.0,0.0,0.0,0.0,0.0,0.0,0.0,0.0,0.0,0.0,0.0,0.0,0.0,0.0,0.0,0.0,0.0,0.0,0.0,0.0,0.0,0.0,0.0,0.0,0.0,0.0,0.0,0.0,0.0,0.0,0.0,0.0,0.0,0.0,0.0,0.0,0.0,0.0,0.0,0.0,0.0,0.0,0.0,0.0,0.0,0.0,0.0,0.0,0.0,0.0,0.0,0.0,0.0,0.0,0.0,0.0,0.0,0.0,0.0,0.0,0.0,0.0,0.0,0.0,0.0,0.0,0.0,0.0,0.0,0.0,0.0,0.0,0.0,0.0,0.0,0.0,0.0,0.0,0.0,0.0,0.0,0.0,0.0,0.0,0.0,0.0,0.0,0.0,0.0,0.0,0.0,0.0,0.0,0.0,0.0,0.0,0.0,0.0,0.0,0.0,0.0,0.0,0.0,0.0,0.0,0.0,0.0,0.0,0.0,0.0,0.0,0.0,0.0,0.0,0.0,0.0,0.0,0.0,0.0,0.0,0.0,0.0,0.0,0.0,0.0,0.0,0.0,0.0,0.0,0.0,0.0,0.0,0.0,0.0,0.0,0.0,0.0,0.0,0.0,0.0,0.0,0.0,0.0,0.0,0.0,0.0,0.0,0.0,0.0,0.0,0.0,0.0,0.0,0.0,0.0,0.0,0.0,0.0,0.0,0.0,0.0,0.0,0.0,0.0,0.0,0.0,0.0,0.0,0.0,0.0,0.0,0.0,0.0,0.0,0.0,0.0,0.0,0.0,0.0,0.0,0.0,0.0,0.0,0.0,0.0,0.0,0.0,0.0,0.0,0.0,0.0,0.0,0.0,0.0,0.0,0.0,0.0,0.0,0.0,0.0,0.0,0.0,0.0,0.0,0.0,0.0,0.0,0.0,0.0,0.0,0.0,0.0,0.0,0.0,0.0,0.0,0.0,0.0,0.0,0.0,0.0,0.0,0.0,0.0,0.0,0.0,0.0,0.0,0.0,0.0,0.0,0.0,0.0,0.0,0.0,0.0,0.0,0.0,0.0,0.0,0.0,0.0,0.0,0.0,0.0,0.0,0.0,0.0,0.0,0.0,0.0,0.0,0.0,0.0,0.0,0.0,0.0,0.0,0.0,0.0,0.0,0.0,0.0,0.0,0.0,0.0,0.0,0.0,0.0,0.0,0.0,0.0,0.0,0.0,0.0,0.0,0.0,0.0,0.0,0.0,0.0,0.0,0.0,0.0,0.0,0.0,0.0,0.0,0.0,0.0,0.0,0.0,0.0,0.0,0.0,0.0,0.0,0.0,0.0,0.0,0.0,0.0,0.0,0.0,0.0,0.0,0.0,0.0,0.0,0.0,0.0,0.0,0.0,0.0,0.0,0.0,0.0,0.0,0.0,0.0,0.0,0.0,0.0,0.0,0.0,0.0,0.0,0.0,0.0,0.0,0.0,0.0,0.0,0.0,0.0,0.0,0.0,0.0,0.0,0.0,0.0,0.0,0.0,0.0,0.0,0.0,0.0,0.0,0.0,0.0,0.0,0.0,0.0,0.0,0.0,0.0,0.0,0.0,0.0,0.0,0.0,0.0,0.0,0.0,0.0,0.0,0.0,0.0,0.0,0.0,0.0,0.0,0.0,0.0,0.0,0.0,0.0,0.0,0.0,0.0,0.0,0.0,0.0,0.0,0.0,0.0,0.0,0.0,0.0,0.0,0.0,0.0,0.0,0.0,0.0,0.0,0.0,0.0,0.0,0.0,0.0,0.0,0.0,0.0,0.0,0.0,0.0,0.0,0.0,0.0,0.0,0.0,0.0,0.0,0.0,0.0,0.0,0.0,0.0,0.0,0.0,0.0,0.0,0.0,0.0,0.0,0.0,0.0,0.0,0.0,0.0,0.0,0.0,0.0,0.0,0.0,0.0,0.0,0.0,0.0,0.0,0.0,0.0,0.0,0.0,0.0,0.0,0.0,0.0,0.0,0.0,0.0,0.0,0.0,0.0,0.0,0.0,0.0,0.0,0.0,0.0,0.0,0.0,0.0,0.0,0.0,0.0,0.0,0.0,0.0,0.0,0.0,0.0,0.0,0.0,0.0,0.0,0.0,0.0,0.0,0.0,0.0,0.0,0.0,0.0,0.0,0.0,0.0,0.0,0.0,0.0,0.0,0.0,0.0,0.0,0.0,0.0,0.0,0.0,0.0,0.0,0.0,0.0,0.0,0.0,0.0,0.0,0.0,0.0,0.0,0.0,0.0,0.0,0.0,0.0,0.0,0.0,0.0,0.0,0.0,0.0,0.0,0.0,0.0,0.0,0.0,0.0,0.0,0.0,0.0,0.0,0.0,0.0,0.0,0.0,0.0,0.0,0.0,0.0,0.0,0.0,0.0,0.0,0.0,0.0,0.0,0.0,0.0,0.0,0.0,0.0,0.0,0.0,0.0,0.0,0.0,0.0,0.0,0.0,0.0,0.0,0.0,0.0,0.0,0.0,0.0,0.0,0.0,0.0,0.0,0.0,0.0,0.0,0.0,0.0,0.0,0.0,0.0,0.0,0.0,0.0,0.0,0.0,0.0,0.0,0.0,0.0,0.0,0.0,0.0,0.0,0.0,0.0,0.0,0.0,0.0,0.0,0.0,0.0,0.0,0.0,0.0,0.0,0.0,0.0,0.0,0.0,0.0,0.0,0.0,0.0,0.0,0.0,0.0,0.0,0.0,0.0,0.0,0.0,0.0,0.0,0.0,0.0,0.0,0.0,0.0,0.0,0.0,0.0,0.0,0.0,0.0,0.0,0.0,0.0,0.0,0.0,0.0,0.0,0.0,0.0,0.0,0.0,0.0,0.0,0.0,0.0,0.0,0.0,0.0,0.0,0.0,0.0,0.0,0.0,0.0,0.0,0.0,0.0,0.0,0.0,0.0,0.0,0.0,0.0,0.0,0.0,0.0,0.0,0.0,0.0,0.0,0.0,0.0,0.0,0.0,0.0,0.0,0.0,0.0,0.0,0.0,0.0,0.0,0.0,0.0,0.0,0.0,0.0,0.0,0.0,0.0,0.0,0.0,0.0,0.0,0.0,0.0,0.0,0.0,0.0,0.0,0.0,0.0,0.0,0.0,0.0,0.0,0.0,0.0,0.0,0.0,0.0,0.0,0.0,0.0,0.0,0.0,0.0,0.0,0.0,0.0,0.0,0.0,0.0,0.0,0.0,0.0,0.0,0.0,0.0,0.0,0.0,0.0,0.0,0.0,0.0,5.3501,5.301,0.0,0.0,0.0,0.0,0.0,0.0,0.0,0.0,0.0,0.0,0.0,0.0,0.0,0.0,0.0,0.0,0.0,0.0,0.0,0.0,0.0,0.0,0.0,0.0,0.0,0.0,0.0,0.0,0.0,0.0,0.0,0.0,0.0,0.0,0.0,0.0,0.0,0.0,4.1901,4.2032,4.2312,4.2312,4.2162,4.1882,0.0,0.0,0.0,0.0,0.0,0.0,0.0,0.0,0.0,0.0,0.0,0.0,0.0,0.0,0.0,0.0,0.0,0.0,0.0,0.0,0.0,0.0,0.0,0.0,0.0,0.0,0.0,0.0,0.0,0.0,0.0,0.0,0.0,0.0,0.0,0.0,0.0,0.0,0.0,0.0,0.0,0.0,0.0,0.0,0.0,0.0,0.0,0.0,0.0,0.0,0.0,0.0,0.0,0.0,0.0,0.0,0.0,0.0,0.0,0.0,0.0,0.0,0.0,0.0,0.0,0.0,0.0,0.0,0.0,0.0,5.4418,5.4566,0.0,0.0,0.0,0.0,0.0,0.0,0.0,0.0,0.0,0.0,0.0,0.0,0.0,0.0,0.0,0.0,0.0,0.0,0.0,0.0,0.0,0.0,0.0,0.0,0.0,0.0,0.0,0.0,0.0,0.0,0.0,0.0,0.0,0.0,0.0,0.0,0.0,0.0,4.2541,4.2791,4.329,4.329,4.301,4.2571,4.307,0.0,0.0,0.0,0.0,0.0,0.0,0.0,0.0,0.0,0.0,0.0,0.0,0.0,0.0,0.0,0.0,0.0,0.0,0.0,0.0,0.0,0.0,0.0,0.0,0.0,0.0,0.0,0.0,0.0,0.0,0.0,0.0,0.0,0.0,0.0,0.0,0.0,0.0,0.0,0.0,0.0,0.0,0.0,0.0,0.0,0.0,0.0,0.0,0.0,0.0,0.0,0.0,0.0,0.0,0.0,0.0,0.0,0.0,0.0,0.0,0.0,0.0,0.0,5.0673,5.1184,5.1217,5.3209,5.3701,5.3078,5.4959,5.5653,5.5435,5.5628,0.0,0.0,0.0,0.0,0.0,0.0,0.0,0.0,0.0,0.0,0.0,0.0,0.0,0.0,0.0,0.0,0.0,0.0,0.0,0.0,0.0,0.0,3.9391,3.9391,3.9391,3.966,0.0,0.0,0.0,0.0,0.0,0.0,0.0,4.2261,4.2571,4.319,4.319,4.322,4.329,4.329,4.326,4.319,4.326,4.329,4.329,0.0,0.0,0.0,0.0,0.0,0.0,0.0,0.0,0.0,0.0,0.0,0.0,0.0,0.0,0.0,0.0,0.0,0.0,0.0,0.0,0.0,0.0,0.0,0.0,0.0,0.0,0.0,0.0,0.0,0.0,0.0,0.0,0.0,0.0,0.0,0.0,0.0,0.0,0.0,0.0,0.0,4.5185,4.5274,0.0,0.0,0.0,0.0,0.0,0.0,0.0,0.0,0.0,0.0,0.0,0.0,0.0,4.9546,5.0099,5.0099,5.0368,5.096,5.2105,5.2599,5.2666,5.3946,5.4956,5.5712,5.6018,0.0,5.4287,5.5295,0.0,0.0,0.0,0.0,0.0,0.0,0.0,0.0,0.0,0.0,0.0,0.0,0.0,0.0,0.0,0.0,0.0,0.0,0.0,0.0,0.0,3.972,3.996,3.996,4.0307,4.0636,4.0954,0.0,0.0,0.0,0.0,0.0,4.288,4.291,4.304,4.329,4.329,4.329,4.329,4.3698,4.3878,4.3878,4.4237,4.3997,4.329,4.329,0.0,0.0,0.0,0.0,0.0,0.0,0.0,0.0,0.0,0.0,0.0,0.0,0.0,0.0,0.0,0.0,0.0,0.0,0.0,0.0,0.0,0.0,0.0,0.0,0.0,0.0,0.0,0.0,0.0,0.0,0.0,0.0,0.0,0.0,0.0,0.0,0.0,0.0,0.0,4.6202,4.6561,4.692,4.7249,4.7578,0.0,0.0,0.0,0.0,0.0,0.0,0.0,0.0,0.0,5.0361,5.0361,5.0511,5.0757,5.0757,5.0907,5.1229,5.1704,5.1926,5.1972,5.3121,5.3548,5.3451,5.4744,5.4554,5.3579,5.5954,5.6934,5.6898,0.0,0.0,0.0,0.0,5.6103,5.6066,0.0,0.0,0.0,0.0,0.0,0.0,0.0,0.0,0.0,0.0,0.0,0.0,3.9888,4.0367,4.0666,4.0666,4.1104,4.1463,4.1643,0.0,0.0,0.0,0.0,4.2851,4.329,4.3489,4.3579,4.3579,4.3728,4.3818,4.3818,4.4326,4.4556,4.4586,4.5065,4.4766,4.3818,4.3638,4.3579,4.3549,0.0,0.0,0.0,0.0,0.0,0.0,0.0,0.0,0.0,0.0,0.0,0.0,0.0,0.0,0.0,0.0,0.0,0.0,0.0,0.0,0.0,0.0,0.0,0.0,0.0,0.0,0.0,0.0,0.0,0.0,0.0,0.0,0.0,0.0,0.0,0.0,0.0,4.7399,4.7997,4.8498,4.8558,4.8738,0.0,0.0,0.0,0.0,0.0,0.0,5.0428,5.0458,5.0697,5.1176,5.1206,5.1206,5.1206,5.1206,5.1206,5.1206,5.1206,5.1206,5.1253,5.2086,5.2177,5.1727,5.3418,5.3849,5.3526,5.6008,5.7222,5.7391,5.6849,5.6963,5.7391,5.683,5.6295,5.5929,0.0,0.0,0.0,0.0,0.0,0.0,0.0,0.0,0.0,0.0,0.0,4.0576,4.1224,4.1343,4.1343,4.1343,4.1373,4.1673,4.2321,4.2351,4.2631,4.325,4.325,4.326,4.329,4.3938,4.4237,4.4237,4.4885,4.5185,4.5185,4.5214,4.5244,4.5244,4.5274,4.5244,4.5155,4.4506,4.4237,4.4177,4.3579,0.0,0.0,0.0,0.0,0.0,0.0,0.0,0.0,0.0,0.0,0.0,0.0,0.0,0.0,0.0,0.0,0.0,0.0,0.0,0.0,0.0,0.0,0.0,0.0,0.0,0.0,0.0,0.0,0.0,0.0,0.0,0.0,0.0,0.0,0.0,0.0,0.0,0.0,4.9247,4.9247,0.0,0.0,0.0,0.0,5.0159,5.0757,5.1116,5.1146,5.1146,5.1176,5.1206,5.1206,5.1206,5.1206,5.1206,5.1206,5.1206,5.1206,5.1206,5.1206,5.1276,5.1835,5.2812,5.2945,5.3569,5.4526,5.4693,5.5389,5.6087,5.3967,5.4431,5.6047,5.3924,5.3806,5.4693,0.0,0.0,0.0,0.0,0.0,0.0,0.0,0.0,0.0,3.9906,4.0561,4.1134,4.1373,4.1792,4.2051,4.2051,4.2402,4.2711,4.2951,4.3,4.307,4.329,4.3728,4.4147,4.4586,4.4825,4.4945,4.4945,4.5185,4.5304,4.5304,4.5753,4.5942,4.5942,4.6411,4.6591,4.6501,4.5424,4.4945,4.4915,4.4676,4.4586,0.0,0.0,0.0,0.0,0.0,0.0,0.0,0.0,0.0,0.0,0.0,0.0,0.0,0.0,0.0,0.0,0.0,0.0,0.0,0.0,0.0,0.0,0.0,0.0,0.0,0.0,0.0,0.0,0.0,0.0,0.0,0.0,0.0,0.0,0.0,0.0,0.0,4.9853,4.986,0.0,5.0481,5.0697,5.0847,5.0847,5.1056,5.1206,5.1206,5.1206,5.1206,5.1206,5.1206,5.1206,5.1206,5.1206,5.1206,5.1206,5.1206,5.1206,5.1206,5.1206,5.1433,5.1819,5.1819,5.204,5.2418,5.2418,5.3504,5.5072,5.4316,5.4484,5.5052,5.4295,5.4253,5.461,0.0,0.0,0.0,0.0,0.0,0.0,0.0,0.0,0.0,4.0509,4.1261,4.1822,4.2013,4.2451,4.269,4.269,4.307,4.329,4.329,4.329,4.3379,4.3638,4.4267,4.4855,4.5274,4.5514,4.5633,4.5633,4.5873,4.5963,4.5992,4.6441,4.6629,4.6659,4.71,4.7309,4.7249,4.6352,4.5843,4.5633,4.5394,4.5304,4.5304,0.0,0.0,0.0,0.0,0.0,0.0,0.0,0.0,0.0,0.0,0.0,0.0,0.0,0.0,0.0,0.0,0.0,0.0,0.0,0.0,0.0,0.0,0.0,0.0,0.0,0.0,0.0,0.0,0.0,0.0,0.0,0.0,0.0,0.0,4.9816,5.0092,5.0488,5.0548,5.0727,5.1146,5.1206,5.1206,5.1206,5.1206,5.1206,5.1206,5.1206,5.1206,5.1206,5.1415,5.1558,5.1558,5.1768,5.1887,5.1887,5.1887,5.1887,5.1887,5.1887,5.1887,5.1887,5.1887,5.1887,5.1887,5.1887,5.2757,5.4075,5.3627,5.3677,5.3977,5.3591,5.3439,5.3439,0.0,0.0,0.0,0.0,0.0,0.0,0.0,0.0,4.0312,4.2127,4.2421,4.2661,4.325,4.329,4.329,4.329,4.329,4.329,4.3319,4.3319,4.3638,4.4326,4.4975,4.5334,4.5364,4.6001,4.633,4.633,4.6958,4.7309,4.7309,4.7309,4.7309,4.7309,4.7309,4.7309,4.7309,4.7309,4.695,4.6271,4.5633,4.5364,4.5364,0.0,0.0,0.0,0.0,0.0,0.0,0.0,0.0,0.0,0.0,0.0,0.0,0.0,0.0,0.0,0.0,0.0,0.0,0.0,0.0,0.0,0.0,0.0,0.0,0.0,0.0,0.0,0.0,0.0,0.0,0.0,0.0,0.0,5.0315,5.0787,5.1206,5.1206,5.1206,5.1206,5.1206,5.1206,5.1206,5.1206,5.1206,5.1236,5.1236,5.1236,5.1265,5.1265,5.1887,5.2217,5.2217,5.2899,5.3198,5.3198,5.3198,5.3198,5.3198,5.3198,5.3198,5.3198,5.3198,5.3198,5.3198,5.3198,5.3198,5.3079,5.1768,5.1949,5.2793,5.1649,5.1236,5.1236,0.0,0.0,0.0,0.0,0.0,0.0,0.0,4.0547,4.1696,4.1802,4.2554,4.313,4.326,4.329,4.329,4.329,4.329,4.3499,4.3997,4.4027,4.4536,4.5702,4.5912,4.6241,4.6741,4.695,4.704,4.704,4.7219,4.7309,4.7309,4.7309,4.7309,4.7309,4.7309,4.7309,4.7309,4.7309,4.7189,4.6988,4.683,4.6741,4.6741,0.0,0.0,0.0,0.0,0.0,0.0,0.0,0.0,0.0,0.0,0.0,0.0,0.0,0.0,0.0,0.0,0.0,0.0,0.0,0.0,0.0,0.0,0.0,0.0,0.0,0.0,0.0,0.0,0.0,0.0,0.0,5.1086,5.1146,5.0936,5.1086,5.1206,5.1206,5.1206,5.1206,5.1206,5.1206,5.1206,5.1206,5.1648,5.1947,5.1947,5.2396,5.2636,5.2636,5.2839,5.2929,5.2929,5.3109,5.3198,5.3198,5.3198,5.3198,5.3198,5.3198,5.3198,5.3198,5.3198,5.3198,5.3198,5.3198,5.3198,5.3169,5.2785,5.2822,5.3084,5.278,5.2336,5.1947,0.0,0.0,0.0,0.0,0.0,0.0,0.0,4.1183,4.2136,4.2286,4.29,4.329,4.329,4.329,4.329,4.329,4.3579,4.3878,4.4267,4.4835,4.5493,4.6271,4.657,4.6899,4.7309,4.7309,4.7309,4.7309,4.7309,4.7309,4.7309,4.7309,4.7309,4.7309,4.7309,4.7309,4.7309,4.7309,4.7309,4.7309,4.7309,4.7309,4.7309,4.7309,4.7048,4.6719,4.6719,4.6471,4.6142,4.6142,0.0,0.0,0.0,0.0,0.0,0.0,0.0,0.0,0.0,0.0,0.0,0.0,0.0,0.0,0.0,0.0,0.0,0.0,0.0,0.0,0.0,0.0,0.0,0.0,5.1206,5.1206,5.1206,5.1206,5.1206,5.1206,5.1206,5.1206,5.1206,5.1445,5.1594,5.1594,5.2247,5.2606,5.2606,5.2989,5.3348,5.3593,5.3887,5.4186,5.4456,5.4725,5.4845,5.4845,5.4845,5.4845,5.4845,5.4845,5.4845,5.4845,5.4845,5.4845,5.4845,5.4845,5.4845,0.0,0.0,0.0,0.0,0.0,5.2959,5.2606,0.0,0.0,0.0,0.0,0.0,0.0,0.0,4.1711,4.2152,4.317,4.329,4.329,4.329,4.329,4.329,4.329,4.3908,4.4356,4.4506,4.5702,4.642,4.642,4.6958,4.7309,4.7309,4.7309,4.7309,4.7309,4.7309,4.7339,4.7429,4.7429,4.7459,4.7519,4.7519,4.7519,4.7519,4.7519,4.7519,4.7519,4.7519,4.7429,4.7309,4.7309,4.7309,4.7309,4.7309,4.7309,4.7309,4.7309,0.0,0.0,0.0,0.0,0.0,0.0,0.0,0.0,0.0,0.0,0.0,0.0,0.0,0.0,0.0,0.0,0.0,0.0,0.0,0.0,0.0,0.0,0.0,0.0,5.1206,5.1206,5.1206,5.1265,5.1265,5.1206,5.1265,5.1295,5.1295,5.1917,5.2306,5.2306,5.2995,5.3438,5.3438,5.3558,0.0,0.0,0.0,5.5713,5.6312,5.6825,5.7094,5.7094,5.7094,5.7094,5.7094,5.7094,5.7094,5.7094,5.7094,5.7094,5.7094,5.7094,5.7094,5.6855,5.4546,5.3648,5.3648,5.3648,5.3558,5.3438,0.0,0.0,0.0,0.0,0.0,0.0,0.0,4.2386,4.3041,4.327,4.329,4.329,4.329,4.329,4.329,4.329,4.3908,4.4745,4.5852,4.6659,4.713,4.713,4.7249,4.7309,4.7309,4.7309,4.7309,4.7309,4.7309,4.7578,4.8087,4.8087,4.8409,4.8917,4.8917,4.8917,4.8917,4.8917,4.8917,4.8917,4.8917,4.8289,4.7309,4.7309,4.7309,4.7309,4.7309,4.7309,4.7309,4.7309,4.7309,4.7399,4.7938,4.8087,0.0,0.0,0.0,0.0,0.0,0.0,0.0,0.0,0.0,0.0,0.0,0.0,0.0,0.0,0.0,0.0,0.0,0.0,0.0,5.1206,5.1206,5.1206,5.1206,5.1678,5.1828,5.1265,5.1678,5.2007,5.2007,5.2606,5.3019,5.3019,5.4127,5.479,5.479,5.5777,5.6406,5.6526,5.6645,5.6795,5.6915,5.7034,5.7094,5.7094,5.7094,0.0,5.7094,5.7094,5.7094,5.7094,5.7094,5.7094,5.7094,5.7094,5.7094,5.7034,5.6526,5.6346,5.6346,5.6346,5.5713,5.479,0.0,0.0,0.0,0.0,0.0,0.0,0.0,4.2447,4.2649,4.323,4.329,4.329,4.329,4.329,4.3459,4.3788,4.4715,4.5732,4.6719,4.713,4.7309,4.7309,4.7309,4.7309,4.7309,4.7309,4.7309,4.7309,4.7638,4.7967,4.8319,4.8648,4.8977,4.9277,4.9277,4.9277,4.9277,4.9277,4.9277,4.9277,4.9277,4.8887,4.8319,4.8319,4.8319,4.8319,4.8319,4.8319,4.8319,4.8319,4.8319,4.8379,4.8708,4.8798,4.8858,0.0,0.0,0.0,0.0,0.0,0.0,0.0,0.0,0.0,0.0,0.0,0.0,0.0,0.0,5.1206,5.1206,0.0,5.1206,5.1206,5.1206,5.1295,5.1648,5.2007,5.2067,5.1738,5.2276,5.2695,5.2695,5.3593,5.4216,5.4216,5.5388,5.6137,5.6137,5.6735,5.7244,5.7603,5.7603,5.7932,5.859,5.859,5.877,5.9099,5.9099,5.9099,5.9099,5.9099,5.9099,5.9099,5.9099,5.9099,5.9069,5.874,5.859,5.856,5.8231,5.7693,5.7094,5.7094,5.6705,5.6137,0.0,0.0,0.0,0.0,0.0,0.0,0.0,0.0,4.2009,4.315,4.329,4.329,4.329,4.329,4.3638,4.4416,4.5583,4.657,4.7249,4.7309,4.7309,4.7309,4.7309,4.7309,4.7309,4.7309,4.7369,4.7489,4.8027,4.8438,4.8686,4.9217,4.9546,4.9666,4.9666,4.9666,4.9666,4.9666,4.9666,4.9666,4.9666,4.9666,4.9666,4.9666,4.9516,4.9277,4.9277,4.9277,4.9277,4.9277,4.9277,4.9307,4.9426,4.9486,4.9516,4.9636,4.9666,0.0,0.0,0.0,0.0,0.0,0.0,0.0,0.0,5.1206,5.1206,5.1206,5.1206,5.1206,5.1206,5.1206,5.1236,5.1355,5.1385,5.1648,5.2306,5.2516,5.2636,5.2755,5.3264,5.3588,5.3588,5.479,5.5568,5.5568,5.6645,5.7304,5.7304,5.7543,5.7932,5.8474,5.8593,5.9219,6.0266,6.0266,6.0565,6.1076,6.1076,6.1076,6.1076,6.1076,6.1076,6.1076,6.1076,6.1076,6.1074,6.0505,6.0266,6.0236,5.9697,5.883,5.7842,5.7573,5.7393,5.7304,0.0,0.0,0.0,0.0,0.0,0.0,0.0,0.0,0.0,4.315,4.329,4.329,4.329,4.329,4.3818,4.5065,4.5852,4.657,4.7249,4.7309,4.7309,4.7309,4.7309,4.7309,4.7309,4.7309,4.7578,4.8199,4.8259,4.8895,5.0009,5.0069,5.0428,5.0966,5.0966,5.0966,5.0966,5.0966,5.0966,5.0966,5.0966,5.0966,5.0966,5.0966,5.0272,4.9277,4.9277,4.9277,4.9277,4.9277,4.9277,4.9396,4.992,5.0099,5.0219,5.0817,5.0966,5.0996,5.1056,5.1086,5.1116,5.1176,5.1206,5.1206,0.0,5.1206,5.1206,5.1206,5.1206,5.1206,5.1206,5.1206,5.1385,5.2007,5.2097,5.2306,5.2965,5.3593,5.4192,5.479,5.491,5.497,5.497,5.6137,5.6885,5.6885,5.7573,5.7995,5.7995,5.9129,5.9815,5.9847,6.0446,6.0837,6.1014,6.1014,6.1044,6.1076,6.1076,6.1076,6.1076,6.1076,6.1076,6.1076,6.1076,6.1076,6.1076,6.1044,6.1014,6.0984,6.0924,6.0777,6.0535,5.9308,5.8501,5.7995,0.0,0.0,0.0,0.0,0.0,0.0,0.0,0.0,0.0,0.0,4.329,4.329,4.329,4.3997,4.4706,4.5244,4.6292,4.6988,4.7279,4.7309,4.7309,4.7309,4.7309,4.7309,4.7309,4.7309,4.7638,4.8319,4.8678,4.9314,5.0196,5.0607,5.0936,5.1206,5.1206,5.1206,5.1206,5.1206,5.1206,5.1206,5.1206,5.1206,5.1206,5.1206,5.087,5.0391,5.0391,5.0391,0.0,5.0391,5.0391,5.0451,5.0697,5.0787,5.0847,5.1116,5.1206,5.1206,5.1206,5.1206,5.1206,5.1206,5.1206,5.1206,5.1206,5.1206,5.1206,5.1206,5.1206,5.1206,5.1206,5.1505,5.1887,5.2157,5.2516,5.3144,5.4216,5.461,5.5149,5.6166,5.6645,5.6735,5.6346,5.7154,5.7842,5.8231,5.889,5.9428,5.982,6.0386,6.0685,6.0685,6.0954,6.1313,6.1672,6.1672,6.1882,6.2241,6.2241,6.2241,6.2241,6.2241,6.2241,6.2241,6.2241,6.2241,6.2241,6.1852,6.1672,6.1642,6.1253,6.1076,6.1016,6.0448,6.0089,5.985,0.0,0.0,0.0,0.0,0.0,0.0,0.0,0.0,0.0,0.0,0.0,4.3349,4.3579,4.4616,4.5364,4.5574,4.6651,4.7309,4.7309,4.7309,4.7309,4.7309,4.7309,4.7309,4.7309,4.7309,4.7728,4.8588,4.9067,4.9726,5.0488,5.0966,5.1206,5.1206,5.1206,5.1206,5.1206,5.1206,5.1206,5.1206,5.1206,5.1206,5.1206,5.1206,5.1206,5.1206,5.1206,5.1206,5.1206,5.1206,5.1206,5.1206,5.1206,5.1206,5.1206,5.1206,5.1206,5.1206,5.1206,5.1206,5.1206,5.1206,5.1206,5.1206,5.1206,5.1206,5.1206,5.1206,5.1206,5.1265,5.1415,5.1887,5.2306,5.2695,5.3294,5.4156,5.5324,5.5598,5.6137,5.7244,5.7786,5.8025,5.7932,5.8381,5.886,5.9338,5.9997,6.0595,6.1046,6.1283,6.1373,6.1373,6.1553,6.1882,6.2361,6.2361,6.26,6.3108,6.3108,6.3108,6.3108,6.3108,6.3108,6.3108,6.3108,6.3108,6.3078,6.2599,6.2361,6.2331,6.1852,6.1642,6.1642,6.1642,6.1433,6.1076,0.0,0.0,0.0,0.0,0.0,0.0,0.0,0.0,0.0,0.0,0.0,0.0,0.0,4.4885,4.5574,4.6211,4.6899,4.7309,4.7309,4.7309,4.7309,4.7309,4.7309,4.7309,4.7309,4.7309,4.7938,4.9247,4.9299,4.9935,5.1176,5.1176,5.1206,5.1206,5.1206,5.1206,5.1206,5.1206,5.1206,5.1206,5.1206,5.1206,5.1206,5.1206,5.1206,5.1206,5.1206,5.1206,5.1206,5.1206,5.1206,5.1206,5.1206,5.1206,5.1206,5.1206,5.1206,5.1206,5.1206,5.1206,5.1206,5.1206,5.1206,5.1206,5.1206,5.1206,5.1206,5.1206,5.1206,5.1385,5.2067,5.2187,5.2636,5.3952,5.47,5.5384,5.6072,5.6671,5.7304,5.7995,5.8085,5.8593,5.9877,6.0054,6.0054,6.0084,6.0685,6.1104,6.1076,6.1732,6.2061,6.2061,6.2718,6.3048,6.3078,6.3078,6.3078,6.3108,6.3108,6.3108,6.3108,6.3108,6.3108,6.3108,6.3108,6.3108,6.3108,6.3078,6.3078,6.3078,6.3048,6.3048,6.3048,6.3048,6.2211,6.1076,0.0,0.0,0.0,0.0,0.0,0.0,0.0,0.0,0.0,0.0,0.0,0.0,0.0,0.0,0.0,0.0,4.6899,4.7309,4.7309,4.7309,4.7309,4.7309,4.7309,4.7309,4.7309,4.7309,4.7967,4.9277,4.9277,4.9965,5.1206,5.1206,5.1206,5.1206,5.1206,5.1206,5.1206,5.1206,5.1206,5.1206,5.1206,5.1206,5.1206,5.1206,5.1206,5.1206,0.0,5.1206,5.1206,5.1206,5.1206,5.1206,5.1206,5.1206,5.1206,5.1206,5.1206,5.1206,5.1206,5.1206,5.1206,5.1206,5.1206,5.1206,5.1206,5.1206,5.1206,5.1206,5.1535,5.1947,5.2157,5.2935,5.3683,5.4132,5.5119,5.6102,5.6705,5.7363,5.8022,5.868,5.9159,5.9608,6.0084,6.0114,6.0473,6.1343,6.1642,6.1972,6.2391,6.2659,6.2778,6.2778,6.2988,6.3108,6.3108,6.3108,6.3108,6.3108,6.3108,6.3108,6.3108,6.3108,6.3108,6.3108,6.3108,6.3108,6.3108,6.3108,6.3108,6.3108,6.3108,6.3108,6.3108,6.3108,6.2808,6.2421,0.0,0.0,0.0,0.0,0.0,0.0,0.0,0.0,0.0,0.0,0.0,0.0,0.0,0.0,0.0,0.0,0.0,4.7309,4.7309,4.7309,4.7309,4.7309,4.7309,4.7309,4.7309,4.7549,4.8199,4.9277,4.9516,5.0152,5.1206,5.1206,5.1206,5.1206,5.1206,5.1206,5.1206,5.1206,5.1206,5.1206,5.1206,5.1206,5.1206,5.1206,5.1206,0.0,5.1206,5.1206,5.1206,5.1206,5.1206,5.1206,5.1206,5.1206,5.1206,5.1206,5.1206,5.1206,5.1206,5.1206,5.1206,5.1206,5.1206,5.1206,5.1206,5.1385,5.1535,5.1535,5.2097,5.2636,5.2875,5.3623,5.4371,5.485,5.5833,5.6761,5.7363,5.8025,5.871,5.9368,5.9817,6.0294,6.0745,6.0805,6.1164,6.2032,6.2301,6.2659,6.3078,6.3108,6.3108,6.3108,6.3108,6.3108,6.3108,6.3108,6.3108,6.3108,6.3108,6.3108,6.3108,6.3108,6.3108,6.3108,6.3108,6.3108,6.3108,6.3108,6.3108,6.3108,6.3108,6.3108,6.3108,6.3108,6.3108,6.3108,0.0,0.0,0.0,0.0,0.0,0.0,0.0,0.0,0.0,0.0,0.0,0.0,0.0,0.0,0.0,0.0,0.0,0.0,4.7309,4.7309,4.7309,4.7309,4.7309,4.7309,4.7309,4.7908,4.8588,4.9277,4.986,5.0518,5.1206,5.1206,5.1206,5.1206,5.1206,5.1206,5.1206,5.1206,5.1206,5.1206,5.1206,5.1206,5.1206,5.1206,5.1206,5.1206,5.1206,5.1206,5.1206,5.1206,5.1206,5.1206,5.1206,5.1206,5.1206,5.1206,5.1206,5.1206,5.1206,5.1206,5.1206,5.1206,5.1206,5.1206,5.1236,5.1738,5.2217,5.2247,5.2785,5.3468,5.4072,5.4251,5.467,5.5983,5.6731,5.7334,5.7995,5.871,5.9398,5.9997,6.0174,6.0685,6.1972,6.2121,6.2151,6.2151,6.2748,6.3108,6.3108,6.3108,6.3108,6.3108,6.3108,6.3108,6.3108,6.3108,6.3108,6.3108,6.3108,6.3108,6.3108,6.3108,6.3108,6.3108,6.3108,6.3108,6.3108,6.3108,6.3108,6.3108,6.3108,6.3108,6.3108,6.3108,6.3108,6.3108,0.0,0.0,0.0,0.0,0.0,0.0,0.0,0.0,0.0,0.0,0.0,0.0,0.0,0.0,0.0,0.0,0.0,0.0,4.7309,4.7309,4.7309,4.7309,4.7309,4.7309,4.7309,4.7459,4.8139,4.9277,4.9456,5.0092,5.1206,5.1206,5.1206,5.1206,5.1206,5.1206,5.1206,5.1206,5.1206,5.1206,5.1206,5.1206,5.1206,5.1206,5.1206,5.1206,5.1206,5.1206,5.1206,5.1206,5.1206,5.1206,5.1206,5.1206,5.1206,5.1206,5.1206,5.1206,5.1206,5.1206,5.1206,5.1206,5.1206,5.1325,5.1828,5.2067,5.2336,5.2839,5.3473,5.4012,5.4192,5.461,5.5209,5.6072,5.6731,5.7334,5.7995,5.9129,5.9907,6.0084,6.0984,6.1702,6.2061,6.254,6.2868,6.2868,6.3018,6.3108,6.3108,6.3108,6.3108,6.3108,6.3108,6.3108,6.3108,6.3108,6.3108,6.3108,6.3108,6.3108,6.3108,6.3108,6.3108,6.3108,6.3108,6.3108,6.3108,6.3108,6.3108,6.3108,6.3108,6.3108,6.3108,6.3108,6.3108,6.3108,0.0,0.0,0.0,0.0,0.0,0.0,0.0,0.0,0.0,0.0,0.0,0.0,0.0,0.0,0.0,0.0,0.0,0.0,0.0,4.7309,4.7309,4.7309,4.7309,4.7309,4.7309,4.7578,4.8087,4.8858,4.9179,4.9666,5.0361,5.0637,5.0757,5.0787,5.1056,5.1206,5.1206,5.1206,5.1206,0.0,0.0,5.1206,5.1206,5.1206,5.1206,5.1206,5.1206,5.1206,5.1206,5.1206,5.1206,5.1206,5.1206,5.1206,5.1206,5.1206,5.1206,5.1206,5.1206,5.1206,5.1206,5.1206,5.1415,5.1738,5.2127,5.2665,5.3174,5.3563,5.4162,5.464,5.464,5.5179,5.5863,5.6492,5.7124,5.7782,5.8444,5.9428,6.0206,6.0505,6.1463,6.2211,6.251,6.2898,6.3108,6.3108,6.3108,6.3108,6.3108,6.3108,6.3108,6.3108,6.3108,6.3108,6.3108,6.3108,6.3108,6.3108,6.3108,6.3108,6.3108,6.3108,6.3108,6.3108,6.3108,6.3108,6.3108,6.3108,6.3108,6.3108,6.3108,6.3108,6.3108,6.3108,6.3108,6.3108,0.0,0.0,0.0,0.0,0.0,0.0,0.0,0.0,0.0,0.0,0.0,0.0,0.0,0.0,0.0,0.0,0.0,0.0,0.0,0.0,4.7309,4.7309,4.7309,4.7309,4.7309,4.7878,4.8229,4.8319,4.8887,4.9187,4.9307,4.9853,5.0099,5.0099,5.0697,5.096,5.0936,5.1026,5.1056,5.1086,5.1146,5.1206,5.1206,0.0,0.0,5.1206,5.1206,5.1206,5.1206,5.1206,5.1206,5.1206,5.1206,5.1206,5.1206,5.1206,5.1206,5.1206,5.1206,5.1206,5.1206,5.1295,5.1768,5.2247,5.2426,5.3384,5.4251,5.4311,5.479,5.5179,5.5179,5.5743,5.6402,5.7004,5.7636,5.8354,5.9129,5.9817,6.0475,6.1136,6.1822,6.245,6.3048,6.3108,6.3108,6.3108,6.3108,6.3108,6.3108,6.3108,6.3108,6.3108,6.3108,6.3108,6.3108,6.3108,6.3108,6.3108,6.3108,6.3108,6.3108,6.3108,6.3108,6.3108,6.3108,6.3108,6.3108,6.3108,6.3108,6.3108,6.3108,6.3108,6.3108,6.3108,6.3108,6.3108,0.0,0.0,0.0,0.0,0.0,0.0,0.0,0.0,0.0,0.0,0.0,0.0,0.0,0.0,0.0,0.0,0.0,0.0,0.0,0.0,0.0,4.7309,4.7309,4.7309,4.7309,4.7429,4.7728,4.8319,4.8409,4.8768,4.9277,4.9396,4.9456,4.9456,4.9576,4.9636,4.9666,5.0159,5.0375,5.0405,5.0966,5.1206,5.1206,5.1206,0.0,0.0,5.1206,5.1206,5.1206,5.1206,5.1206,5.1206,5.1206,5.1206,5.1206,5.1206,5.1206,5.1206,5.1206,5.1206,5.1325,5.1887,5.2127,5.2486,5.3593,5.4042,5.4371,5.491,5.5119,5.5179,5.5179,5.5743,5.6402,5.7004,5.7636,5.8504,5.9727,6.0505,6.1194,6.1852,6.2539,6.2988,6.3108,6.3108,6.3108,6.3108,6.3108,6.3108,6.3108,6.3108,6.3108,6.3108,6.3108,6.3108,6.3108,6.3108,6.3108,6.3108,6.3108,6.3108,6.3108,6.3108,6.3108,6.3108,6.3108,6.3108,6.3108,6.3108,6.3108,6.3108,6.3108,6.3108,6.3108,6.3108,6.3108,6.3108,0.0,0.0,0.0,0.0,0.0,0.0,0.0,0.0,0.0,0.0,4.7018,4.6929,0.0,0.0,0.0,0.0,0.0,0.0,0.0,0.0,0.0,0.0,0.0,0.0,4.6322,4.6975,4.7459,4.7788,0.0,4.7938,4.8289,4.8618,4.8768,4.8798,4.9127,4.9277,4.9307,4.9613,4.989,5.0226,5.0548,5.0877,5.1206,0.0,0.0,0.0,5.1206,5.1206,5.1206,5.1206,5.1206,5.1206,5.1206,5.1206,5.1206,5.1206,5.1206,5.1206,5.1206,5.1445,5.1798,5.2127,5.2725,5.3414,5.4047,5.4491,5.482,5.5119,5.5179,5.5179,5.5179,5.5987,5.6761,5.7034,5.7962,5.8979,5.9937,6.0685,6.1373,6.2032,6.2689,6.3108,6.3108,6.3108,6.3108,6.3108,6.3108,6.3108,6.3108,6.3108,6.3108,6.3108,6.3108,6.3108,6.3108,6.3408,6.3558,6.3558,6.3917,6.4096,6.4096,6.4096,6.4096,6.4096,6.4096,6.3887,6.3558,6.3558,6.3407,6.3108,6.3108,6.3108,6.3108,6.3108,6.3108,6.3108,0.0,0.0,0.0,0.0,0.0,0.0,0.0,4.4932,4.5846,4.7127,4.7062,4.6997,4.7287,4.7309,0.0,0.0,0.0,0.0,0.0,0.0,0.0,0.0,0.0,0.0,4.5824,0.0,0.0,4.7309,4.7309,0.0,0.0,0.0,0.0,0.0,4.8238,4.8469,4.8469,4.8617,4.9177,0.0,0.0,5.0607,5.1206,0.0,0.0,0.0,0.0,5.1206,5.1206,5.1206,5.1206,5.1206,5.1206,5.1206,5.1206,5.1206,5.1206,5.1206,5.1206,5.1708,5.2247,5.2366,5.3324,5.4251,5.4401,5.482,5.5179,5.5179,5.5179,5.5239,5.5414,5.6316,5.7154,5.7304,5.8321,5.9368,6.0206,6.0775,6.1403,6.2211,6.2778,6.3108,6.3108,6.3108,6.3108,6.3108,6.3108,6.3108,6.3108,6.3108,6.3108,6.3108,6.3227,6.3287,6.3287,6.3917,6.4216,6.4216,6.4725,6.4994,6.4994,6.4994,6.4994,6.4994,6.4994,6.4695,6.4216,6.4216,6.3917,6.3527,6.3527,6.3527,6.3468,6.3347,6.3287,6.3287,0.0,0.0,0.0,0.0,0.0,0.0,0.0,4.6077,4.5846,4.7127,4.6277,4.6032,4.7149,4.7309,0.0,0.0,0.0,0.0,0.0,0.0,0.0,0.0,0.0,0.0,0.0,0.0,0.0,4.7309,4.7309,0.0,0.0,0.0,0.0,0.0,0.0,4.5772,4.5801,4.6402,0.0,0.0,0.0,0.0,0.0,0.0,0.0,0.0,0.0,5.1206,5.1206,5.1206,5.1206,5.1206,5.1206,5.1206,5.1206,5.1206,5.1206,5.1206,5.1206,5.1708,5.2336,5.2959,5.3653,5.4371,5.497,5.5149,5.5179,5.5179,5.5179,5.5414,5.6013,5.6645,5.7304,5.7905,5.862,5.9548,6.0835,6.1046,6.1583,6.2868,6.3078,6.3108,6.3108,6.3108,6.3108,6.3108,6.3108,6.3108,6.3108,6.3108,6.3108,6.3108,6.3617,6.3917,6.3917,6.4575,6.4904,6.4904,6.4964,6.4994,6.4994,6.4994,6.4994,6.4994,6.4994,6.4964,6.4904,6.4904,6.4874,6.4815,6.4815,6.4815,6.4755,6.4156,6.3917,6.3827,0.0,0.0,0.0,0.0,0.0,0.0,0.0,4.5869,4.6432,4.6188,4.6366,4.6432,4.6188,4.6866,4.7309,0.0,0.0,0.0,0.0,0.0,0.0,0.0,0.0,0.0,0.0,0.0,4.6166,4.6166,4.6931,0.0,0.0,0.0,0.0,0.0,0.0,4.6121,4.5463,4.6496,0.0,0.0,0.0,0.0,0.0,0.0,0.0,0.0,0.0,0.0,5.1206,5.1206,5.1206,5.1206,5.1206,5.1206,5.1206,5.1206,5.1206,5.1295,5.1708,5.2276,5.2965,5.3623,5.4311,5.488,5.5119,5.5179,5.5179,5.5179,5.5179,5.5414,5.6072,5.6701,5.7334,5.7995,5.8653,5.9578,6.0896,6.1076,6.1613,6.2958,6.3108,6.3108,6.3108,6.3108,6.3108,6.3108,6.3108,6.3257,6.3617,6.3617,6.3617,6.3617,6.4276,6.4575,6.4575,6.5263,6.5592,6.5592,6.6011,6.6191,6.6191,6.6191,6.6191,6.6191,6.6191,6.5981,6.5592,6.5592,6.5353,6.4994,6.4994,6.4994,6.4964,6.4695,6.4575,6.4575,0.0,0.0,0.0,0.0,0.0,0.0,4.484,4.5531,4.6121,4.5958,4.641,4.6388,4.5508,4.655,4.7127,4.677,0.0,0.0,0.0,0.0,0.0,0.0,0.0,0.0,0.0,0.0,4.5598,4.5958,4.6866,4.6866,0.0,0.0,4.6616,4.5411,0.0,0.0,0.0,0.0,0.0,0.0,0.0,0.0,0.0,0.0,0.0,0.0,0.0,0.0,0.0,0.0,0.0,5.1206,5.1206,5.1206,5.1206,5.1206,5.1206,5.1355,5.2007,5.2665,5.3378,5.4042,5.47,5.5179,5.5179,5.5179,5.5179,5.5179,5.5359,5.5713,5.6342,5.6974,5.7633,5.8264,5.88,5.9578,6.0896,6.1076,6.1613,6.2958,6.3108,6.3108,6.3108,6.3108,6.3108,6.3108,6.3287,6.3528,6.3977,6.4366,6.4515,6.4306,6.4934,6.5293,6.5293,6.5981,6.6311,6.6311,6.6759,6.6999,6.6999,6.6999,6.6999,6.6999,6.6999,6.6729,6.6311,6.6311,6.6011,6.5562,6.5562,6.5562,6.5592,6.5353,6.5293,6.5263,0.0,0.0,0.0,0.0,0.0,0.0,0.0,4.5138,4.4442,4.6953,4.6188,4.5389,4.5389,4.655,4.677,4.5531,0.0,0.0,0.0,0.0,0.0,0.0,0.0,0.0,0.0,0.0,0.0,4.7287,4.7287,4.7287,4.7287,4.7287,4.6616,4.5343,0.0,0.0,0.0,0.0,0.0,0.0,0.0,0.0,0.0,0.0,0.0,0.0,0.0,0.0,0.0,0.0,0.0,0.0,0.0,5.1206,5.1206,5.1206,5.1206,5.1355,5.2007,5.2665,5.3378,5.4042,5.47,5.5179,5.5179,5.5179,5.5179,5.5179,5.5743,5.6372,5.6974,5.7633,5.8294,5.8979,5.9099,5.9578,6.0896,6.1076,6.1613,6.2958,6.3108,6.3108,6.3108,6.3108,6.3108,6.3108,6.3647,6.3977,6.4006,6.5263,6.5682,6.5024,6.5622,6.6011,6.6011,6.664,6.6969,6.6969,6.6999,6.6999,6.6999,6.6999,6.6999,6.6999,6.6999,6.6999,6.6969,6.6969,6.6969,6.6969,6.6969,6.6969,6.6879,6.6251,6.6011,6.5861,0.0,0.0,0.0,0.0,0.0,0.0,0.0,4.6077,4.6077,4.6003,4.5666,4.507,4.421,4.5229,4.5138,4.3002,0.0,0.0,0.0,0.0,0.0,0.0,0.0,0.0,0.0,0.0,0.0,0.0,0.0,4.5981,4.5981,4.5981,4.5779,4.5366,4.4978,4.5024,0.0,0.0,0.0,0.0,0.0,0.0,5.1206,0.0,0.0,0.0,0.0,0.0,0.0,0.0,0.0,0.0,0.0,0.0,0.0,5.1206,5.1505,5.2037,5.2695,5.3354,5.4042,5.473,5.5029,5.5179,5.5179,5.5179,5.5179,5.5179,5.5743,5.6372,5.6974,5.7663,5.8324,5.9009,5.9488,6.0086,6.0984,6.1493,6.2121,6.3018,6.3108,6.3108,6.3108,6.3108,6.3287,6.3677,6.3887,6.4395,6.5323,6.5772,6.5922,6.5712,6.634,6.667,6.667,6.6879,6.6999,6.6999,6.6999,6.6999,6.6999,6.6999,6.6999,6.6999,6.6999,6.6999,6.6999,6.6999,6.6999,6.6999,6.6999,6.6999,6.6969,6.6759,6.667,6.664,0.0,0.0,0.0,0.0,0.0,0.0,0.0,4.6366,4.6299,4.5508,4.5824,4.5434,4.3693,4.4627,4.4771,4.317,0.0,0.0,0.0,0.0,0.0,0.0,0.0,0.0,0.0,0.0,0.0,0.0,0.0,0.0,0.0,0.0,4.5389,4.5389,4.5389,4.5666,0.0,0.0,0.0,0.0,0.0,0.0,5.1206,0.0,0.0,0.0,0.0,0.0,0.0,0.0,0.0,0.0,0.0,0.0,0.0,0.0,5.2067,5.269,5.3109,5.3683,5.4371,5.5029,5.5179,5.5179,5.5179,5.5179,5.5269,5.5534,5.6102,5.6731,5.7363,5.8052,5.8593,5.9039,5.9668,6.0326,6.1014,6.1672,6.2331,6.3018,6.3108,6.3108,6.3108,6.3108,6.3347,6.3947,6.4246,6.4874,6.5951,6.6251,6.637,6.637,6.6789,6.6999,6.6999,6.6999,6.6999,6.6999,6.6999,6.6999,6.6999,6.6999,6.6999,6.6999,6.6999,6.6999,0.0,6.6999,6.6999,6.6999,6.6999,6.6999,6.6999,6.6999,6.6999,6.6999,0.0,0.0,0.0,0.0,0.0,0.0,0.0,0.0,0.0,0.0,4.641,4.6233,4.3764,4.4627,4.532,0.0,0.0,0.0,0.0,0.0,0.0,0.0,0.0,0.0,0.0,0.0,0.0,4.5252,4.3999,4.4069,4.5389,0.0,0.0,4.5389,4.5389,4.6077,0.0,0.0,0.0,0.0,0.0,0.0,0.0,0.0,0.0,0.0,0.0,0.0,0.0,0.0,0.0,0.0,0.0,0.0,0.0,0.0,0.0,0.0,0.0,5.3743,5.4431,5.5029,5.5179,5.5179,5.5179,5.5179,0.0,5.6072,5.6701,5.7304,5.7965,5.865,5.9099,5.9099,5.9697,6.0386,6.1014,6.1732,6.2391,6.3048,6.3108,6.3108,6.3108,6.3138,6.3437,6.4036,6.4665,6.5353,6.6041,6.667,6.6999,6.6999,6.6999,6.6999,6.6999,6.6999,6.6999,6.6999,6.6999,6.6999,6.6999,6.6999,6.6999,6.6999,6.6999,6.6999,6.6999,6.6999,6.6999,6.6999,6.6999,6.6999,6.6999,6.6999,6.6999,6.6999,0.0,0.0,0.0,0.0,0.0,0.0,0.0,0.0,0.0,0.0,0.0,4.5252,4.3669,4.4627,0.0,0.0,0.0,0.0,0.0,0.0,0.0,0.0,0.0,0.0,0.0,0.0,0.0,4.3952,4.2665,4.3194,4.5366,4.4396,0.0,0.0,0.0,0.0,0.0,0.0,0.0,0.0,0.0,0.0,0.0,0.0,0.0,0.0,5.1206,5.1206,0.0,0.0,0.0,0.0,0.0,0.0,0.0,0.0,5.2665,5.3318,5.3832,0.0,5.4999,5.5149,5.5179,5.5179,0.0,5.5179,5.5414,5.6072,5.6701,5.7304,5.7965,5.865,5.9099,5.9099,6.0086,6.0924,6.1104,6.2121,6.2928,6.3078,6.3108,6.3108,6.3108,6.3527,6.4066,6.4695,6.5383,6.6071,6.6729,6.6909,6.6999,6.6999,6.6999,6.6999,6.6999,6.6999,6.6999,6.6999,6.6999,6.6999,6.6999,6.6999,6.6999,6.6999,6.6999,6.6999,6.6999,6.6999,6.6999,6.6999,6.6999,6.6999,6.6999,6.6999,6.6999,6.6999,0.0,0.0,0.0,0.0,0.0,0.0,0.0,0.0,0.0,0.0,0.0,0.0,0.0,0.0,0.0,0.0,0.0,0.0,0.0,0.0,0.0,0.0,0.0,0.0,0.0,0.0,0.0,0.0,0.0,4.2593,0.0,0.0,0.0,0.0,0.0,0.0,0.0,0.0,0.0,0.0,5.0458,0.0,0.0,0.0,0.0,0.0,5.1206,5.1206,0.0,5.1206,5.1206,5.1206,0.0,0.0,0.0,0.0,5.2929,5.3408,5.4401,5.491,5.5179,5.5179,5.5179,5.5179,5.5179,5.5444,5.5863,5.6492,5.7124,5.7782,5.8441,5.886,5.9189,5.9518,6.0446,6.1313,6.1942,6.2659,6.3108,6.3108,6.3108,6.3108,6.3108,6.3647,6.4276,6.4934,6.5622,6.6281,6.6939,6.6999,6.6999,6.6999,6.6999,6.6999,6.6999,6.6999,6.6999,6.6999,6.6999,6.6999,6.6999,6.6999,6.6999,6.6999,6.6999,6.6999,6.6999,6.6999,6.6999,6.6999,6.6999,6.6999,6.6999,6.6999,6.6999,6.6999,0.0,0.0,0.0,0.0,0.0,0.0,0.0,0.0,0.0,0.0,0.0,0.0,0.0,0.0,0.0,0.0,0.0,0.0,0.0,0.0,0.0,0.0,0.0,0.0,0.0,0.0,0.0,0.0,0.0,0.0,0.0,0.0,4.4186,0.0,0.0,0.0,0.0,0.0,0.0,0.0,5.0315,0.0,0.0,0.0,0.0,0.0,0.0,0.0,0.0,5.1206,5.1206,5.1206,5.1206,0.0,0.0,0.0,0.0,0.0,5.485,5.5179,5.5179,5.5179,5.5179,5.5179,5.5179,5.5713,5.6372,5.6974,5.7633,5.8294,5.8979,5.9099,5.9308,5.9967,6.0745,6.1702,6.2928,6.3108,6.3108,6.3108,6.3108,6.3108,6.3108,6.3737,6.4395,6.4964,6.5742,6.64,6.6969,6.6999,6.6999,6.6999,6.6999,6.6999,6.6999,6.6999,6.6999,6.6999,6.6999,6.6999,6.6999,6.6999,6.6999,6.6999,6.6999,0.0,6.6999,6.6999,6.6999,6.6999,6.6999,6.6999,6.6999,6.6999,6.6999,6.6999,0.0,0.0,0.0,0.0,0.0,0.0,0.0,0.0,0.0,0.0,0.0,0.0,0.0,0.0,0.0,0.0,0.0,0.0,0.0,0.0,0.0,0.0,0.0,0.0,0.0,0.0,0.0,0.0,0.0,0.0,4.5092,4.3999,4.4186,0.0,0.0,0.0,0.0,0.0,0.0,0.0,5.0817,0.0,0.0,0.0,0.0,0.0,0.0,0.0,0.0,5.1206,5.1206,5.1206,5.1206,0.0,0.0,0.0,0.0,0.0,5.497,5.5179,5.5179,5.5179,5.5179,5.5179,5.5179,5.5713,5.6372,5.6974,5.7633,5.8294,5.8979,5.9099,5.9308,5.9967,6.1134,6.2211,6.2988,6.3108,6.3108,6.3108,6.3108,6.3108,6.3108,6.4156,6.4874,6.4994,6.6161,6.6879,6.6999,6.6999,6.6999,6.6999,6.6999,6.6999,6.6999,6.6999,6.6999,6.6999,6.6999,6.6999,6.6999,6.6999,6.6999,6.6999,0.0,6.6999,6.6999,6.6999,6.6999,6.6999,6.6999,6.6999,6.6999,6.6999,6.6999,6.6999,0.0,0.0,0.0,0.0,0.0,0.0,0.0,0.0,0.0,0.0,0.0,0.0,0.0,0.0,0.0,0.0,0.0,0.0,0.0,0.0,0.0,0.0,0.0,0.0,0.0,0.0,0.0,0.0,0.0,4.3575,4.5389,4.5531,4.6072,4.7014,0.0,0.0,0.0,0.0,0.0,0.0,0.0,0.0,0.0,0.0,0.0,0.0,0.0,0.0,0.0,0.0,5.1206,5.1206,5.1206,0.0,0.0,0.0,0.0,0.0,5.4999,5.5179,5.5179,5.5179,5.5179,5.5269,5.5683,5.6252,5.6881,5.7513,5.8145,5.8713,5.9039,5.9398,5.9967,6.1014,6.2002,6.2748,6.3078,6.3108,6.3108,6.3108,6.3108,6.3227,6.3528,6.4455,6.5144,6.5503,6.646,6.6999,6.6999,6.6999,6.6999,6.6999,6.6999,6.6999,6.6999,6.6999,6.6999,6.6999,6.6999,6.6999,6.6999,6.6999,6.6999,6.6999,0.0,6.6999,6.6999,6.6999,6.6999,6.6999,6.6999,6.6999,6.6999,6.6999,6.6999,6.6999,0.0,0.0,0.0,0.0,0.0,0.0,0.0,0.0,0.0,0.0,0.0,0.0,0.0,0.0,0.0,0.0,0.0,0.0,0.0,0.0,0.0,0.0,0.0,0.0,0.0,0.0,4.317,4.2471,4.317,4.4139,4.5411,4.6564,4.7362,0.0,0.0,0.0,0.0,0.0,0.0,0.0,0.0,0.0,0.0,0.0,0.0,0.0,0.0,0.0,0.0,0.0,0.0,0.0,0.0,0.0,0.0,5.3049,5.3773,5.4551,5.5059,5.5179,5.5179,5.5179,5.5324,5.5564,5.6072,5.6791,5.7483,5.7995,5.8623,5.9159,5.9308,5.9997,6.0894,6.1942,6.266,6.3108,6.3108,6.3108,6.3108,6.3108,6.3108,6.3347,6.3947,6.4605,6.5263,6.5951,6.661,6.6999,6.6999,6.6999,6.6999,6.6999,6.6999,6.6999,6.6999,6.6999,6.6999,6.6999,6.6999,6.6999,6.6999,6.6999,6.6999,6.6999,6.6999,6.6999,6.6999,6.6999,6.6999,6.6999,6.6999,6.6999,6.6999,6.6999,6.6999,6.6999,0.0,0.0,0.0,0.0,0.0,0.0,0.0,0.0,0.0,0.0,0.0,0.0,0.0,0.0,0.0,0.0,0.0,0.0,0.0,0.0,0.0,0.0,0.0,0.0,0.0,4.3456,4.4022,4.5138,4.4022,4.4139,4.5417,4.6108,4.6495,4.6628,0.0,0.0,0.0,0.0,0.0,0.0,0.0,0.0,0.0,0.0,0.0,0.0,0.0,0.0,0.0,0.0,0.0,0.0,0.0,0.0,5.3139,5.3198,5.4127,5.5119,5.5179,5.5179,5.5179,5.5179,5.5683,5.6132,5.6192,5.7154,5.8025,5.8085,5.8623,5.9279,5.9907,6.1074,6.1972,6.2091,6.266,6.3108,6.3108,6.3108,6.3108,6.3108,6.3108,6.3347,6.3947,6.4605,6.5263,6.5951,6.661,6.6999,6.6999,6.6999,6.6999,6.6999,6.6999,6.6999,6.6999,6.6999,6.6999,6.6999,6.6999,6.6999,6.6999,6.6999,6.6999,6.6999,6.6999,6.6999,6.6999,6.6999,6.6999,6.6999,6.6999,6.6999,6.6999,6.6999,6.6999,6.6999,0.0,0.0,0.0,0.0,0.0,0.0,0.0,0.0,0.0,0.0,0.0,0.0,0.0,0.0,0.0,0.0,0.0,0.0,0.0,0.0,0.0,4.5901,0.0,4.5366,4.5846,4.5092,4.4512,4.421,4.532,4.5914,4.6039,4.7105,0.0,0.0,0.0,0.0,0.0,0.0,0.0,0.0,0.0,0.0,0.0,0.0,0.0,0.0,0.0,0.0,0.0,0.0,5.1206,5.1265,5.1708,5.2456,5.3288,5.3683,5.4461,5.5179,5.5179,5.5179,5.5299,5.5713,5.6312,5.6761,5.6761,5.7453,5.8205,5.865,5.9249,6.0057,6.1134,6.1762,6.2241,6.2659,6.2928,6.3108,6.3108,6.3108,6.3108,6.3108,6.3437,6.3917,6.4575,6.5203,6.5922,6.658,6.6849,6.6999,6.6999,6.6999,6.6999,6.6999,6.6999,6.6999,6.6999,6.6999,6.6999,6.6999,6.6999,6.6999,6.6999,6.6999,6.6999,6.6999,6.6999,6.6999,6.6999,6.6999,6.6999,6.6999,6.6999,6.6999,6.6999,6.6999,6.6999,6.6999,0.0,0.0,0.0,0.0,0.0,0.0,0.0,0.0,0.0,0.0,0.0,0.0,0.0,0.0,0.0,0.0,0.0,0.0,0.0,0.0,4.6836,4.7165,4.7286,4.7325,4.7325,4.6871,4.6113,4.5032,4.6573,4.7331,4.7332,0.0,0.0,0.0,0.0,0.0,0.0,0.0,0.0,0.0,0.0,5.1206,0.0,0.0,0.0,0.0,0.0,0.0,0.0,0.0,5.1206,5.1295,5.2007,5.2665,5.3348,5.4012,5.467,5.5179,5.5179,5.5329,5.5623,5.6102,5.6795,5.7423,5.7423,5.7932,5.862,5.9279,6.0116,6.1014,6.1942,6.2271,6.2569,6.3048,6.3108,6.3108,6.3108,6.3108,6.3168,6.3377,6.3737,6.4366,6.5233,6.5742,6.6281,6.6939,6.6999,6.6999,6.6999,6.6999,6.6999,6.6999,6.6999,6.6999,6.6999,6.6999,6.6999,6.6999,6.6999,6.6999,6.6999,6.6999,6.6999,6.6999,6.6999,6.6999,6.6999,6.6999,6.6999,6.6999,6.6999,6.6999,6.6999,6.6999,6.6999,6.6999,0.0,0.0,0.0,0.0,0.0,0.0,0.0,0.0,0.0,0.0,0.0,0.0,0.0,0.0,0.0,0.0,0.0,0.0,0.0,4.7407,4.7975,4.9209,4.8091,4.7431,4.7431,4.8679,4.8977,4.8319,4.77,4.8068,4.9284,4.8617,0.0,0.0,0.0,0.0,0.0,0.0,0.0,0.0,5.1206,5.1206,0.0,0.0,0.0,0.0,0.0,0.0,0.0,0.0,5.1206,5.1325,5.2007,5.2665,5.3348,5.4012,5.467,5.5179,5.5179,5.5683,5.6192,5.6222,5.7154,5.8085,5.8115,5.865,5.9308,5.9994,6.1164,6.2091,6.2121,6.2659,6.3108,6.3108,6.3108,6.3108,6.3108,6.3108,6.3347,6.3917,6.4006,6.4545,6.5892,6.6011,6.6281,6.6939,6.6999,6.6999,6.6999,6.6999,6.6999,6.6999,6.6999,6.6999,6.6999,6.6999,6.6999,6.6999,6.6999,6.6999,6.6999,6.6999,6.6999,6.6999,6.6999,6.6999,6.6999,6.6999,6.6999,6.6999,6.6999,6.6999,6.6999,6.6999,6.6999,6.6999,0.0,0.0,0.0,0.0,0.0,0.0,0.0,0.0,0.0,0.0,0.0,0.0,0.0,0.0,0.0,0.0,0.0,0.0,0.0,4.9122,4.9121,4.8552,4.8656,4.8748,4.8748,4.9521,4.9643,4.9007,4.8818,4.9145,0.0,0.0,0.0,5.0907,0.0,0.0,0.0,0.0,0.0,5.1206,5.1206,5.1206,0.0,0.0,0.0,0.0,0.0,0.0,0.0,0.0,0.0,0.0,5.2665,5.3354,5.4042,5.47,5.5029,5.5179,5.5179,5.5683,5.6312,5.6731,5.7483,5.8205,5.871,5.9308,6.0116,6.1253,6.1822,6.2241,6.2718,6.2988,6.3108,6.3108,6.3108,6.3108,6.3108,6.3108,6.3347,6.3917,6.4425,6.5024,6.5922,6.643,6.6789,6.6969,6.6999,6.6999,6.6999,6.6999,6.6999,6.6999,6.6999,6.6999,6.6999,6.6999,6.6999,6.6999,6.6999,6.6999,6.6999,6.6999,6.6999,6.6999,6.6999,6.6999,6.6999,6.6999,6.6999,6.6999,6.6999,6.6999,6.6999,6.6999,6.6999,6.6999,0.0,0.0,0.0,0.0,0.0,0.0,0.0,0.0,0.0,0.0,0.0,0.0,0.0,0.0,0.0,0.0,0.0,0.0,0.0,0.0,5.0252,4.9437,4.9819,5.0032,5.0032,5.0398,5.0398,5.0032,5.0032,0.0,0.0,0.0,5.0817,5.1206,0.0,5.1206,5.1206,5.1206,5.1206,5.1206,5.1206,5.1206,5.1206,0.0,0.0,0.0,0.0,0.0,0.0,0.0,0.0,0.0,5.3294,5.3862,5.4341,5.4999,5.5179,5.5239,5.5534,5.6072,5.6731,5.7334,5.8022,5.8743,5.9697,6.0206,6.0805,6.1882,6.2301,6.26,6.3048,6.3108,6.3108,6.3108,6.3108,6.3108,6.3108,6.3317,6.3677,6.4336,6.4964,6.5652,6.634,6.6759,6.6999,6.6999,6.6999,6.6999,6.6999,6.6999,6.6999,6.6999,6.6999,6.6999,6.6999,6.6999,6.6999,6.6999,6.6999,6.6999,6.6999,6.6999,6.6999,6.6999,6.6999,6.6999,6.6999,6.6999,6.6999,6.6999,6.6999,6.6999,6.6999,6.6999,6.6999,6.6999,0.0,0.0,0.0,0.0,0.0,0.0,0.0,0.0,0.0,0.0,0.0,0.0,0.0,0.0,0.0,0.0,0.0,0.0,0.0,0.0,5.1206,5.1206,5.1206,5.1206,5.1206,5.1206,5.1206,5.1206,5.1206,0.0,0.0,0.0,5.1206,5.1206,0.0,5.1206,5.1206,5.1206,5.1206,5.1206,5.1206,5.1206,5.1206,5.1206,0.0,0.0,0.0,0.0,0.0,0.0,0.0,0.0,5.3832,5.4251,5.4431,5.5029,5.5179,5.5329,5.6013,5.6641,5.7244,5.7935,5.865,5.9548,6.0835,6.1136,6.1403,6.2061,6.2689,6.3108,6.3108,6.3108,6.3108,6.3108,6.3108,6.3138,6.3168,6.3647,6.4276,6.4994,6.5652,6.6251,6.6939,6.6999,6.6999,6.6999,6.6999,6.6999,6.6999,6.6999,6.6999,6.6999,6.6999,6.6999,6.6999,6.6999,6.6999,6.6999,6.6999,6.6999,6.6999,6.6999,6.6999,6.6999,6.6999,6.6999,6.6999,6.6999,6.6999,6.6999,6.6999,6.6999,6.6999,6.6999,6.6999,6.6999,0.0,0.0,0.0,0.0,0.0,0.0,0.0,0.0,0.0,0.0,0.0,0.0,0.0,0.0,0.0,0.0,0.0,0.0,0.0,0.0,5.1206,5.1206,5.1206,5.1206,5.1206,5.1206,5.1206,5.1206,5.1206,0.0,0.0,0.0,0.0,5.1206,0.0,5.1206,5.1206,5.1206,5.1206,5.1206,5.1206,5.1206,5.1206,5.1206,5.1206,0.0,0.0,0.0,0.0,0.0,0.0,0.0,5.4132,5.4551,5.4999,5.5149,5.5179,5.5329,5.6013,5.6641,5.7244,5.7935,5.9009,6.0086,6.0896,6.1523,6.2061,6.2748,6.3018,6.3108,6.3108,6.3108,6.3108,6.3108,6.3108,6.3287,6.3737,6.3917,6.4455,6.5622,6.5922,6.6251,6.6939,6.6999,6.6999,6.6999,6.6999,6.6999,6.6999,6.6999,6.6999,6.6999,6.6999,6.6999,6.6999,6.6999,6.6999,6.6999,6.6999,6.6999,6.6999,6.6999,6.6999,6.6999,6.6999,6.6999,6.6999,6.6999,6.6999,6.6999,6.6999,6.6999,6.6999,6.6999,6.6999,6.6999,0.0,0.0,0.0,0.0,0.0,0.0,0.0,0.0,0.0,0.0,0.0,0.0,0.0,0.0,0.0,0.0,0.0,0.0,0.0,0.0,0.0,5.1206,5.1206,5.1206,5.1206,5.1206,5.1206,5.1206,5.1206,0.0,0.0,0.0,0.0,5.1206,0.0,5.1206,5.1206,5.1206,5.1206,5.1206,5.1206,5.1206,5.1206,5.1206,5.1385,5.1678,5.1678,0.0,0.0,0.0,0.0,0.0,0.0,0.0,5.5179,5.5179,5.5444,5.5833,5.6462,5.7094,5.7752,5.8384,5.9608,6.0685,6.1044,6.1882,6.2689,6.3048,6.3108,6.3108,6.3108,6.3108,6.3108,6.3108,6.3108,6.3317,6.3917,6.4276,6.4874,6.5892,6.6281,6.661,6.6969,6.6999,6.6999,6.6999,6.6999,6.6999,6.6999,6.6999,6.6999,6.6999,6.6999,6.6999,6.6999,6.6999,6.6999,6.6999,6.6999,6.6999,6.6999,6.6999,6.6999,6.6999,6.6999,6.6999,6.6999,6.6999,6.6999,6.6999,6.6999,6.6999,6.6999,6.6999,6.6999,6.6999,0.0,0.0,0.0,0.0,0.0,0.0,0.0,0.0,0.0,0.0,0.0,0.0,0.0,0.0,0.0,0.0,0.0,0.0,0.0,0.0,0.0,0.0,5.1206,5.1206,5.1206,5.1206,5.1206,5.1206,5.1206,0.0,0.0,0.0,0.0,5.1206,0.0,5.1206,5.1206,5.1206,5.1206,5.1206,5.1206,5.1206,5.1206,0.0,0.0,5.2217,5.2336,5.2785,5.3468,5.4012,0.0,0.0,0.0,0.0,5.5209,5.5354,5.5773,5.6372,5.7064,5.7782,5.8414,5.9099,6.0206,6.1134,6.1253,6.2211,6.3108,6.3108,6.3108,6.3108,6.3108,6.3108,6.3108,6.3108,6.3108,6.3347,6.4066,6.4635,6.5293,6.6071,6.667,6.6999,6.6999,6.6999,6.6999,6.6999,6.6999,6.6999,6.6999,6.6999,6.6999,6.6999,6.6999,6.6999,6.6999,6.6999,6.6999,6.6999,6.6999,6.7059,6.7148,6.7148,6.7089,6.6999,6.6999,6.7059,6.7148,6.7148,6.7238,6.7328,6.7328,6.7328,6.7328,6.7328,6.7328,6.7328,0.0,0.0,0.0,0.0,0.0,0.0,0.0,0.0,0.0,0.0,0.0,0.0,0.0,0.0,0.0,0.0,0.0,0.0,5.1206,0.0,0.0,5.1206,5.1206,5.1206,5.1206,5.1206,5.1206,5.1206,5.1206,0.0,0.0,0.0,0.0,5.1206,0.0,5.1206,5.1206,5.1206,5.1206,5.1206,5.1206,5.1206,5.1265,0.0,0.0,0.0,0.0,5.3503,5.4072,5.4192,5.4581,0.0,0.0,0.0,5.5299,5.5893,5.6132,5.6462,5.7663,5.8471,5.9129,5.9787,6.0535,6.1253,6.1822,6.254,6.3108,6.3108,6.3108,6.3108,6.3108,6.3108,6.3108,6.3108,6.3108,6.3498,6.4695,6.4934,6.5443,6.67,6.6939,6.6999,6.6999,6.6999,6.6999,6.6999,6.6999,6.6999,6.6999,6.6999,6.6999,6.6999,6.6999,6.6999,6.6999,6.6999,6.6999,6.6999,6.6999,6.7329,6.7868,6.7868,6.7568,6.6999,6.6999,6.7329,6.7868,6.7868,6.8227,6.8734,6.8734,6.8734,6.8734,6.8734,6.8734,6.8734,0.0,0.0,0.0,0.0,0.0,0.0,0.0,0.0,0.0,0.0,0.0,0.0,0.0,0.0,0.0,5.1206,5.1206,5.1206,5.1206,5.1206,5.1206,5.1206,5.1206,5.1206,5.1206,5.1206,5.1206,5.1206,5.1206,0.0,0.0,5.1206,5.1206,0.0,0.0,0.0,0.0,5.1206,5.1206,5.1236,5.1594,5.1768,0.0,0.0,0.0,0.0,0.0,0.0,0.0,5.476,5.494,5.5179,5.5179,0.0,0.0,0.0,5.6731,5.7483,5.8411,5.889,5.9249,5.9907,6.0595,6.1283,6.1942,6.2629,6.3108,6.3108,6.3108,6.3108,6.3108,6.3108,6.3108,6.3108,6.3407,6.3917,6.4874,6.5323,6.5922,6.6879,6.6999,6.6999,6.6999,6.6999,6.6999,6.6999,6.6999,6.6999,6.6999,6.6999,6.6999,6.6999,6.6999,6.6999,6.6999,6.6999,6.7178,6.7568,6.7568,6.7928,6.8555,6.8555,6.8405,6.8106,6.8106,6.8286,6.8555,6.8555,6.8734,6.9004,6.9004,6.9004,6.9004,6.9004,6.9004,6.9004,0.0,0.0,0.0,0.0,0.0,0.0,0.0,0.0,0.0,0.0,0.0,0.0,0.0,0.0,0.0,0.0,5.1206,5.1206,5.1206,5.1206,5.1206,5.1206,5.1206,5.1206,5.1206,5.1206,5.1206,5.1206,5.1206,0.0,5.1206,5.1206,5.1206,0.0,5.1206,5.1206,0.0,0.0,0.0,5.1505,0.0,0.0,0.0,0.0,0.0,0.0,0.0,0.0,0.0,0.0,5.5179,5.5209,5.5414,5.5803,0.0,0.0,0.0,5.8444,5.8979,5.9099,5.9308,6.0146,6.0745,6.1343,6.2151,6.2748,6.3108,6.3108,6.3108,6.3108,6.3108,6.3108,6.3108,6.3108,6.3588,6.4246,6.4904,6.5562,6.6251,6.6909,6.6999,6.6999,6.6999,6.6999,6.6999,6.6999,6.6999,6.6999,6.6999,6.6999,6.6999,6.6999,6.6999,6.6999,6.6999,6.7148,6.7598,6.8257,6.8257,6.8585,6.9243,6.9243,6.9333,6.9453,6.9153,6.9093,6.9243,6.9243,6.9333,6.9482,6.9482,6.9482,6.9482,6.9482,6.9482,6.9482,0.0,0.0,0.0,0.0,0.0,0.0,0.0,0.0,0.0,0.0,0.0,0.0,0.0,0.0,5.1206,5.1206,5.1206,5.1206,5.1206,5.1206,5.1206,5.1206,5.1206,0.0,5.1206,5.1206,5.1206,5.1206,5.1206,5.1206,5.1206,5.1206,5.1206,5.1206,5.1206,5.1206,5.1236,0.0,0.0,0.0,0.0,0.0,0.0,0.0,0.0,0.0,0.0,0.0,0.0,0.0,0.0,5.5299,5.5953,5.6162,5.6432,0.0,0.0,0.0,5.9099,5.9099,5.9428,6.0717,6.1046,6.1433,6.2748,6.3078,6.3108,6.3108,6.3108,6.3108,6.3108,6.3108,6.3108,6.3108,6.3588,6.4246,6.4904,6.5562,6.6251,6.6909,6.6999,6.6999,6.6999,6.6999,6.6999,6.6999,6.6999,6.6999,6.6999,6.6999,6.6999,6.6999,6.6999,6.6999,6.6999,6.7628,6.8287,6.8944,6.8944,6.9303,6.9963,6.9963,7.026,7.0739,6.9512,6.9363,6.9963,6.9963,7.029,7.0799,7.0799,7.0799,7.0799,7.0799,7.0799,7.0799,0.0,0.0,0.0,0.0,0.0,0.0,0.0,0.0,0.0,0.0,0.0,0.0,0.0,5.1206,5.1206,5.1206,5.1206,5.1206,5.1206,5.1206,5.1206,5.1206,5.1206,5.1206,5.1206,5.1206,5.1206,0.0,5.1206,5.1206,5.1206,5.1206,5.1206,5.1206,5.1206,5.1415,5.1858,5.2097,0.0,0.0,0.0,0.0,0.0,0.0,0.0,0.0,0.0,0.0,0.0,0.0,0.0,0.0,0.0,0.0,5.7603,5.8501,5.8919,5.9099,5.9099,5.9398,5.9967,6.0894,6.1433,6.1972,6.2898,6.3108,6.3108,6.3108,6.3108,6.3108,6.3108,6.3108,6.3108,6.3108,6.3588,6.4246,6.4904,6.5562,6.6251,6.6909,6.6999,6.6999,6.6999,6.6999,6.6999,6.6999,6.6999,6.6999,6.6999,6.6999,6.6999,6.6999,6.6999,6.7208,6.7658,6.7868,6.8525,6.9602,6.9602,6.9961,7.056,7.056,7.0709,7.0889,7.041,7.035,7.056,7.056,7.0709,7.0889,7.0889,7.0173,6.9253,7.0436,6.9357,6.741,0.0,0.0,0.0,0.0,0.0,0.0,0.0,0.0,0.0,0.0,0.0,0.0,0.0,0.0,5.1206,5.1206,5.1206,5.1206,5.1206,5.1206,5.1206,5.1206,5.1206,5.1206,5.1206,0.0,0.0,0.0,0.0,0.0,5.1206,5.1415,5.1558,5.1535,5.1768,5.2007,0.0,0.0,0.0,5.3593,0.0,0.0,5.4581,0.0,0.0,0.0,0.0,0.0,0.0,0.0,0.0,0.0,0.0,0.0,0.0,5.8979,5.9099,5.9159,5.9368,5.9757,6.0296,6.1224,6.1762,6.2271,6.2958,6.3108,6.3108,6.3108,6.3108,6.3108,6.3108,6.3108,6.3108,6.3108,6.3588,6.4246,6.4904,6.5562,6.6251,6.6909,6.6999,6.6999,6.6999,6.6999,6.6999,6.6999,6.6999,6.6999,6.6999,6.6999,6.6999,6.6999,6.7239,6.7688,6.8347,6.8556,6.9183,7.026,7.029,7.05,7.0889,7.0889,7.0889,7.0889,7.0889,7.0889,7.0889,7.0889,7.0531,6.9946,6.9946,6.8788,6.7301,6.8523,6.7376,6.5391,0.0,0.0,0.0,0.0,0.0,0.0,0.0,0.0,0.0,0.0,0.0,0.0,0.0,0.0,0.0,5.1206,5.1206,5.1206,5.1206,5.1206,5.1206,5.1206,5.1206,5.1206,5.1206,0.0,0.0,0.0,0.0,0.0,0.0,0.0,5.2217,5.2247,5.2905,5.2845,5.2336,5.3653,5.4221,5.4311,0.0,5.5179,5.5179,0.0,0.0,0.0,5.6222,5.6611,0.0,5.7124,0.0,0.0,0.0,0.0,0.0,0.0,0.0,5.9279,0.0,0.0,0.0,6.1762,6.2121,6.2301,6.2958,6.3108,6.3108,6.3108,6.3108,6.3108,6.3108,6.3108,6.3108,6.3108,6.3588,6.4216,6.4904,6.5562,6.6221,6.6909,6.6999,6.6999,6.6999,6.6999,6.6999,6.6999,6.6999,6.6999,6.6999,6.6999,6.6999,6.6999,6.7658,6.8347,6.9004,6.9662,7.029,7.0889,7.0889,7.0889,7.0889,7.0889,7.0889,7.0889,7.0889,7.0856,7.0791,7.0791,6.9748,6.8112,6.8015,6.6823,6.5115,6.5151,6.5115,6.5044,0.0,0.0,0.0,0.0,0.0,0.0,0.0,0.0,0.0,0.0,0.0,0.0,0.0,0.0,0.0,5.1206,5.1206,5.1206,5.1206,5.1206,5.1206,5.1206,5.1206,5.1206,5.1206,0.0,0.0,0.0,0.0,0.0,0.0,0.0,0.0,0.0,5.3623,5.3832,5.3683,5.4042,5.4491,5.494,5.5119,5.5179,0.0,0.0,0.0,0.0,0.0,5.7274,5.7816,0.0,5.8171,5.859,0.0,0.0,0.0,0.0,0.0,0.0,6.0054,0.0,0.0,0.0,0.0,0.0,6.3078,6.3108,6.3108,6.3108,6.3108,6.3108,6.3108,6.3108,6.3108,6.3108,6.3257,6.3737,6.4845,6.5144,6.5712,6.6849,6.6999,6.6999,6.6999,6.6999,6.6999,6.6999,6.6999,6.6999,6.6999,6.6999,6.6999,6.6999,6.7658,6.8347,6.9004,6.9662,7.029,7.0889,7.0889,7.0889,7.0889,7.0889,7.0889,7.0889,7.0889,7.014,6.8856,6.8856,6.8586,6.7947,6.6545,6.4821,6.3355,6.4714,6.3448,6.129,0.0,0.0,0.0,0.0,0.0,0.0,0.0,0.0,0.0,0.0,0.0,0.0,0.0,0.0,0.0,0.0,5.1206,5.1206,5.1206,5.1206,5.1206,5.1206,5.1206,5.1325,0.0,0.0,0.0,0.0,0.0,0.0,0.0,0.0,0.0,0.0,0.0,5.461,5.464,5.491,5.5239,5.5623,5.5623,5.5773,0.0,5.6432,5.6761,0.0,0.0,0.0,5.853,5.853,5.88,0.0,0.0,0.0,0.0,0.0,0.0,0.0,0.0,0.0,6.2151,6.245,0.0,0.0,6.3108,6.3108,6.3108,6.3108,6.3108,6.3108,6.3108,6.3108,6.3108,6.3108,6.3108,6.3467,6.4455,6.4815,6.5383,6.646,6.6819,6.6999,6.6999,6.6999,6.6999,6.6999,6.6999,6.6999,6.6999,6.6999,6.6999,6.6999,6.7928,6.8585,6.9004,6.9901,7.056,7.0889,7.0889,7.0889,7.0889,7.0889,7.0889,7.0889,7.0889,7.0272,6.922,6.8417,6.7163,6.5667,6.5356,6.3548,6.1429,6.3329,6.2126,5.9676,0.0,0.0,0.0,0.0,0.0,0.0,0.0,0.0,0.0,0.0,0.0,0.0,0.0,0.0,0.0,0.0,5.1415,5.1415,5.1415,5.1415,0.0,0.0,0.0,0.0,0.0,0.0,0.0,0.0,0.0,0.0,0.0,0.0,0.0,0.0,0.0,0.0,5.5329,5.6013,5.6342,5.6402,5.6342,5.6611,0.0,0.0,5.7573,5.8115,5.8175,5.8593,5.9129,5.9189,5.9219,0.0,0.0,0.0,0.0,0.0,6.0685,0.0,0.0,0.0,0.0,6.2958,6.3108,0.0,6.3108,6.3108,6.3108,6.3108,6.3108,6.3108,6.3108,6.3108,6.3108,6.3108,6.3108,6.3317,6.3917,6.4515,6.5144,6.5922,6.652,6.6909,6.6969,6.6999,6.6999,6.6999,6.6999,6.6999,6.6999,6.6999,6.6999,6.6999,6.8286,6.9004,6.9004,7.026,7.0889,7.0889,7.0889,7.0889,7.0889,7.0889,7.0889,7.0889,7.0889,7.0791,7.0436,6.8788,6.6118,6.3172,6.4642,6.2998,6.0035,6.1741,6.1165,5.9483,0.0,0.0,0.0,0.0,0.0,0.0,0.0,0.0,0.0,0.0,0.0,0.0,0.0,0.0,0.0,0.0,0.0,5.2785,0.0,0.0,0.0,0.0,0.0,0.0,0.0,0.0,0.0,0.0,0.0,0.0,0.0,0.0,0.0,0.0,0.0,0.0,5.6042,5.6645,5.7244,5.7666,5.7124,5.6974,5.7154,5.7723,5.7995,5.8175,5.871,5.9009,5.9189,5.9727,5.9877,5.9997,0.0,0.0,0.0,6.0894,0.0,0.0,0.0,0.0,0.0,0.0,6.3108,0.0,6.3108,6.3108,6.3108,6.3108,6.3108,6.3108,6.3108,6.3108,6.3108,6.3108,6.3108,6.3317,6.3917,6.4126,6.4635,6.5862,6.6131,6.64,6.6939,6.6999,6.6999,6.6999,6.6999,6.6999,6.6999,6.6999,6.6999,6.6999,6.8286,6.9004,6.9004,7.026,7.0889,7.0889,7.0889,7.0889,7.0889,7.0889,7.0889,7.0889,7.0889,7.0012,6.862,6.8248,6.7673,6.6886,6.5675,6.3839,6.1891,6.2264,6.1165,5.9483,0.0,0.0,0.0,0.0,0.0,0.0,0.0,0.0,0.0,0.0,0.0,0.0,0.0,0.0,0.0,0.0,0.0,0.0,0.0,0.0,0.0,0.0,0.0,0.0,0.0,0.0,0.0,0.0,0.0,0.0,0.0,0.0,0.0,0.0,0.0,0.0,5.6701,5.7334,5.7992,5.8534,5.7872,5.7812,5.8171,5.883,5.9099,5.9189,5.9877,6.0116,6.0146,6.0505,6.0595,0.0,6.1014,6.1343,6.1613,0.0,6.2061,6.26,0.0,0.0,0.0,6.3108,0.0,0.0,0.0,6.3108,6.3108,6.3108,6.3108,6.3108,6.3108,6.3108,6.3108,6.3108,6.3108,6.3227,6.3527,6.3797,6.4246,6.4934,6.5592,6.6131,6.646,6.6789,6.6999,6.6999,6.6999,6.6999,6.6999,6.6999,6.6999,6.6999,6.8286,6.9004,6.9004,7.026,7.0889,7.0889,7.0889,7.0889,7.0889,7.0889,7.0889,7.0889,7.0889,7.037,6.9486,6.9486,6.8952,6.7912,6.5957,6.4057,6.2413,6.2413,6.1165,5.9483,4.8493,0.0,0.0,0.0,0.0,0.0,0.0,0.0,0.0,0.0,0.0,0.0,0.0,0.0,0.0,0.0,0.0,0.0,0.0,0.0,0.0,0.0,0.0,5.3832,0.0,0.0,0.0,0.0,0.0,0.0,0.0,0.0,0.0,0.0,0.0,5.7304,5.7334,5.8171,5.88,5.9249,5.8833,5.8982,5.9548,6.0086,6.0266,6.0356,6.0924,6.1076,6.1106,6.1253,6.1313,6.1313,6.1463,6.1624,0.0,0.0,0.0,0.0,0.0,0.0,0.0,0.0,0.0,6.3108,0.0,0.0,0.0,6.3108,6.3108,6.3108,6.3108,6.3108,6.3018,6.2778,6.2928,6.3018,6.2748,6.3348,6.3857,6.3977,6.4964,6.5712,6.5981,6.661,6.6999,6.6999,6.6999,6.6999,6.6999,6.6999,6.6999,6.6999,6.8286,6.9004,6.9004,7.026,7.0889,7.0889,7.0889,7.0889,7.0889,7.0889,7.0889,7.0889,7.0889,7.0889,7.0856,7.0501,6.9453,6.7947,6.637,6.4382,6.2413,6.2413,6.1165,5.9483,4.6921,4.8214,0.0,0.0,0.0,0.0,0.0,0.0,0.0,0.0,0.0,0.0,0.0,0.0,0.0,0.0,0.0,0.0,5.497,0.0,0.0,0.0,0.0,0.0,5.5089,0.0,0.0,0.0,0.0,0.0,0.0,0.0,0.0,0.0,5.7693,5.7995,5.8055,5.9338,5.9934,6.0027,6.0565,6.0777,6.0894,6.0954,6.1014,6.1014,6.1046,6.1076,6.1194,0.0,6.2002,6.2091,0.0,6.1851,6.0993,6.2553,0.0,0.0,0.0,0.0,0.0,0.0,6.3108,0.0,6.3108,0.0,6.3108,6.3108,0.0,6.3108,6.3108,0.0,0.0,6.1523,6.2301,6.266,6.1493,6.2391,6.3378,6.3947,6.4126,6.4695,6.5892,6.661,6.6999,6.6999,6.6999,6.6999,6.6999,6.6999,6.6999,6.6999,6.8286,6.9004,6.9004,7.026,7.0889,7.0889,7.0889,7.0889,7.0889,7.0889,7.0889,7.0889,7.0889,7.0889,7.0759,6.9119,6.8315,6.8078,6.7844,6.5561,6.2413,6.2413,6.1165,5.9483,4.7442,4.8337,0.0,0.0,0.0,0.0,0.0,0.0,0.0,0.0,0.0,0.0,0.0,0.0,0.0,0.0,0.0,5.5384,0.0,0.0,0.0,0.0,0.0,0.0,0.0,0.0,0.0,0.0,5.6731,0.0,0.0,0.0,0.0,0.0,5.8381,5.8919,5.9308,5.9847,6.0535,6.1283,6.1583,6.1912,6.2211,6.1822,6.1912,6.2241,6.2241,6.2241,6.2301,0.0,6.2689,0.0,0.0,0.0,0.0,6.2875,0.0,0.0,0.0,0.0,0.0,0.0,0.0,0.0,6.3108,0.0,6.3108,6.3108,0.0,0.0,0.0,0.0,0.0,0.0,6.272,6.2898,6.2331,6.2748,6.3197,6.3467,6.3767,6.4545,6.5892,6.661,6.6999,6.6999,6.6999,6.6999,6.6999,6.6999,6.6999,6.6999,6.8286,6.9004,6.9004,7.026,7.0889,7.0889,7.0889,7.0889,7.0889,7.0889,7.0889,7.0889,7.0889,7.0889,7.0824,7.0075,6.9086,6.8112,6.8112,6.6405,6.3766,6.1516,6.1603,6.2508,4.7838,0.0,0.0,0.0,0.0,0.0,0.0,0.0,0.0,0.0,0.0,0.0,5.5448,5.5598,0.0,0.0,5.5718,5.5953,0.0,0.0,5.6641,0.0,0.0,0.0,0.0,0.0,0.0,0.0,0.0,0.0,0.0,0.0,0.0,0.0,5.9159,5.9757,6.0386,6.0565,6.1194,6.2121,6.2301,6.2689,6.3048,6.254,6.2689,6.3108,6.3108,6.3108,6.3108,6.3108,6.3108,0.0,6.3108,6.2788,6.2497,0.0,0.0,0.0,6.2846,0.0,0.0,0.0,0.0,0.0,0.0,0.0,0.0,0.0,6.3108,0.0,0.0,0.0,6.2988,6.26,0.0,6.2988,6.26,6.2868,6.3108,6.3108,6.3617,6.4395,6.5353,6.6221,6.6729,6.6729,6.6879,6.6999,6.6999,6.6999,6.6999,6.6999,6.8106,6.8794,6.9004,7.0111,7.0739,7.0889,7.0889,7.0889,7.0889,7.0889,7.0889,7.0889,7.0889,7.0889,7.0856,7.0337,6.932,6.8049,6.7507,6.644,6.4821,6.1516,6.236,6.475,4.7435,5.0606,0.0,0.0,5.32,0.0,0.0,0.0,0.0,0.0,0.0,0.0,0.0,0.0,0.0,0.0,0.0,5.7034,5.7064,0.0,5.7064,0.0,0.0,5.7094,0.0,0.0,0.0,0.0,0.0,0.0,0.0,0.0,0.0,0.0,6.0057,6.0446,6.1106,6.1762,6.2061,6.2151,6.2808,6.3078,6.3108,6.3078,6.3078,6.3108,6.3108,0.0,0.0,6.3108,6.3108,0.0,0.0,0.0,0.0,0.0,0.0,0.0,0.0,0.0,0.0,6.2672,0.0,0.0,0.0,0.0,6.3108,0.0,0.0,0.0,0.0,0.0,0.0,0.0,0.0,0.0,0.0,6.2271,6.3108,6.3108,6.3617,6.4006,6.4066,6.5263,6.6041,6.6041,6.664,6.6999,6.6999,6.6999,6.6999,6.6999,6.7688,6.8347,6.9004,6.9662,7.032,7.0889,7.0889,7.0889,7.0889,7.0889,7.0889,7.0889,7.0889,7.0889,7.0759,6.8952,6.8151,6.7912,6.6027,6.5222,6.4964,6.3025,6.3511,6.4929,0.0,0.0,0.0,5.2966,5.3902,5.5089,0.0,5.6222,0.0,0.0,5.6645,0.0,0.0,5.6974,5.7094,0.0,0.0,5.7304,5.7726,5.7756,0.0,0.0,0.0,5.8411,0.0,0.0,0.0,0.0,0.0,0.0,0.0,0.0,0.0,0.0,6.0775,6.1134,6.1792,6.2002,6.2361,6.278,6.3018,6.3108,6.3108,6.3108,6.3108,6.3108,6.3108,6.3108,0.0,6.3108,6.3108,6.3108,6.3108,6.2701,6.2321,6.2904,6.1466,0.0,0.0,0.0,5.9256,6.093,0.0,0.0,0.0,0.0,0.0,0.0,0.0,0.0,0.0,0.0,0.0,0.0,0.0,0.0,0.0,6.2808,6.3108,6.3108,6.3617,6.4006,6.4006,6.5203,6.6011,6.6011,6.661,6.6999,6.6999,6.6999,6.6999,6.6999,6.7658,6.8347,6.9004,6.9662,7.029,7.0889,7.0889,7.0889,7.0889,7.0889,7.0889,7.0889,7.0889,7.0889,7.0824,7.0206,6.9946,6.9781,6.785,6.7128,6.6719,6.3575,6.3584,6.4929,4.8757,0.0,0.0,5.2831,5.4413,5.6017,0.0,0.0,0.0,0.0,5.7513,0.0,5.7812,0.0,5.853,0.0,5.853,5.871,5.9132,5.9162,0.0,5.9787,5.9817,0.0,0.0,0.0,0.0,0.0,0.0,6.0446,0.0,0.0,0.0,0.0,6.1463,6.1822,6.2479,6.2479,6.2718,6.3108,6.3108,6.3227,6.3437,6.3437,6.3287,6.3108,0.0,6.3108,6.3021,6.238,6.2584,6.2875,6.1673,6.1703,6.2175,6.2175,6.0959,5.9749,6.0328,5.9718,0.0,6.0237,6.096,0.0,6.2846,0.0,6.3108,0.0,0.0,0.0,0.0,0.0,0.0,0.0,0.0,0.0,0.0,6.3108,6.3108,6.3108,6.3438,6.3677,6.3677,6.4665,6.5383,6.5652,6.6281,6.6759,6.6969,6.6999,6.6999,6.6999,6.7449,6.8076,6.9004,6.9423,7.0051,7.0889,7.0889,7.0889,7.0889,7.0889,7.0889,7.0889,7.0889,7.0531,6.988,6.988,6.9486,6.8759,6.7542,6.6649,6.5773,6.3319,6.3584,6.5036,5.2106,5.2564,5.254,5.2127,5.4898,5.7154,5.7184,0.0,5.7244,0.0,5.8411,5.9189,5.9189,6.0356,6.1076,6.1076,6.1076,6.1076,6.1076,6.1076,0.0,0.0,6.1076,6.1076,6.1076,0.0,0.0,0.0,0.0,0.0,0.0,0.0,0.0,0.0,6.2151,6.248,6.3108,6.3108,6.3138,6.3138,6.3138,6.3527,6.4036,6.4036,6.3648,6.3053,6.3053,6.3053,6.2791,6.1017,6.1613,6.2469,5.9124,5.9248,6.0596,6.0596,5.9403,5.8467,6.0141,6.0536,6.0475,6.0566,0.0,0.0,0.0,0.0,6.3138,0.0,0.0,0.0,0.0,0.0,0.0,0.0,0.0,0.0,6.3108,6.3108,6.3108,6.3108,6.3108,6.3108,6.3108,6.3677,6.4306,6.4964,6.5622,6.634,6.6969,6.6999,6.6999,6.6999,6.6999,6.7627,6.9004,6.9004,6.9632,7.0889,7.0889,7.0889,7.0889,7.0889,7.0889,7.0889,7.0889,6.9847,6.8112,6.8112,6.6927,6.5186,6.5107,6.3912,6.2264,6.2264,6.3392,6.4929,5.0786,5.3096,5.5473,5.6929,5.7541,5.8022,5.8501,5.9009,0.0,0.0,6.0386,6.0595,6.0595,6.0894,6.1076,6.1076,6.1076,0.0,0.0,0.0,0.0,6.1076,6.1076,6.1076,6.1076,6.1076,0.0,6.1076,0.0,0.0,6.1852,6.2331,6.2689,6.2838,6.2838,6.2958,6.3108,6.3108,6.3377,6.3767,6.3767,6.4156,6.4725,0.0,6.383,6.2503,6.2503,6.2503,6.2226,6.0421,6.1018,6.2134,5.9878,6.0417,6.1858,6.1858,6.0671,5.9718,6.1487,6.108,6.0421,6.1674,6.2319,6.2959,0.0,0.0,0.0,0.0,0.0,0.0,0.0,0.0,0.0,0.0,0.0,0.0,6.3108,6.3108,6.3108,6.3108,6.3108,6.3108,6.3108,6.4096,6.4815,6.4994,6.6101,6.6819,6.6969,6.6999,6.6999,6.6999,6.6999,6.7627,6.9004,6.9004,6.9632,7.0889,7.0889,7.0889,7.0889,7.0889,7.0889,7.0889,7.0889,6.9847,6.8112,6.8112,6.6927,6.5044,6.3657,6.1939,6.0265,6.0265,6.0545,6.095,5.2068,5.5138,5.8003,5.8789,5.8555,5.8573,5.9409,6.0116,0.0,6.1046,6.1373,0.0,6.1553,6.1792,6.1972,6.1972,6.1972,0.0,6.1972,0.0,0.0,6.1972,6.1972,6.1972,6.1972,6.1972,0.0,6.1972,0.0,0.0,6.254,6.2928,6.3108,6.3108,6.3108,6.3108,6.3138,6.3407,6.3857,6.4455,6.4455,6.4367,0.0,6.5142,6.4502,6.3152,6.3152,6.2807,6.2005,6.0287,6.1373,6.2904,5.9637,6.0352,6.2378,6.2378,6.1722,6.1214,6.2222,6.2347,6.2253,6.244,6.3058,6.3852,6.4755,6.4695,6.4455,0.0,6.4186,0.0,0.0,0.0,0.0,0.0,0.0,0.0,0.0,6.3108,6.3108,6.3108,6.3108,6.3108,6.3108,6.3977,6.4545,6.4545,6.5802,6.655,6.655,6.6819,6.6999,6.6999,6.6999,6.7627,6.9004,6.9004,6.9632,7.0889,7.0889,7.0498,6.9715,7.0531,7.0436,6.9682,6.9682,6.8591,6.6754,6.5949,6.4454,6.2593,6.1553,6.0469,5.9483,5.9483,6.0035,6.066,5.4873,5.7599,5.9714,5.9132,5.8987,5.9276,6.0222,6.0667,6.0914,6.1004,0.0,6.2211,6.2211,6.2748,6.3108,6.3108,6.3108,6.3108,6.3108,6.3108,6.3108,6.3108,6.3108,6.3108,6.3108,6.3108,6.3108,0.0,0.0,0.0,6.3108,6.3108,6.3108,6.3108,6.3197,6.3287,6.3407,6.3917,6.4367,6.4814,6.5024,6.4473,6.3633,6.5432,6.5231,6.3991,6.4217,6.3558,6.2294,6.0635,6.22,6.4057,5.9357,6.0114,6.2731,6.2731,6.2731,6.2794,6.3012,6.4147,6.4934,6.3444,6.4178,6.5263,6.5263,6.5203,6.5114,6.5114,6.5054,6.4994,0.0,0.0,0.0,6.3317,0.0,0.0,0.0,6.2759,6.2759,6.2759,6.2759,0.0,6.3079,6.3647,6.4006,6.4006,6.5263,6.6011,6.6011,6.664,6.6999,6.6999,6.6999,6.7627,6.9004,6.9004,6.9632,7.0889,7.0661,6.9682,6.8146,6.952,6.9286,6.7742,6.7742,6.6614,6.4714,6.3062,6.124,5.9483,5.9483,5.9483,5.9483,5.9483,6.0545,6.1779,5.7412,5.8406,5.9189,6.0452,6.1127,6.1539,6.1734,6.0645,5.9972,6.0524,6.1968,6.2928,6.2928,6.3048,6.3108,6.3108,6.3108,0.0,0.0,0.0,0.0,6.3108,6.3108,6.3108,6.3108,6.3108,6.3108,0.0,0.0,0.0,0.0,6.3108,6.3108,6.3138,6.3617,6.4156,6.4665,6.4785,6.4332,6.3719,6.5197,6.5122,6.4329,6.6144,6.483,6.2264,6.3765,6.4137,6.3679,6.189,6.2679,6.3996,6.1592,6.2286,6.3996,6.3996,6.3996,6.4283,6.5812,6.6456,6.6579,6.6273,6.6456,6.664,6.664,6.6221,6.5832,6.5832,6.5383,6.4994,6.4994,0.0,0.0,0.0,0.0,0.0,0.0,6.096,6.096,6.096,6.096,6.1525,6.2962,6.3647,6.4006,6.4006,6.5263,6.6011,6.6011,6.664,6.6999,6.6999,6.6999,6.7627,6.9004,6.9004,6.9632,7.0856,6.932,6.8417,6.8049,6.6788,6.6027,6.571,6.571,6.4642,6.2868,6.2535,6.124,5.9483,5.9483,5.9483,5.9483,5.9483,5.9714,5.9959,5.8566,5.9772,6.047,6.0735,6.0351,5.9986,5.9986,5.9548,5.9869,6.1614,6.2852,6.3587,6.3587,6.3887,6.4096,6.4096,6.4096,6.4096,6.4096,6.4096,6.4096,6.4096,6.4096,6.4096,6.4096,6.4096,6.4096,6.4096,0.0,0.0,0.0,0.0,6.4096,6.4096,6.4395,6.4367,6.4169,6.5111,6.4334,6.2566,6.4389,6.4448,6.3532,6.4287,6.3763,6.2637,6.3477,6.3778,6.356,6.2086,6.2164,6.2755,6.1864,6.2854,6.4281,6.4281,6.4949,6.5888,6.6754,6.6999,6.6999,6.6999,6.6999,6.6999,6.6999,6.6759,6.652,6.652,6.6251,6.5951,6.5562,6.5503,0.0,0.0,0.0,0.0,0.0,0.0,6.0748,6.2611,6.1182,6.0974,6.3324,6.2972,6.3001,6.3948,6.5263,6.6011,6.6011,6.664,6.6999,6.6999,6.6999,6.7627,6.9004,0.0,6.8643,7.0886,6.7952,6.6614,6.658,6.5639,6.4678,6.3766,6.3766,6.3245,6.2338,6.1316,6.0316,5.9483,5.9483,5.9483,5.9483,5.9483,5.9483,5.9483,5.8744,5.9997,6.0556,6.0202,5.9052,5.8321,5.8839,5.9352,6.0441,6.2499,6.3592,6.4216,6.4216,6.4665,6.4994,6.4994,6.4994,6.4994,6.4994,6.4994,6.4994,6.4994,6.4994,6.4994,6.4994,6.4994,6.4994,0.0,0.0,0.0,0.0,0.0,6.5084,6.5203,6.5203,6.4777,6.4159,0.0,6.4465,6.2487,6.3621,6.3563,6.2803,6.3075,6.3278,6.3391,6.3315,6.3064,6.2656,6.2143,6.2252,6.2621,6.3049,6.4165,6.5321,6.5321,6.63,6.7388,6.7238,6.7208,6.7178,6.7029,6.6999,6.6999,6.6999,6.6999,6.6999,6.6999,6.6999,6.6819,6.6311,6.6221,0.0,0.0,0.0,0.0,0.0,0.0,6.1278,6.4154,6.1828,6.0942,6.3416,6.258,6.2277,6.3204,6.4844,6.5651,6.5436,6.6059,6.657,6.6999,6.626,6.6851,6.9004,0.0,6.7115,7.0272,6.6412,6.4606,6.4606,6.4174,6.3182,6.1779,6.1779,6.1779,6.1666,6.0112,5.9483,5.9483,5.9483,5.9483,5.9483,5.9483,5.9483,5.9483,5.7799,5.7003,5.6645,5.8599,5.8806,5.9448,6.1559,6.1953,6.1906,6.1702,6.3562,6.4904,6.4904,6.4964,6.4994,6.4994,6.4994,6.4994,6.4994,6.4994,6.4994,6.4994,6.4994,6.4994,6.4994,6.4994,6.4994,0.0,0.0,6.4665,0.0,0.0,0.0,6.5922,6.5922,0.0,0.0,6.5598,6.5088,6.4847,6.3784,6.3377,6.348,6.514,6.4764,6.3391,6.3391,6.2337,6.1167,6.2726,6.4347,6.6009,6.7752,6.8417,6.8573,6.8573,6.8668,6.8675,6.8077,6.7928,6.7778,6.7148,6.6999,6.6999,6.6999,6.6999,6.6999,6.6999,6.6999,6.6969,6.6909,6.6909,6.67,0.0,0.0,0.0,0.0,0.0,6.2347,6.2718,6.192,6.1623,6.239,6.3235,6.296,6.1058,6.35,6.4661,6.3615,6.4188,6.5295,6.6968,6.383,6.4332,6.8942,6.5455,6.5237,6.8315,6.449,6.2646,6.2609,6.0824,5.992,5.9792,5.9792,5.9792,5.9753,5.956,5.9483,5.9483,5.9483,5.9483,5.9483,5.9483,5.9483,5.9483,5.684,5.7503,5.7893,5.7805,5.7792,5.8443,6.0485,6.1144,6.2224,6.4495,6.526,6.5592,6.5592,6.5981,6.6191,6.6191,6.6191,6.6191,6.6191,6.6191,6.6191,6.6191,6.6191,6.6191,6.6191,6.6191,6.5674,0.0,0.0,0.0,0.0,0.0,0.0,0.0,0.0,6.5245,6.4879,6.5433,6.4487,6.268,6.4397,6.4666,6.3943,6.3523,6.3813,6.4151,6.1867,6.0616,6.0268,6.2186,6.2828,6.3418,6.6409,6.738,6.738,6.738,6.8151,6.8944,6.8675,6.8585,6.8525,6.8256,6.8196,6.8106,6.7688,6.7598,6.7508,6.7059,6.6999,6.6999,6.6999,6.6999,6.6909,6.664,0.0,0.0,0.0,0.0,6.1142,6.331,6.0485,5.9089,6.1072,6.1685,6.1103,5.9143,6.2085,6.3933,6.391,6.3106,6.4024,6.6908,6.3813,6.4306,6.8942,6.4497,6.4202,6.8015,6.3025,6.1278,6.2312,6.0393,5.9483,5.9483,5.9483,5.9483,5.9483,5.9483,5.9483,5.9483,5.9483,5.9483,5.9483,5.9483,5.9483,5.9483,5.5793,5.7066,5.779,5.6799,5.7197,5.8358,6.0342,6.1657,6.3659,6.7137,6.7178,6.6879,6.6879,6.7298,6.7597,6.7597,6.7597,6.7597,6.7597,6.7597,6.7597,6.7597,6.7597,0.0,6.7597,6.7597,6.6978,6.5688,6.6385,0.0,0.0,0.0,0.0,0.0,6.513,6.466,6.3453,6.4916,6.4082,6.1925,6.4236,6.4604,6.3656,6.2302,6.3171,6.4786,6.1516,6.071,6.1403,6.2767,6.2683,6.2569,6.5822,6.7219,6.7677,6.7677,6.8552,6.9512,6.9333,6.9303,6.9243,6.9064,6.9004,6.8884,6.8407,6.8287,6.8107,6.7418,6.7268,6.7208,6.7029,6.6999,6.6999,6.6999,0.0,0.0,0.0,6.3671,6.223,6.479,6.1558,5.9571,6.0788,6.1191,6.0268,5.7589,6.0258,6.2212,6.2694,0.0,0.0,0.0,0.0,0.0,6.7318,6.2891,6.2548,6.6363,6.1715,6.0227,6.1504,6.0112,5.9483,5.9483,5.9483,5.9483,5.9483,5.9483,5.9483,5.9483,5.9483,5.9483,5.9483,5.9483,5.9483,5.9483,5.4632,5.4632,5.4844,5.5326,5.7436,5.9865,6.2199,6.466,6.6869,6.8722,6.8974,6.8974,6.8974,6.8974,6.8974,6.8974,6.8974,6.8974,6.8974,6.8974,6.8974,0.0,0.0,6.8974,6.8974,6.8974,6.8974,6.8942,0.0,0.0,6.5072,0.0,6.4462,6.3412,6.5259,6.5023,6.3335,6.3949,6.4197,6.4076,6.2931,6.2424,6.2424,6.2386,6.3548,6.4964,6.3025,6.3548,6.5115,6.5151,6.5151,6.5505,6.7473,6.9324,7.0827,7.0827,7.0856,7.0739,7.0173,6.9993,6.9844,6.9153,6.9004,6.9004,6.9004,6.9004,6.8794,6.8137,6.7987,6.7808,6.7119,6.6999,6.6999,6.6999,0.0,0.0,0.0,6.6968,0.0,6.6968,6.6309,6.4747,6.1875,6.2616,6.1325,5.6555,5.7931,5.8973,5.8973,0.0,0.0,6.1595,5.8655,0.0,6.3425,6.0334,5.9983,6.2424,6.0431,5.9483,5.9521,5.9483,5.9483,5.9483,5.9483,5.9483,5.9483,5.9483,5.9483,5.9483,5.9483,5.9483,5.9483,5.9483,5.9483,5.9483,5.5175,5.5742,5.6294,5.6433,5.8528,6.0429,6.1114,6.2996,6.5126,6.7384,6.7703,6.8367,7.0102,6.9512,6.8468,6.7126,6.7028,6.6475,0.0,6.5114,6.5684,6.6996,6.5784,6.5717,6.6996,6.575,6.451,6.3273,0.0,0.0,0.0,6.5766,6.4436,6.2049,6.2633,6.2813,6.271,6.2898,6.2951,6.3051,6.3939,6.3548,6.2413,6.2413,6.2757,6.3025,6.1127,6.0786,6.1328,6.1328,6.22,6.3392,6.4048,6.7301,7.0661,6.9353,6.8985,6.9224,7.0325,6.968,6.8964,7.003,7.029,7.0201,6.9782,6.9333,6.8944,6.8704,6.8675,6.8465,6.7808,6.7688,6.7538,6.7059,6.6999,0.0,6.6999,0.0,6.3313,6.3313,6.0959,5.8936,5.8011,5.9344,5.9144,5.6387,5.9008,6.0195,0.0,0.0,0.0,0.0,5.918,0.0,6.3894,6.0832,6.0316,6.2376,6.0431,5.9483,5.9483,5.9483,5.9483,5.9483,5.9483,5.9483,5.9483,5.9483,5.9483,5.9483,5.9483,5.9483,5.9483,5.9483,5.9483,5.9483,5.6344,5.6897,5.7336,5.7336,5.937,6.0998,6.0951,6.2711,6.4638,6.6172,6.6401,6.7016,6.8567,6.8028,0.0,6.7892,6.7892,6.7401,6.6235,6.5486,6.5623,6.6802,6.5012,6.4562,6.5731,6.4631,0.0,6.2328,6.3934,6.4326,6.3625,6.436,6.3277,6.0723,6.1442,6.1588,6.1354,6.2078,6.1966,6.1478,6.3365,6.3122,6.1589,6.1589,6.2211,6.2772,6.0824,6.0592,6.1134,6.0967,6.2167,6.3761,6.3519,6.6892,7.0531,6.8654,6.8586,6.9386,7.0596,7.0012,6.942,7.0629,7.0889,7.0799,7.041,7.0021,6.9662,6.9423,6.9363,6.9153,6.8526,6.8407,6.8167,6.7508,6.7389,6.7299,6.7029,0.0,6.3606,6.3606,6.1629,5.9712,5.8366,5.9253,5.8868,5.6376,5.8903,5.9782,0.0,0.0,5.819,6.0314,5.876,5.9276,6.2109,6.0378,6.0112,6.1316,6.0074,5.9483,5.9483,5.9483,5.9483,5.9483,5.9483,5.9483,5.9483,5.9483,5.9483,5.9483,5.9483,5.9483,5.9483,5.9483,5.9483,5.9483,5.7901,5.7926,5.7951,5.7951,5.9965,6.1532,6.1385,6.3452,6.5055,6.5055,6.5083,6.5182,6.5289,6.5324,6.6762,7.0325,0.0,0.0,7.0111,6.8456,6.757,6.7707,6.5851,6.4893,6.5,6.4893,6.4893,6.5036,6.3282,6.1441,5.9753,6.1579,6.1354,5.956,6.1417,6.1254,5.9674,6.1533,6.1294,5.9763,6.1571,6.1528,6.0387,6.0387,6.1812,6.358,6.1852,6.2338,6.3705,6.3256,6.4368,6.5845,6.5303,6.7759,7.0456,6.848,6.922,7.0694,7.0694,7.0694,7.0726,7.0856,7.0889,7.0889,7.0889,7.0889,7.0739,7.0171,7.0051,6.9842,6.9183,6.9064,6.8823,6.8011,6.7984,6.7776,6.6965,6.6752,6.666,6.6631,6.6415,0.0,6.1562,6.1225,5.9816,0.0,5.7911,0.0,0.0,0.0,5.8437,5.7109,5.765,5.8227,5.8742,5.9257,5.9483,5.9483,5.9483,5.9483,5.9483,5.9483,5.9483,5.9483,5.9483,5.9483,5.9483,5.9483,5.9483,5.9483,5.9483,5.9483,5.9483,5.9483,5.9483,5.9483,5.7901,5.8227,5.8529,5.8529,6.0547,6.1682,6.0189,6.2077,6.3655,6.3655,6.4055,6.4856,6.6331,6.6513,6.6876,6.7775,6.573,6.3766,6.2286,6.179,6.22,6.3684,6.1865,6.1553,6.3025,6.1629,6.1591,6.3062,6.2609,6.2152,6.1704,6.219,6.1354,5.9547,6.0414,6.0539,6.0161,6.1073,6.1236,6.0828,6.1315,6.1273,6.0989,6.0989,6.1356,6.1813,6.1364,6.1483,6.1827,6.1739,6.3012,6.4621,6.4487,6.7129,6.9696,6.6728,6.7266,6.8755,6.8755,6.8755,6.9119,7.0563,7.0889,7.0889,7.0889,7.0889,7.0859,7.0709,7.0679,7.05,6.9871,6.9752,6.9067,6.6883,6.7789,6.7993,6.5857,6.445,6.3428,6.2943,6.0436,5.8401,5.7564,5.7492,5.7123,0.0,0.0,5.8723,5.692,5.8984,5.944,5.7712,5.8227,5.878,5.9307,5.9433,5.9483,5.9483,5.9483,5.9483,5.9483,5.9483,5.9483,5.9483,5.9483,5.9483,5.9483,5.9483,5.9483,5.9483,5.9483,5.9483,5.9483,5.9483,5.9483,5.9483,5.8629,5.888,5.9156,5.9369,6.0559,6.1159,6.0406,6.14,6.2277,6.2277,6.2535,6.3143,6.4204,6.4319,6.4319,6.4319,6.4386,6.4011,6.2952,6.2029,6.2017,6.3092,6.13,6.0782,6.1813,6.0821,6.0782,6.1851,6.1851,6.1851,6.1851,6.1851,6.13,6.0286,6.0588,6.0713,6.0738,6.104,6.119,6.119,6.119,6.1341,6.1567,6.1567,6.1718,6.1943,6.1943,6.1943,6.1893,6.1642,6.2893,6.4625,6.5291,6.7547,6.9665,6.794,6.8579,6.96,6.8436,6.8721,6.9648,7.0661,7.0889,7.0889,7.0889,7.0889,7.0889,7.0889,7.0206,6.9498,6.9207,6.9148,6.8584,6.6834,6.7436,6.7555,6.5783,6.401,6.3118,6.3594,6.1179,5.9472,5.9507,5.8709,5.7878,5.7046,5.8911,0.0,5.7499,5.9672,6.0131,5.8315,5.8554,5.8981,5.9483,5.9483,5.9483,5.9483,5.9483,5.9483,5.9483,5.9483,5.9483,5.9483,5.9483,5.9483,5.9483,5.9483,5.9483,5.9483,5.9483,5.9483,5.9483,5.9483,5.9483,5.9483,5.9734,5.9759,5.9885,6.0362,6.0462,6.0613,6.1115,6.1266,6.1316,6.1316,6.1391,6.1441,6.1441,6.1441,6.1441,6.1441,6.443,6.6223,6.6033,6.4482,6.358,6.358,6.2063,6.119,6.119,6.119,6.119,6.119,6.119,6.119,6.119,6.119,6.119,6.119,6.1266,6.1316,6.1316,6.1391,6.1441,6.1441,6.1441,6.1718,6.2119,6.2119,6.2421,6.2781,6.2781,6.2781,6.2706,6.2295,6.3444,6.5257,6.6451,6.8188,6.9721,6.9776,7.0716,7.1236,6.89,6.9541,7.0824,7.0563,7.0694,7.0889,7.0889,7.0694,7.0563,7.0824,6.9386,6.8214,6.8485,6.8315,6.791,6.7334,6.7248,6.6883,6.5951,0.0,6.3909,6.5119,6.3591,6.2505,6.2548,6.1112,5.9558,5.8014,5.9404,5.9614,5.8102,5.9996,6.0392,5.8868,5.8792,5.9056,5.9483,5.9483,5.9483,5.9483,5.9483,5.9483,5.9483,5.9483,5.9483,5.9483,5.9483,5.9483,5.9483,5.9483,5.9483,5.9483,5.9483,5.9483,5.9483,5.9483,5.9483,5.9483,6.0839,6.0914,6.0939,6.104,6.104,6.109,6.1205,6.1567,6.1868,6.1868,6.2295,6.2531,6.2531,6.2531,6.2531,6.2531,6.3088,6.3043,6.2114,6.1813,6.1616,6.1616,6.1364,6.119,6.119,6.119,6.119,6.119,6.119,6.119,6.119,6.119,6.119,6.119,6.1667,6.1868,6.1918,6.237,6.2531,6.2531,6.2531,6.2581,6.2697,6.2697,6.2706,6.2781,6.2781,6.2781,6.2781,6.2681,6.4035,6.5685,6.593,6.7376,6.8948,6.8419,6.9577,7.0738,6.931,6.9927,7.0531,6.8952,6.9715,7.0889,7.0889,6.9682,6.8956,7.0596,6.9386,6.8586,7.0173,6.9186,6.8054,6.7968,6.7939,6.7164,6.4805,0.0,6.3543,6.1666,5.9851,5.8723,5.876,5.8488,5.8214,5.7939,5.8568,5.8883,5.8604,5.9349,5.9665,5.9382,5.9382,5.9408,5.9483,5.9483,5.9483,5.9483,5.9483,5.9483,5.9483,5.9483,5.9483,5.9483,5.9483,5.9483,5.9483,5.9483,5.9483,5.9483,5.9483,5.9483,5.9483,5.9483,5.9483,5.9483,6.114,6.119,6.1266,6.1567,6.1617,6.1718,6.2019,6.2295,6.2446,6.2446,6.2631,6.2781,6.2781,6.2781,6.2781,6.2781,6.2781,6.2581,6.2094,6.2069,6.2069,6.2069,6.2069,6.2069,6.2069,6.2069,6.2069,6.2069,6.2069,6.2069,6.2069,6.2069,6.2069,6.2069,6.2345,6.2446,6.2471,6.2681,6.2781,6.2781,6.2781,6.2781,6.2781,6.2781,6.2781,6.2781,6.2781,6.2781,6.2781,6.2781,6.3423,6.4378,6.5477,6.6468,6.7391,6.8191,6.8603,6.9152,7.0721,6.9806,6.8641,6.9847,6.9751,6.9648,7.0661,7.0239,6.9582,6.942,6.785,6.6823,6.765,6.63,6.5348,6.637,6.5702,0.0,6.3415,6.2379,6.1737,6.1584,5.9891,5.9148,6.0228,5.9376,5.8755,5.8755,5.9006,5.9131,5.9131,5.9357,5.9483,5.9483,5.9483,5.9483,5.9483,5.9483,5.9483,5.9483,5.9483,5.9483,5.9483,5.9483,5.9483,5.9483,5.9483,5.9483,5.9483,5.9483,5.9483,5.9483,5.9483,5.9483,5.9483,5.9483,5.9483,5.9483,6.1542,6.1567,6.1692,6.2119,6.2195,6.2345,6.2731,6.2781,6.2781,6.2781,6.2781,6.2781,6.2781,6.2781,6.2781,6.2781,6.2781,6.2781,6.2781,6.2781,6.2781,6.2781,6.2781,6.2781,6.2781,6.2781,6.2781,6.2781,6.2781,6.2781,6.2781,6.2781,6.2781,6.2781,6.2781,6.2781,6.2781,6.2781,6.2781,6.2781,6.2781,6.2781,6.2781,6.2781,6.2781,6.2781,6.2781,6.2781,6.2781,6.2781,6.2781,6.3042,6.4591,6.5082,6.5437,6.701,6.711,6.7433,7.0866,6.9445,6.7771,7.0758,7.0225,6.9223,7.0249,7.0358,6.9847,6.8417,6.6545,6.5356,6.578,6.3984,6.2988,6.4893,0.0,6.2413,6.2413,6.1127,6.0545,6.1591,6.0393,6.0074,6.1553,6.038,5.9483,5.9483,5.9483,5.9483,5.9483,5.9483,5.9483,5.9483,5.9483,5.9483,5.9483,5.9483,5.9483,5.9483,5.9483,5.9483,5.9483,5.9483,5.9483,5.9483,5.9483,5.9483,5.9483,5.9483,5.9483,5.9483,5.9483,5.9483,5.9483,5.9483,5.9483,5.9483,6.2556,6.2656,6.2681,6.2731,6.2731,6.2731,6.2781,6.2781,6.2781,6.2781,6.2781,6.2781,6.2781,6.2781,6.2781,6.2781,6.2781,6.2781,6.2781,6.2781,6.2781,6.2781,6.2781,6.2781,6.2781,6.2781,6.2781,6.2781,6.2781,6.2781,6.2781,6.2781,6.2781,6.2781,6.2781,6.2781,6.2781,6.2781,6.2781,6.2781,6.2781,6.2781,6.2781,6.2781,6.2781,6.2781,6.2781,6.2781,6.2781,6.2781,6.2781,6.2822,6.2985,6.3026,6.3042,6.3204,6.45,6.624,6.792,6.8979,6.9722,7.0135,7.0934,7.1195,6.9622,6.8754,6.8282,6.8146,6.6545,6.5745,6.7542,6.4885,6.2988,6.4893,0.0,0.0,6.2413,6.2301,6.1553,5.9882,5.9599,5.9585,5.9714,5.956,5.9483,5.9483,5.9483,5.9483,5.9483,5.9483,5.9483,5.9483,5.9483,5.9483,5.9483,5.9483,5.9483,5.9483,5.9483,5.9483,5.9483,5.9483,5.9483,5.9483,5.9483,5.9483,5.9483,5.9483,5.9483,5.9483,5.9483,5.9483,5.9483,5.9483,5.9483,5.9483,6.2756,6.2781,6.2781,6.2781,6.2781,6.2781,6.2781,6.2781,6.2781,6.2781,6.2781,6.2781,6.2781,6.2781,6.2781,6.2781,6.2781,6.2781,6.2781,6.2781,6.2781,6.2781,6.2781,6.2781,6.2781,6.2781,6.2781,6.2781,6.2781,6.2781,6.2781,6.2781,6.2781,6.2781,6.2781,6.2781,6.2781,6.2781,6.2781,6.2781,6.2781,6.2781,6.2781,6.2781,6.2781,6.2781,6.2781,6.2781,6.2781,6.2781,6.2781,6.2781,6.2781,6.2781,6.2781,6.2781,6.3367,6.4326,6.6136,6.7649,6.9004,7.0284,6.9725,6.8993,6.947,6.8186,6.6854,6.6854,6.5024,6.4057,6.5957,6.3182,6.124,6.3172,0.0,6.0584,6.0584,6.0584,6.0342,5.9599,5.9483,5.9483,5.9483,5.9483,5.9483,5.9483,5.9483,5.9483,5.9483,5.9483,5.9483,5.9483,5.9483,5.9483,5.9483,5.9483,5.9483,5.9483,5.9483,5.9483,5.9483,5.9483,5.9483,5.9483,5.9483,5.9483,5.9483,5.9483,5.9483,5.9483,5.9483,5.9483,5.9483,5.9483,5.9483,5.9483,6.2781,6.2781,6.2781,6.2781,6.2781,6.2781,6.2781,6.2781,6.2857,6.3073,6.3099,6.3174,6.3324,6.335,6.335,6.335,6.335,6.335,6.335,6.335,6.3199,6.2807,6.2781,6.2781,6.2781,6.2781,6.2781,6.2781,6.2781,6.2781,6.2781,6.2781,6.2781,6.2781,6.2781,6.2781,6.2781,6.2781,6.2781,6.2781,6.2781,6.2781,6.2781,6.2781,6.2781,6.2781,6.2781,6.2781,6.2781,6.2781,6.2781,6.2781,6.2781,6.2781,6.2781,6.2781,6.2781,6.3082,6.4497,6.6032,6.7926,7.0549,6.9245,6.7643,6.8973,6.7777,6.612,6.5372,6.3845,6.3006,6.412,6.1678,5.9946,6.1278,6.038,5.9483,5.9483,5.9483,5.9483,5.9483,5.9483,5.9483,5.9483,5.9483,5.9483,5.9483,5.9483,5.9483,5.9483,5.9483,5.9483,5.9483,5.9483,5.9483,5.9483,5.9483,5.9483,5.9483,5.9483,5.9483,5.9483,5.9483,5.9483,5.9483,5.9483,5.9483,5.9483,5.9483,5.9483,5.9483,5.9483,5.9483,5.9483,5.9483,5.9483,5.9483,6.2781,6.2781,6.2807,6.2807,6.2807,6.2807,6.2807,6.2807,6.3048,6.3626,6.3701,6.3902,6.4446,6.4496,6.4496,6.4496,6.4496,6.4496,6.4496,6.4496,6.3977,6.2857,6.2807,6.2807,6.2807,6.2807,6.2807,6.2807,6.2807,6.2807,6.2807,6.2807,6.2807,6.2807,6.2807,6.2807,6.2807,6.2807,6.2807,6.2807,6.2807,6.2807,6.2807,6.2781,6.2781,6.2781,6.2781,6.2781,6.2781,6.2781,6.2781,6.2781,6.2781,6.2781,6.2781,6.2781,6.2781,6.2781,6.2781,6.4258,6.6752,7.085,6.9858,6.7911,6.7948,6.7405,6.6165,6.3728,6.3208,6.3024,6.2518,6.0812,5.9508,5.9483,5.9483,5.9483,5.9483,5.9483,5.9483,5.9483,5.9483,5.9483,5.9483,5.9483,5.9483,5.9483,5.9483,5.9483,5.9483,5.9483,5.9483,5.9483,5.9483,5.9483,5.9483,5.9483,5.9483,5.9483,5.9483,5.9483,5.9483,5.9483,5.9483,5.9483,5.9483,5.9483,5.9483,5.9483,5.9483,5.9483,5.9483,5.9483,5.9483,5.9483,5.9483,5.9483,6.2781,6.3149,6.3425,6.3425,6.3726,6.3977,6.3977,6.3977,6.4069,6.427,6.427,6.4346,6.4496,6.4496,6.4496,6.4496,6.4496,6.4496,6.4496,6.4496,6.4371,6.4002,6.3977,6.3977,6.3977,6.3977,6.3977,6.3977,6.3977,6.3977,6.3977,6.3977,6.3977,6.3977,6.3977,6.3977,6.3977,6.3977,6.3977,6.3952,6.3576,6.3425,6.34,6.2932,6.2781,6.2781,6.2781,6.2781,6.2781,6.2781,6.2781,6.2781,6.2781,6.2781,6.2781,6.2781,6.2781,6.2781,6.2781,6.3245,6.4338,6.6984,6.7042,6.6445,6.6445,6.4924,6.3649,6.4255,6.3013,6.2058,6.2824,6.1364,5.996,5.9558,5.9483,5.9483,5.9483,5.9483,5.9483,5.9483,5.9483,5.9483,5.9483,5.9483,5.9483,5.9483,5.9483,5.9483,5.9483,5.9483,5.9483,5.9483,5.9483,5.9483,5.9483,5.9483,5.9483,5.9483,5.9483,5.9483,5.9483,5.9483,5.9483,5.9483,5.9483,5.9483,5.9483,5.9483,5.9483,5.9483,5.9483,5.9483,5.9483,5.9483,5.9483,5.9483,6.3475,6.3751,6.4002,6.4002,6.4295,6.4496,6.4496,6.4496,6.4597,6.4798,6.4848,6.4923,6.5082,6.5107,6.5107,6.5107,6.5107,6.5107,6.5107,6.5107,6.5107,6.5107,6.5107,6.4906,6.4521,6.4496,6.4496,6.4496,6.4496,6.4496,6.4496,6.4496,6.4496,6.4496,6.4496,6.4496,6.4496,6.4496,6.4496,6.4471,6.417,6.4002,6.3952,6.3601,6.335,6.3174,6.3174,6.2982,6.2781,6.2781,6.2781,6.2781,6.2781,6.2781,6.2781,6.2781,6.2781,6.2781,6.2781,6.2781,6.3082,6.4298,6.4591,6.483,6.5608,6.4,6.2608,6.3539,6.257,6.1713,6.229,6.1436,6.0487,5.991,5.9834,5.9734,5.9533,5.9483,5.9483,5.9483,5.9483,5.9483,5.9483,5.9483,5.9483,5.9483,5.9483,5.9483,5.9483,5.9483,5.9483,5.9483,5.9483,5.9483,5.9483,5.9483,5.9483,5.9483,5.9483,5.9483,5.9483,5.9483,5.9483,5.9483,5.9483,5.9483,5.9483,5.9483,5.9483,5.9483,5.9483,5.9483,5.9483,5.9483,5.9483,5.9483,6.4496,6.4547,6.4572,6.4572,6.4622,6.4647,6.4647,6.4647,6.4848,6.5308,6.5358,6.5559,6.6061,6.6112,6.6112,6.6112,6.6112,6.6112,6.6112,6.6112,6.6112,6.6112,6.6112,6.5634,6.4672,6.4647,6.4647,6.4647,6.4647,6.4647,6.4647,6.4647,6.4647,6.4647,6.4647,6.4647,6.4647,6.4647,6.4647,6.4647,6.4597,6.4572,6.4572,6.4521,6.422,6.3751,6.3751,6.34,6.2857,6.2807,6.2781,6.2781,6.2781,6.2781,6.2781,6.2781,6.2781,6.2781,6.2781,6.2781,6.2781,6.2781,6.2781,6.3286,6.5121,6.4123,6.2656,6.2195,6.2069,6.1918,6.1366,6.1266,6.1065,6.0487,6.0387,6.0211,5.9709,5.9608,5.9558,5.9558,5.9533,5.9483,5.9483,5.9483,5.9483,5.9483,5.9483,5.9483,5.9483,5.9483,5.9483,5.9483,5.9483,5.9483,5.9483,5.9483,5.9483,5.9483,5.9483,5.9483,5.9483,5.9483,5.9483,5.9483,5.9483,5.9483,5.9483,5.9483,5.9483,5.9483,5.9483,5.9483,5.9483,5.9483,5.9483,5.9483,6.4496,6.4848,6.5107,6.5107,6.5459,6.576,6.576,6.576,6.5785,6.5911,6.5936,6.5986,6.6086,6.6112,6.6112,6.6112,6.6112,6.6112,6.6112,6.6112,6.6112,6.6112,6.6112,6.5986,6.576,6.576,6.576,6.576,6.576,6.576,6.576,6.576,6.576,6.576,6.576,6.576,6.576,6.576,6.576,6.571,6.5283,6.5107,6.5057,6.4672,6.4446,6.4346,6.4346,6.3952,6.3425,6.2932,6.2781,6.2781,6.2781,6.2781,6.2781,6.2781,6.2781,6.2781,6.2781,6.2781,6.2781,6.2781,6.2781,6.2904,6.3367,6.3082,6.2756,6.2631,6.2647,6.243,6.1943,6.1818,6.1642,6.109,6.0989,6.0939,6.0839,6.0412,6.0136,6.0136,5.9759,5.9483,5.9483,5.9483,5.9483,5.9483,5.9483,5.9483,5.9483,5.9483,5.9483,5.9483,5.9483,5.9483,5.9483,5.9483,5.9483,5.9483,5.9483,5.9483,5.9483,5.9483,5.9483,5.9483,5.9483,5.9483,5.9483,5.9483,5.9483,5.9483,5.9483,5.9483,5.9483,5.9483,5.9483,5.9483,6.5258,6.5484,6.5685,6.5685,6.5911,6.6112,6.6112,6.6112,6.6112,6.6112,6.6112,6.6112,6.6112,6.6112,6.6112,6.6112,6.6112,6.6112,6.6112,6.6112,6.6112,6.6112,6.6112,6.6112,6.6112,6.6112,6.6112,6.6112,6.6112,6.6112,6.6112,6.6112,6.6112,6.6112,6.6112,6.6112,6.6112,6.6112,6.6112,6.6086,6.5785,6.5685,6.566,6.5358,6.5082,6.4856,6.4856,6.4354,6.3651,6.335,6.3048,6.2781,6.2781,6.2781,6.2781,6.2781,6.2781,6.2781,6.2781,6.2781,6.2781,6.2781,6.2781,6.2781,6.2781,6.2781,6.2781,6.2781,6.2781,6.2706,6.2446,6.2395,6.222,6.1667,6.1567,6.1492,6.1255,6.0914,6.0738,6.0738,6.0487,6.0286,6.0286,6.0286,6.0186,5.991,5.9885,5.9784,5.9508,5.9483,5.9483,5.9483,5.9483,5.9483,5.9483,5.9483,5.9483,5.9483,5.9483,5.9483,5.9483,5.9483,5.9483,5.9483,5.9483,5.9483,5.9483,5.9483,5.9483,5.9483,5.9483,5.9483,5.9483,5.9483,5.9483,5.9483,6.6112,6.6112,6.6112,6.6112,6.6112,6.6112,6.6112,6.6112,6.6112,6.6112,6.6112,6.6112,6.6112,6.6112,6.6112,6.6112,6.6112,6.6112,6.6112,6.6112,6.6112,6.6112,6.6112,6.6112,6.6112,6.6112,6.6112,6.6112,6.6112,6.6112,6.6112,6.6112,6.6112,6.6112,6.6112,6.6112,6.6112,6.6112,6.6112,6.6112,6.6112,6.6112,6.6112,6.6112,6.5835,6.5434,6.5434,6.4806,6.3952,6.3852,6.345,6.2932,6.2932,6.2857,6.2781,6.2781,6.2781,6.2781,6.2781,6.2781,6.2781,6.2781,6.2781,6.2781,6.2781,6.2781,6.2781,6.2781,6.2781,6.2781,6.2781,6.2781,6.2631,6.222,6.2144,6.1994,6.1542,6.1391,6.1316,6.1316,6.124,6.119,6.119,6.119,6.0989,6.0512,6.0462,6.0261,5.9809,5.9784,5.9784,5.9784,5.9684,5.9633,5.9633,5.9533,5.9483,5.9483,5.9483,5.9483,5.9483,5.9483,5.9483,5.9483,5.9483,5.9483,5.9483,5.9483,5.9483,5.9483,5.9483,5.9483,5.9483,5.9483,5.9483,5.9483,6.6112,6.6112,6.6112,6.6112,6.6112,6.6112,6.6112,6.6112,6.6112,6.6112,6.6112,6.6112,6.6112,6.6112,6.6112,6.6112,6.6112,6.6112,6.6112,6.6112,6.6112,6.6112,6.6112,6.6112,6.6112,6.6112,6.6112,6.6112,6.6112,6.6112,6.6112,6.6112,6.6112,6.6112,6.6112,6.6112,6.6112,6.6112,6.6112,6.6112,6.6112,6.6112,6.6112,6.6112,6.6061,6.5986,6.5986,6.5609,6.5007,6.4572,6.4002,6.3576,6.3576,6.3224,6.2781,6.2781,6.2781,6.2781,6.2781,6.2781,6.2781,6.2781,6.2781,6.2781,6.2781,6.2781,6.2781,6.2781,6.2781,6.2781,6.2781,6.2781,6.2756,6.2681,6.2681,6.2656,6.2581,6.2195,6.1893,6.1893,6.1466,6.119,6.119,6.119,6.114,6.1065,6.1065,6.104,6.0964,6.0964,6.0964,6.0964,6.0462,6.0211,6.0211,5.9734,5.9483,5.9483,5.9483,5.9483,5.9483,5.9483,5.9483,5.9483,5.9483,5.9483,5.9483,5.9483,5.9483,5.9483,5.9483,5.9483,5.9483,5.9483,5.9483,5.9483,6.6112,6.6112,6.6112,6.6112,6.6112,6.6112,6.6112,6.6112,6.6112,6.6112,6.6112,6.6112,6.6112,6.6112,6.6112,6.6112,6.6112,6.6112,6.6112,6.6112,6.6112,6.6112,6.6112,6.6112,6.6112,6.6112,6.6112,6.6112,6.6112,6.6112,6.6112,6.6112,6.6112,6.6112,6.6112,6.6112,6.6112,6.6112,6.6112,6.6112,6.6112,6.6112,6.6112,6.6112,6.6112,6.6112,6.6112,6.576,6.5258,6.5007,6.4622,6.4078,6.3776,6.3525,6.3249,6.2882,6.2781,6.2781,6.2781,6.2781,6.2781,6.2781,6.2781,6.2781,6.2781,6.2781,6.2781,6.2781,6.2781,6.2781,6.2781,6.2781,6.2781,6.2781,6.2781,6.2781,6.2781,6.2581,6.2471,6.2471,6.2245,6.2094,6.2094,6.2094,6.1969,6.1667,6.1642,6.1517,6.119,6.119,6.119,6.119,6.0939,6.0638,6.0311,6.0085,5.9809,5.9483,5.9483,5.9483,5.9483,5.9483,5.9483,5.9483,5.9483,5.9483,5.9483,5.9483,5.9483,5.9483,5.9483,5.9483,5.9483,5.9483,5.9483,5.9483]},{"header":{"parameterUnit":"m.s-1","parameterCategory":1,"la1":30.6,"la2":28.766,"lo1":-90.7593,"lo2":-88.6598,"dy":0.0162,"dx":0.0183,"nx":116,"ny":114,"refTime":"2023-11-08T06:00:00:Z","depth":0,"parameterNumber":3,"parameterNumberName":"V-component_of_WINDS"},"data":[0.0,0.0,0.0,0.0,0.0,0.0,0.0,0.0,0.0,0.0,0.0,0.0,0.0,0.0,0.0,0.0,0.0,0.0,0.0,0.0,0.0,0.0,0.0,0.0,0.0,0.0,0.0,0.0,0.0,0.0,0.0,0.0,0.0,0.0,0.0,0.0,0.0,0.0,0.0,0.0,0.0,0.0,0.0,0.0,0.0,0.0,0.0,0.0,0.0,0.0,0.0,0.0,0.0,0.0,0.0,0.0,0.0,0.0,0.0,0.0,0.0,0.0,0.0,0.0,0.0,0.0,0.0,0.0,0.0,0.0,0.0,0.0,0.0,0.0,0.0,0.0,0.0,0.0,0.0,0.0,0.0,0.0,0.0,0.0,0.0,0.0,0.0,0.0,0.0,0.0,0.0,0.0,0.0,0.0,0.0,0.0,0.0,0.0,0.0,0.0,0.0,0.0,0.0,0.0,0.0,0.0,0.0,0.0,0.0,0.0,0.0,0.0,0.0,0.0,0.0,0.0,0.0,0.0,0.0,0.0,0.0,0.0,0.0,0.0,0.0,0.0,0.0,0.0,0.0,0.0,0.0,0.0,0.0,0.0,0.0,0.0,0.0,0.0,0.0,0.0,0.0,0.0,0.0,0.0,0.0,0.0,0.0,0.0,0.0,0.0,0.0,0.0,0.0,0.0,0.0,0.0,0.0,0.0,0.0,0.0,0.0,0.0,0.0,0.0,0.0,0.0,0.0,0.0,0.0,0.0,0.0,0.0,0.0,0.0,0.0,0.0,0.0,0.0,0.0,0.0,0.0,0.0,0.0,0.0,0.0,0.0,0.0,0.0,0.0,0.0,0.0,0.0,0.0,0.0,0.0,0.0,0.0,0.0,0.0,0.0,0.0,0.0,0.0,0.0,0.0,0.0,0.0,0.0,0.0,0.0,0.0,0.0,0.0,0.0,0.0,0.0,0.0,0.0,0.0,0.0,0.0,0.0,0.0,0.0,0.0,0.0,0.0,0.0,0.0,0.0,0.0,0.0,0.0,0.0,0.0,0.0,0.0,0.0,0.0,0.0,0.0,0.0,0.0,0.0,0.0,0.0,0.0,0.0,0.0,0.0,0.0,0.0,0.0,0.0,0.0,0.0,0.0,0.0,0.0,0.0,0.0,0.0,0.0,0.0,0.0,0.0,0.0,0.0,0.0,0.0,0.0,0.0,0.0,0.0,0.0,0.0,0.0,0.0,0.0,0.0,0.0,0.0,0.0,0.0,0.0,0.0,0.0,0.0,0.0,0.0,0.0,0.0,0.0,0.0,0.0,0.0,0.0,0.0,0.0,0.0,0.0,0.0,0.0,0.0,0.0,0.0,0.0,0.0,0.0,0.0,0.0,0.0,0.0,0.0,0.0,0.0,0.0,0.0,0.0,0.0,0.0,0.0,0.0,0.0,0.0,0.0,0.0,0.0,0.0,0.0,0.0,0.0,0.0,0.0,0.0,0.0,0.0,0.0,0.0,0.0,0.0,0.0,0.0,0.0,0.0,0.0,0.0,0.0,0.0,0.0,0.0,0.0,0.0,0.0,0.0,0.0,0.0,0.0,0.0,0.0,0.0,0.0,0.0,0.0,0.0,0.0,0.0,0.0,0.0,0.0,0.0,0.0,0.0,0.0,0.0,0.0,0.0,0.0,0.0,0.0,0.0,0.0,0.0,0.0,0.0,0.0,0.0,0.0,0.0,0.0,0.0,0.0,0.0,0.0,0.0,0.0,0.0,0.0,0.0,0.0,0.0,0.0,0.0,0.0,0.0,0.0,0.0,0.0,0.0,0.0,0.0,0.0,0.0,0.0,0.0,0.0,0.0,0.0,0.0,0.0,0.0,0.0,0.0,0.0,0.0,0.0,0.0,0.0,0.0,0.0,0.0,0.0,0.0,0.0,0.0,0.0,0.0,0.0,0.0,0.0,0.0,0.0,0.0,0.0,0.0,0.0,0.0,0.0,0.0,0.0,0.0,0.0,0.0,0.0,0.0,0.0,0.0,0.0,0.0,0.0,0.0,0.0,0.0,0.0,0.0,0.0,0.0,0.0,0.0,0.0,0.0,0.0,0.0,0.0,0.0,0.0,0.0,0.0,0.0,0.0,0.0,0.0,0.0,0.0,0.0,0.0,0.0,0.0,0.0,0.0,0.0,0.0,0.0,0.0,0.0,0.0,0.0,0.0,0.0,0.0,0.0,0.0,0.0,0.0,0.0,0.0,0.0,0.0,0.0,0.0,0.0,0.0,0.0,0.0,0.0,0.0,0.0,0.0,0.0,0.0,0.0,0.0,0.0,0.0,0.0,0.0,0.0,0.0,0.0,0.0,0.0,0.0,0.0,0.0,0.0,0.0,0.0,0.0,0.0,0.0,0.0,0.0,0.0,0.0,0.0,0.0,0.0,0.0,0.0,0.0,0.0,0.0,0.0,0.0,0.0,0.0,0.0,0.0,0.0,0.0,0.0,0.0,0.0,0.0,0.0,0.0,0.0,0.0,0.0,0.0,0.0,0.0,0.0,0.0,0.0,0.0,0.0,0.0,0.0,0.0,0.0,0.0,0.0,0.0,0.0,0.0,0.0,0.0,0.0,0.0,0.0,0.0,0.0,0.0,0.0,0.0,0.0,0.0,0.0,0.0,0.0,0.0,0.0,0.0,0.0,0.0,0.0,0.0,0.0,0.0,0.0,0.0,0.0,0.0,0.0,0.0,0.0,0.0,0.0,0.0,0.0,0.0,0.0,0.0,0.0,0.0,0.0,0.0,0.0,0.0,0.0,0.0,0.0,0.0,0.0,0.0,0.0,0.0,0.0,0.0,0.0,0.0,0.0,0.0,0.0,0.0,0.0,0.0,0.0,0.0,0.0,0.0,0.0,0.0,0.0,0.0,0.0,0.0,0.0,0.0,0.0,0.0,0.0,0.0,0.0,0.0,0.0,0.0,0.0,0.0,0.0,0.0,0.0,0.0,0.0,0.0,0.0,0.0,0.0,0.0,0.0,0.0,0.0,0.0,0.0,0.0,0.0,0.0,0.0,0.0,0.0,0.0,0.0,0.0,0.0,0.0,0.0,0.0,0.0,0.0,0.0,0.0,0.0,0.0,0.0,0.0,0.0,0.0,0.0,0.0,0.0,0.0,0.0,0.0,0.0,0.0,0.0,0.0,0.0,0.0,0.0,0.0,0.0,0.0,0.0,0.0,0.0,0.0,0.0,0.0,0.0,0.0,0.0,0.0,0.0,0.0,0.0,0.0,0.0,0.0,0.0,0.0,0.0,0.0,0.0,0.0,0.0,0.0,0.0,0.0,0.0,0.0,0.0,0.0,0.0,0.0,0.0,0.0,0.0,0.0,0.0,0.0,0.0,0.0,0.0,0.0,0.0,0.0,0.0,0.0,0.0,0.0,0.0,0.0,0.0,0.0,0.0,0.0,0.0,0.0,0.0,0.0,0.0,0.0,0.0,0.0,0.0,0.0,0.0,0.0,0.0,0.0,0.0,0.0,0.0,0.0,0.0,0.0,0.0,0.0,0.0,0.0,0.0,0.0,0.0,0.0,0.0,0.0,0.0,0.0,0.0,0.0,0.0,0.0,0.0,0.0,0.0,0.0,0.0,0.0,0.0,0.0,0.0,0.0,0.0,0.0,0.0,0.0,0.0,0.0,0.0,0.0,0.0,0.0,0.0,0.0,0.0,0.0,0.0,0.0,0.0,0.0,0.0,0.0,0.0,0.0,0.0,0.0,0.0,0.0,0.0,0.0,0.0,0.0,0.0,0.0,0.0,0.0,0.0,0.0,0.0,0.0,0.0,0.0,0.0,0.0,0.0,0.0,0.0,0.0,0.0,0.0,0.0,0.0,0.0,0.0,0.0,0.0,0.0,0.0,0.0,0.0,0.0,0.0,0.0,0.0,0.0,0.0,0.0,0.0,0.0,0.0,0.0,0.0,0.0,0.0,0.0,0.0,0.0,0.0,0.0,0.0,0.0,0.0,0.0,0.0,0.0,0.0,0.0,0.0,0.0,0.0,0.0,0.0,0.0,0.0,0.0,0.0,0.0,0.0,0.0,0.0,0.0,0.0,0.0,0.0,0.0,0.0,0.0,0.0,0.0,0.0,0.0,0.0,0.0,0.0,0.0,0.0,0.0,0.0,0.0,0.0,0.0,0.0,0.0,0.0,0.0,0.0,0.0,0.0,0.0,0.0,0.0,0.0,0.0,0.0,0.0,0.0,0.0,0.0,0.0,0.0,0.0,0.0,0.0,0.0,0.0,0.0,0.0,0.0,0.0,0.0,0.0,0.0,0.0,0.0,0.0,0.0,0.0,0.0,0.0,0.0,0.0,0.0,0.0,0.0,0.0,0.0,0.0,0.0,0.0,0.0,0.0,0.0,0.0,0.0,0.0,0.0,0.0,0.0,0.0,0.0,0.0,0.0,0.0,0.0,0.0,0.0,0.0,0.0,0.0,0.0,0.0,0.0,0.0,0.0,0.0,0.0,0.0,0.0,0.0,0.0,0.0,0.0,0.0,0.0,0.0,0.0,0.0,0.0,0.0,0.0,0.0,0.0,0.0,0.0,0.0,0.0,0.0,0.0,0.0,0.0,0.0,0.0,0.0,0.0,0.0,0.0,0.0,0.0,0.0,0.0,0.0,0.0,0.0,0.0,0.0,0.0,0.0,0.0,0.0,0.0,0.0,0.0,0.0,0.0,0.0,0.0,0.0,0.0,0.0,0.0,0.0,0.0,0.0,0.0,0.0,0.0,0.0,0.0,0.0,0.0,0.0,0.0,0.0,0.0,0.0,0.0,0.0,0.0,0.0,0.0,0.0,0.0,0.0,0.0,0.0,0.0,0.0,0.0,0.0,0.0,0.0,0.0,0.0,0.0,0.0,0.0,0.0,0.0,0.0,0.0,0.0,0.0,0.0,0.0,0.0,0.0,0.0,0.0,0.0,0.0,0.0,0.0,0.0,0.0,0.0,0.0,0.0,0.0,0.0,0.0,0.0,0.0,0.0,0.0,0.0,0.0,0.0,0.0,0.0,0.0,0.0,0.0,0.0,0.0,0.0,0.0,0.0,0.0,0.0,0.0,0.0,0.0,0.0,0.0,0.0,0.0,0.0,0.0,0.0,0.0,0.0,0.0,0.0,0.0,0.0,0.0,0.0,0.0,0.0,0.0,0.0,0.0,0.0,0.0,0.0,0.0,0.0,0.0,0.0,0.0,0.0,0.0,0.0,0.0,0.0,0.0,0.0,0.0,0.0,0.0,0.0,0.0,0.0,0.0,0.0,0.0,0.0,0.0,0.0,0.0,0.0,0.0,0.0,0.0,0.0,0.0,0.0,0.0,0.0,0.0,0.0,0.0,0.0,0.0,0.0,0.0,0.0,0.0,0.0,0.0,0.0,0.0,0.0,0.0,0.0,0.0,0.0,0.0,0.0,0.0,0.0,0.0,0.0,0.0,0.0,0.0,0.0,0.0,0.0,0.0,0.0,0.0,0.0,0.0,0.0,0.0,0.0,0.0,0.0,0.0,0.0,0.0,0.0,0.0,0.0,0.0,0.0,0.0,0.0,0.0,0.0,0.0,0.0,0.0,0.0,0.0,0.0,0.0,0.0,0.0,0.0,0.0,0.0,0.0,0.0,0.0,0.0,0.0,0.0,0.0,0.0,0.0,0.0,0.0,0.0,0.0,0.0,0.0,0.0,0.0,0.0,0.0,0.0,0.0,0.0,0.0,0.0,0.0,0.0,0.0,0.0,0.0,0.0,0.0,0.0,0.0,0.0,0.0,0.0,0.0,0.0,0.0,0.0,0.0,0.0,0.0,0.0,0.0,0.0,0.0,0.0,0.0,0.0,0.0,0.0,0.0,0.0,0.0,0.0,0.0,0.0,0.0,0.0,0.0,0.0,0.0,0.0,0.0,0.0,0.0,0.0,0.0,0.0,0.0,0.0,0.0,0.0,0.0,0.0,0.0,0.0,0.0,0.0,0.0,0.0,0.0,0.0,0.0,0.0,0.0,0.0,0.0,0.0,0.0,0.0,0.0,0.0,0.0,0.0,0.0,0.0,0.0,0.0,0.0,0.0,0.0,0.0,0.0,3.0928,3.0605,0.0,0.0,0.0,0.0,0.0,0.0,0.0,0.0,0.0,0.0,0.0,0.0,0.0,0.0,0.0,0.0,0.0,0.0,0.0,0.0,0.0,0.0,0.0,0.0,0.0,0.0,0.0,0.0,0.0,0.0,0.0,0.0,0.0,0.0,0.0,0.0,0.0,0.0,3.5082,3.523,3.5504,3.5504,3.5378,3.5104,0.0,0.0,0.0,0.0,0.0,0.0,0.0,0.0,0.0,0.0,0.0,0.0,0.0,0.0,0.0,0.0,0.0,0.0,0.0,0.0,0.0,0.0,0.0,0.0,0.0,0.0,0.0,0.0,0.0,0.0,0.0,0.0,0.0,0.0,0.0,0.0,0.0,0.0,0.0,0.0,0.0,0.0,0.0,0.0,0.0,0.0,0.0,0.0,0.0,0.0,0.0,0.0,0.0,0.0,0.0,0.0,0.0,0.0,0.0,0.0,0.0,0.0,0.0,0.0,0.0,0.0,0.0,0.0,0.0,0.0,3.2375,3.1504,0.0,0.0,0.0,0.0,0.0,0.0,0.0,0.0,0.0,0.0,0.0,0.0,0.0,0.0,0.0,0.0,0.0,0.0,0.0,0.0,0.0,0.0,0.0,0.0,0.0,0.0,0.0,0.0,0.0,0.0,0.0,0.0,0.0,0.0,0.0,0.0,0.0,0.0,3.5656,3.5906,3.6405,3.6405,3.613,3.5682,3.618,0.0,0.0,0.0,0.0,0.0,0.0,0.0,0.0,0.0,0.0,0.0,0.0,0.0,0.0,0.0,0.0,0.0,0.0,0.0,0.0,0.0,0.0,0.0,0.0,0.0,0.0,0.0,0.0,0.0,0.0,0.0,0.0,0.0,0.0,0.0,0.0,0.0,0.0,0.0,0.0,0.0,0.0,0.0,0.0,0.0,0.0,0.0,0.0,0.0,0.0,0.0,0.0,0.0,0.0,0.0,0.0,0.0,0.0,0.0,0.0,0.0,0.0,0.0,4.0082,3.9364,3.9256,3.6442,3.5713,3.6564,3.3968,3.2741,3.2573,3.232,0.0,0.0,0.0,0.0,0.0,0.0,0.0,0.0,0.0,0.0,0.0,0.0,0.0,0.0,0.0,0.0,0.0,0.0,0.0,0.0,0.0,0.0,3.309,3.309,3.309,3.3316,0.0,0.0,0.0,0.0,0.0,0.0,0.0,3.5382,3.5682,3.6281,3.6281,3.6306,3.6405,3.6405,3.638,3.6281,3.638,3.6405,3.6405,0.0,0.0,0.0,0.0,0.0,0.0,0.0,0.0,0.0,0.0,0.0,0.0,0.0,0.0,0.0,0.0,0.0,0.0,0.0,0.0,0.0,0.0,0.0,0.0,0.0,0.0,0.0,0.0,0.0,0.0,0.0,0.0,0.0,0.0,0.0,0.0,0.0,0.0,0.0,0.0,0.0,3.7914,3.799,0.0,0.0,0.0,0.0,0.0,0.0,0.0,0.0,0.0,0.0,0.0,0.0,0.0,4.1528,4.2085,4.2085,4.2311,4.276,4.1168,4.0407,4.032,3.8524,3.7068,3.5921,3.5516,0.0,3.4087,3.2734,0.0,0.0,0.0,0.0,0.0,0.0,0.0,0.0,0.0,0.0,0.0,0.0,0.0,0.0,0.0,0.0,0.0,0.0,0.0,0.0,0.0,3.3366,3.3567,3.3567,3.3822,3.4098,3.4327,0.0,0.0,0.0,0.0,0.0,3.5981,3.6006,3.6155,3.6405,3.6405,3.6405,3.6405,3.6708,3.6859,3.6859,3.716,3.6959,3.6405,3.6405,0.0,0.0,0.0,0.0,0.0,0.0,0.0,0.0,0.0,0.0,0.0,0.0,0.0,0.0,0.0,0.0,0.0,0.0,0.0,0.0,0.0,0.0,0.0,0.0,0.0,0.0,0.0,0.0,0.0,0.0,0.0,0.0,0.0,0.0,0.0,0.0,0.0,0.0,0.0,3.8768,3.9069,3.9371,3.9647,3.9923,0.0,0.0,0.0,0.0,0.0,0.0,0.0,0.0,0.0,4.2258,4.2258,4.2384,4.2637,4.2637,4.2763,4.2986,4.2291,4.1955,4.1899,4.0303,3.9668,3.9733,3.7933,3.745,3.7691,3.4289,3.2871,3.2933,0.0,0.0,0.0,0.0,3.4044,3.4106,0.0,0.0,0.0,0.0,0.0,0.0,0.0,0.0,0.0,0.0,0.0,0.0,3.347,3.3872,3.4123,3.4123,3.4452,3.4753,3.4904,0.0,0.0,0.0,0.0,3.5956,3.6405,3.6532,3.6607,3.6607,3.6733,3.6808,3.6808,3.7235,3.7387,3.7412,3.7814,3.7563,3.6808,3.6658,3.6607,3.6582,0.0,0.0,0.0,0.0,0.0,0.0,0.0,0.0,0.0,0.0,0.0,0.0,0.0,0.0,0.0,0.0,0.0,0.0,0.0,0.0,0.0,0.0,0.0,0.0,0.0,0.0,0.0,0.0,0.0,0.0,0.0,0.0,0.0,0.0,0.0,0.0,0.0,3.9772,4.0275,4.065,4.07,4.0851,0.0,0.0,0.0,0.0,0.0,0.0,4.2361,4.2386,4.2587,4.2989,4.3014,4.3014,4.3014,4.3014,4.3014,4.3014,4.3014,4.3014,4.2958,4.1757,4.1643,4.2263,3.9844,3.9258,3.9698,3.6112,3.4383,3.4101,3.4922,3.4736,3.4101,3.4953,3.5735,3.6234,0.0,0.0,0.0,0.0,0.0,0.0,0.0,0.0,0.0,0.0,0.0,3.4048,3.4552,3.4653,3.4653,3.4653,3.4678,3.4929,3.5433,3.5458,3.5732,3.6331,3.6331,3.638,3.6405,3.6909,3.716,3.716,3.7663,3.7914,3.7914,3.7939,3.7965,3.7965,3.799,3.7965,3.7889,3.7386,3.716,3.711,3.6607,0.0,0.0,0.0,0.0,0.0,0.0,0.0,0.0,0.0,0.0,0.0,0.0,0.0,0.0,0.0,0.0,0.0,0.0,0.0,0.0,0.0,0.0,0.0,0.0,0.0,0.0,0.0,0.0,0.0,0.0,0.0,0.0,0.0,0.0,0.0,0.0,0.0,0.0,4.1277,4.1277,0.0,0.0,0.0,0.0,4.2135,4.2637,4.2939,4.2964,4.2964,4.2989,4.3014,4.3014,4.3014,4.3014,4.3014,4.3014,4.3014,4.3014,4.3014,4.3014,4.293,4.2069,4.0707,4.0534,3.9639,3.8313,3.8074,3.7054,3.599,3.903,3.8379,3.6051,3.9089,3.9317,3.8074,0.0,0.0,0.0,0.0,0.0,0.0,0.0,0.0,0.0,3.5422,3.4911,3.4477,3.4678,3.5029,3.5207,3.5207,3.5579,3.5879,3.608,3.6081,3.618,3.6405,3.6733,3.7085,3.7412,3.7613,3.7713,3.7713,3.7914,3.8015,3.8015,3.8391,3.8592,3.8592,3.8944,3.9094,3.9019,3.8115,3.7713,3.7688,3.7487,3.7412,0.0,0.0,0.0,0.0,0.0,0.0,0.0,0.0,0.0,0.0,0.0,0.0,0.0,0.0,0.0,0.0,0.0,0.0,0.0,0.0,0.0,0.0,0.0,0.0,0.0,0.0,0.0,0.0,0.0,0.0,0.0,0.0,0.0,0.0,0.0,0.0,0.0,4.1831,4.1884,0.0,4.2359,4.2587,4.2713,4.2713,4.2889,4.3014,4.3014,4.3014,4.3014,4.3014,4.3014,4.3014,4.3014,4.3014,4.3014,4.3014,4.3014,4.3014,4.3014,4.3014,4.2681,4.215,4.215,4.1814,4.1276,4.1276,3.9727,3.7454,3.8609,3.8372,3.7484,3.8639,3.8698,3.8194,0.0,0.0,0.0,0.0,0.0,0.0,0.0,0.0,0.0,3.6037,3.5474,3.5054,3.5253,3.5581,3.5782,3.5782,3.618,3.6405,3.6405,3.6405,3.648,3.6658,3.7185,3.7638,3.799,3.8191,3.8291,3.8291,3.8492,3.8567,3.8592,3.8969,3.917,3.9195,3.9521,3.9697,3.9647,3.8894,3.8467,3.8291,3.809,3.8015,3.8015,0.0,0.0,0.0,0.0,0.0,0.0,0.0,0.0,0.0,0.0,0.0,0.0,0.0,0.0,0.0,0.0,0.0,0.0,0.0,0.0,0.0,0.0,0.0,0.0,0.0,0.0,0.0,0.0,0.0,0.0,0.0,0.0,0.0,0.0,4.1754,4.2032,4.2411,4.2462,4.2612,4.2964,4.3014,4.3014,4.3014,4.3014,4.3014,4.3014,4.3014,4.3014,4.3014,4.319,4.3263,4.3263,4.3438,4.3539,4.3539,4.3539,4.3539,4.3539,4.3539,4.3539,4.3539,4.3539,4.3539,4.3539,4.3539,4.2294,4.0334,3.9954,3.9493,3.9082,3.961,3.9814,3.9814,0.0,0.0,0.0,0.0,0.0,0.0,0.0,0.0,3.6257,3.5663,3.5556,3.5757,3.6331,3.6405,3.6405,3.6405,3.6405,3.6405,3.643,3.643,3.6658,3.7235,3.7739,3.804,3.8065,3.8642,3.8919,3.8919,3.9446,3.9697,3.9697,3.9697,3.9697,3.9697,3.9697,3.9697,3.9697,3.9697,3.9396,3.8869,3.8291,3.8065,3.8065,0.0,0.0,0.0,0.0,0.0,0.0,0.0,0.0,0.0,0.0,0.0,0.0,0.0,0.0,0.0,0.0,0.0,0.0,0.0,0.0,0.0,0.0,0.0,0.0,0.0,0.0,0.0,0.0,0.0,0.0,0.0,0.0,0.0,4.2313,4.2663,4.3014,4.3014,4.3014,4.3014,4.3014,4.3014,4.3014,4.3014,4.3014,4.3039,4.3039,4.3039,4.3065,4.3065,4.3539,4.3815,4.3815,4.4338,4.4589,4.4589,4.4589,4.4589,4.4589,4.4589,4.4589,4.4589,4.4589,4.4589,4.4589,4.4589,4.4589,4.4489,4.3438,4.2114,4.0923,4.2481,4.3039,4.3039,0.0,0.0,0.0,0.0,0.0,0.0,0.0,3.6871,3.6166,3.7228,3.6667,3.623,3.638,3.6405,3.6405,3.6405,3.6405,3.6581,3.6959,3.6984,3.7411,3.8391,3.8567,3.8843,3.922,3.9396,3.9471,3.9471,3.9622,3.9697,3.9697,3.9697,3.9697,3.9697,3.9697,3.9697,3.9697,3.9697,3.9597,3.9472,3.9295,3.922,3.922,0.0,0.0,0.0,0.0,0.0,0.0,0.0,0.0,0.0,0.0,0.0,0.0,0.0,0.0,0.0,0.0,0.0,0.0,0.0,0.0,0.0,0.0,0.0,0.0,0.0,0.0,0.0,0.0,0.0,0.0,0.0,4.2914,4.2964,4.2788,4.2914,4.3014,4.3014,4.3014,4.3014,4.3014,4.3014,4.3014,4.3014,4.3338,4.3589,4.3589,4.3966,4.4166,4.4166,4.4288,4.4364,4.4364,4.4514,4.4589,4.4589,4.4589,4.4589,4.4589,4.4589,4.4589,4.4589,4.4589,4.4589,4.4589,4.4589,4.4589,4.4564,4.4292,4.3883,4.3565,4.3994,4.3915,4.3589,0.0,0.0,0.0,0.0,0.0,0.0,0.0,3.7449,3.679,3.733,3.6803,3.6405,3.6405,3.6405,3.6405,3.6405,3.6607,3.6859,3.7185,3.7663,3.8215,3.8869,3.912,3.9396,3.9697,3.9697,3.9697,3.9697,3.9697,3.9697,3.9697,3.9697,3.9697,3.9697,3.9697,3.9697,3.9697,3.9697,3.9697,3.9697,3.9697,3.9697,3.9697,3.9697,3.9522,3.9245,3.9245,3.8994,3.8718,3.8718,0.0,0.0,0.0,0.0,0.0,0.0,0.0,0.0,0.0,0.0,0.0,0.0,0.0,0.0,0.0,0.0,0.0,0.0,0.0,0.0,0.0,0.0,0.0,0.0,4.3014,4.3014,4.3014,4.3014,4.3014,4.3014,4.3014,4.3014,4.3014,4.3215,4.3341,4.3341,4.384,4.4141,4.4141,4.4414,4.4715,4.497,4.5167,4.5417,4.5643,4.5869,4.5969,4.5969,4.5969,4.5969,4.5969,4.5969,4.5969,4.5969,4.5969,4.5969,4.5969,4.5969,4.5969,0.0,0.0,0.0,0.0,0.0,4.4389,4.4141,0.0,0.0,0.0,0.0,0.0,0.0,0.0,3.7971,3.754,3.6546,3.6405,3.6405,3.6405,3.6405,3.6405,3.6405,3.6884,3.7261,3.7386,3.8391,3.8994,3.8994,3.9446,3.9697,3.9697,3.9697,3.9697,3.9697,3.9697,3.9722,3.9798,3.9798,3.9823,3.9873,3.9873,3.9873,3.9873,3.9873,3.9873,3.9873,3.9873,3.9798,3.9697,3.9697,3.9697,3.9697,3.9697,3.9697,3.9697,3.9697,0.0,0.0,0.0,0.0,0.0,0.0,0.0,0.0,0.0,0.0,0.0,0.0,0.0,0.0,0.0,0.0,0.0,0.0,0.0,0.0,0.0,0.0,0.0,0.0,4.3014,4.3014,4.3014,4.3065,4.3065,4.3014,4.3065,4.309,4.309,4.3564,4.389,4.389,4.4468,4.479,4.479,4.489,0.0,0.0,0.0,4.6697,4.7199,4.7682,4.7908,4.7908,4.7908,4.7908,4.7908,4.7908,4.7908,4.7908,4.7908,4.7908,4.7908,4.7908,4.7908,4.7707,4.5719,4.4966,4.4966,4.4966,4.489,4.479,0.0,0.0,0.0,0.0,0.0,0.0,0.0,3.7335,3.6639,3.6428,3.6405,3.6405,3.6405,3.6405,3.6405,3.6405,3.6884,3.7587,3.8517,3.9195,3.9546,3.9546,3.9647,3.9697,3.9697,3.9697,3.9697,3.9697,3.9697,3.9923,4.035,4.035,4.0575,4.1001,4.1001,4.1001,4.1001,4.1001,4.1001,4.1001,4.1001,4.0474,3.9697,3.9697,3.9697,3.9697,3.9697,3.9697,3.9697,3.9697,3.9697,3.9772,4.0224,4.035,0.0,0.0,0.0,0.0,0.0,0.0,0.0,0.0,0.0,0.0,0.0,0.0,0.0,0.0,0.0,0.0,0.0,0.0,0.0,4.3014,4.3014,4.3014,4.3014,4.3363,4.3489,4.3065,4.3363,4.3639,4.3639,4.4141,4.4439,4.4439,4.5367,4.5974,4.5974,4.6803,4.733,4.7431,4.7531,4.7657,4.7757,4.7857,4.7908,4.7908,4.7908,0.0,4.7908,4.7908,4.7908,4.7908,4.7908,4.7908,4.7908,4.7908,4.7908,4.7857,4.7431,4.728,4.728,4.728,4.6697,4.5974,0.0,0.0,0.0,0.0,0.0,0.0,0.0,3.7266,3.7034,3.6476,3.6405,3.6405,3.6405,3.6405,3.6507,3.6783,3.7562,3.8416,3.9245,3.9546,3.9697,3.9697,3.9697,3.9697,3.9697,3.9697,3.9697,3.9697,3.9973,4.0249,4.0499,4.0775,4.1051,4.1302,4.1302,4.1302,4.1302,4.1302,4.1302,4.1302,4.1302,4.0976,4.0499,4.0499,4.0499,4.0499,4.0499,4.0499,4.0499,4.0499,4.0499,4.0549,4.0826,4.0901,4.0951,0.0,0.0,0.0,0.0,0.0,0.0,0.0,0.0,0.0,0.0,0.0,0.0,0.0,0.0,4.3014,4.3014,0.0,4.3014,4.3014,4.3014,4.309,4.3338,4.3639,4.3689,4.3413,4.3865,4.4217,4.4217,4.497,4.5443,4.5443,4.6476,4.7104,4.7104,4.7606,4.8033,4.8335,4.8335,4.8611,4.9163,4.9163,4.9314,4.959,4.959,4.959,4.959,4.959,4.959,4.959,4.959,4.959,4.9565,4.9289,4.9163,4.9138,4.8862,4.841,4.7908,4.7908,4.7581,4.7104,0.0,0.0,0.0,0.0,0.0,0.0,0.0,0.0,3.7701,3.657,3.6405,3.6405,3.6405,3.6405,3.6658,3.7311,3.8291,3.912,3.9647,3.9697,3.9697,3.9697,3.9697,3.9697,3.9697,3.9697,3.9747,3.9848,4.03,4.06,4.0852,4.1252,4.1528,4.1628,4.1628,4.1628,4.1628,4.1628,4.1628,4.1628,4.1628,4.1628,4.1628,4.1628,4.1503,4.1302,4.1302,4.1302,4.1302,4.1302,4.1302,4.1327,4.1428,4.1478,4.1503,4.1603,4.1628,0.0,0.0,0.0,0.0,0.0,0.0,0.0,0.0,4.3014,4.3014,4.3014,4.3014,4.3014,4.3014,4.3014,4.3039,4.314,4.3165,4.3338,4.389,4.4066,4.4166,4.4267,4.4694,4.4916,4.4916,4.5974,4.6627,4.6627,4.7531,4.8083,4.8083,4.8284,4.8611,4.912,4.922,4.969,5.0569,5.0569,5.082,5.1306,5.1306,5.1306,5.1306,5.1306,5.1306,5.1306,5.1306,5.1306,5.1247,5.077,5.0569,5.0544,5.0092,4.9364,4.8535,4.8309,4.8159,4.8083,0.0,0.0,0.0,0.0,0.0,0.0,0.0,0.0,0.0,3.657,3.6405,3.6405,3.6405,3.6405,3.6808,3.7814,3.8517,3.912,3.9647,3.9697,3.9697,3.9697,3.9697,3.9697,3.9697,3.9697,3.9923,4.0399,4.0449,4.1028,4.2009,4.206,4.2361,4.2813,4.2813,4.2813,4.2813,4.2813,4.2813,4.2813,4.2813,4.2813,4.2813,4.2813,4.2183,4.1302,4.1302,4.1302,4.1302,4.1302,4.1302,4.1403,4.1934,4.2085,4.2185,4.2688,4.2813,4.2838,4.2889,4.2914,4.2939,4.2989,4.3014,4.3014,0.0,4.3014,4.3014,4.3014,4.3014,4.3014,4.3014,4.3014,4.3165,4.3639,4.3714,4.389,4.4443,4.497,4.5472,4.5974,4.6075,4.6125,4.6125,4.7104,4.7732,4.7732,4.8309,4.8718,4.8718,4.9615,5.0135,5.0218,5.072,5.1105,5.1197,5.1197,5.1222,5.1306,5.1306,5.1306,5.1306,5.1306,5.1306,5.1306,5.1306,5.1306,5.1306,5.1222,5.1197,5.1172,5.1122,5.1054,5.0795,4.9766,4.9088,4.8718,0.0,0.0,0.0,0.0,0.0,0.0,0.0,0.0,0.0,0.0,3.6405,3.6405,3.6405,3.6959,3.7513,3.7965,3.8843,3.9472,3.9672,3.9697,3.9697,3.9697,3.9697,3.9697,3.9697,3.9697,3.9973,4.0499,4.08,4.1379,4.2213,4.2512,4.2788,4.3014,4.3014,4.3014,4.3014,4.3014,4.3014,4.3014,4.3014,4.3014,4.3014,4.3014,4.2685,4.2283,4.2283,4.2283,0.0,4.2283,4.2283,4.2333,4.2587,4.2663,4.2713,4.2939,4.3014,4.3014,4.3014,4.3014,4.3014,4.3014,4.3014,4.3014,4.3014,4.3014,4.3014,4.3014,4.3014,4.3014,4.3014,4.3266,4.3539,4.3765,4.4066,4.4593,4.5443,4.5824,4.6276,4.7129,4.7531,4.7606,4.728,4.7958,4.8535,4.8862,4.9414,4.9866,5.025,5.067,5.0921,5.0921,5.1147,5.1448,5.1749,5.1749,5.1925,5.2226,5.2226,5.2226,5.2226,5.2226,5.2226,5.2226,5.2226,5.2226,5.2226,5.19,5.1749,5.1724,5.1398,5.1306,5.1255,5.0778,5.0476,5.0275,0.0,0.0,0.0,0.0,0.0,0.0,0.0,0.0,0.0,0.0,0.0,3.6455,3.6607,3.7437,3.8065,3.8241,3.9145,3.9697,3.9697,3.9697,3.9697,3.9697,3.9697,3.9697,3.9697,3.9697,4.0049,4.0725,4.1127,4.1679,4.2411,4.2813,4.3014,4.3014,4.3014,4.3014,4.3014,4.3014,4.3014,4.3014,4.3014,4.3014,4.3014,4.3014,4.3014,4.3014,4.3014,4.3014,4.3014,4.3014,4.3014,4.3014,4.3014,4.3014,4.3014,4.3014,4.3014,4.3014,4.3014,4.3014,4.3014,4.3014,4.3014,4.3014,4.3014,4.3014,4.3014,4.3014,4.3014,4.3065,4.319,4.3539,4.389,4.4217,4.4719,4.5392,4.6371,4.6652,4.7104,4.8033,4.8542,4.8743,4.8611,4.8987,4.9389,4.9791,5.0343,5.0845,5.128,5.1423,5.1498,5.1498,5.1649,5.1925,5.2327,5.2327,5.2528,5.2895,5.2895,5.2895,5.2895,5.2895,5.2895,5.2895,5.2895,5.2895,5.287,5.2468,5.2327,5.2302,5.19,5.1724,5.1724,5.1724,5.1548,5.1306,0.0,0.0,0.0,0.0,0.0,0.0,0.0,0.0,0.0,0.0,0.0,0.0,0.0,3.7663,3.8241,3.8818,3.9396,3.9697,3.9697,3.9697,3.9697,3.9697,3.9697,3.9697,3.9697,3.9697,4.0224,4.1277,4.1275,4.1854,4.2989,4.2989,4.3014,4.3014,4.3014,4.3014,4.3014,4.3014,4.3014,4.3014,4.3014,4.3014,4.3014,4.3014,4.3014,4.3014,4.3014,4.3014,4.3014,4.3014,4.3014,4.3014,4.3014,4.3014,4.3014,4.3014,4.3014,4.3014,4.3014,4.3014,4.3014,4.3014,4.3014,4.3014,4.3014,4.3014,4.3014,4.3014,4.3014,4.3165,4.3689,4.379,4.4166,4.5271,4.5899,4.6421,4.6998,4.75,4.8083,4.8718,4.8793,4.922,5.0243,5.0336,5.0336,5.0361,5.0921,5.1272,5.1306,5.18,5.2076,5.2076,5.2569,5.2845,5.287,5.287,5.287,5.2895,5.2895,5.2895,5.2895,5.2895,5.2895,5.2895,5.2895,5.2895,5.2895,5.287,5.287,5.287,5.2845,5.2845,5.2845,5.2845,5.2201,5.1306,0.0,0.0,0.0,0.0,0.0,0.0,0.0,0.0,0.0,0.0,0.0,0.0,0.0,0.0,0.0,0.0,3.9396,3.9697,3.9697,3.9697,3.9697,3.9697,3.9697,3.9697,3.9697,3.9697,4.0249,4.1302,4.1302,4.1879,4.3014,4.3014,4.3014,4.3014,4.3014,4.3014,4.3014,4.3014,4.3014,4.3014,4.3014,4.3014,4.3014,4.3014,4.3014,4.3014,0.0,4.3014,4.3014,4.3014,4.3014,4.3014,4.3014,4.3014,4.3014,4.3014,4.3014,4.3014,4.3014,4.3014,4.3014,4.3014,4.3014,4.3014,4.3014,4.3014,4.3014,4.3014,4.3291,4.3589,4.3765,4.4418,4.5045,4.5422,4.625,4.7023,4.7581,4.8134,4.8686,4.9238,4.964,5.0017,5.0361,5.0386,5.0687,5.1473,5.1724,5.2,5.2352,5.2519,5.2619,5.2619,5.2795,5.2895,5.2895,5.2895,5.2895,5.2895,5.2895,5.2895,5.2895,5.2895,5.2895,5.2895,5.2895,5.2895,5.2895,5.2895,5.2895,5.2895,5.2895,5.2895,5.2895,5.2895,5.2644,5.2377,0.0,0.0,0.0,0.0,0.0,0.0,0.0,0.0,0.0,0.0,0.0,0.0,0.0,0.0,0.0,0.0,0.0,3.9697,3.9697,3.9697,3.9697,3.9697,3.9697,3.9697,3.9697,3.9898,4.0399,4.1302,4.1503,4.2082,4.3014,4.3014,4.3014,4.3014,4.3014,4.3014,4.3014,4.3014,4.3014,4.3014,4.3014,4.3014,4.3014,4.3014,4.3014,0.0,4.3014,4.3014,4.3014,4.3014,4.3014,4.3014,4.3014,4.3014,4.3014,4.3014,4.3014,4.3014,4.3014,4.3014,4.3014,4.3014,4.3014,4.3014,4.3014,4.3165,4.3291,4.3291,4.3714,4.4166,4.4367,4.4995,4.5623,4.6024,4.6798,4.7575,4.8134,4.8743,4.9264,4.9816,5.0193,5.0536,5.0971,5.1021,5.1322,5.2051,5.2277,5.2519,5.287,5.2895,5.2895,5.2895,5.2895,5.2895,5.2895,5.2895,5.2895,5.2895,5.2895,5.2895,5.2895,5.2895,5.2895,5.2895,5.2895,5.2895,5.2895,5.2895,5.2895,5.2895,5.2895,5.2895,5.2895,5.2895,5.2895,5.2895,0.0,0.0,0.0,0.0,0.0,0.0,0.0,0.0,0.0,0.0,0.0,0.0,0.0,0.0,0.0,0.0,0.0,0.0,3.9697,3.9697,3.9697,3.9697,3.9697,3.9697,3.9697,4.0199,4.0725,4.1302,4.1884,4.2436,4.3014,4.3014,4.3014,4.3014,4.3014,4.3014,4.3014,4.3014,4.3014,4.3014,4.3014,4.3014,4.3014,4.3014,4.3014,4.3014,4.3014,4.3014,4.3014,4.3014,4.3014,4.3014,4.3014,4.3014,4.3014,4.3014,4.3014,4.3014,4.3014,4.3014,4.3014,4.3014,4.3014,4.3014,4.3039,4.3413,4.3815,4.384,4.4292,4.4815,4.5372,4.5522,4.5874,4.6923,4.755,4.8109,4.8718,4.9264,4.9841,5.0343,5.0436,5.0921,5.2,5.2126,5.2151,5.2151,5.2594,5.2895,5.2895,5.2895,5.2895,5.2895,5.2895,5.2895,5.2895,5.2895,5.2895,5.2895,5.2895,5.2895,5.2895,5.2895,5.2895,5.2895,5.2895,5.2895,5.2895,5.2895,5.2895,5.2895,5.2895,5.2895,5.2895,5.2895,5.2895,5.2895,0.0,0.0,0.0,0.0,0.0,0.0,0.0,0.0,0.0,0.0,0.0,0.0,0.0,0.0,0.0,0.0,0.0,0.0,3.9697,3.9697,3.9697,3.9697,3.9697,3.9697,3.9697,3.9823,4.0349,4.1302,4.1453,4.2032,4.3014,4.3014,4.3014,4.3014,4.3014,4.3014,4.3014,4.3014,4.3014,4.3014,4.3014,4.3014,4.3014,4.3014,4.3014,4.3014,4.3014,4.3014,4.3014,4.3014,4.3014,4.3014,4.3014,4.3014,4.3014,4.3014,4.3014,4.3014,4.3014,4.3014,4.3014,4.3014,4.3014,4.3115,4.3489,4.3689,4.3915,4.4288,4.4869,4.5321,4.5472,4.5824,4.6326,4.6998,4.755,4.8109,4.8718,4.9615,5.0268,5.0361,5.1172,5.1774,5.2076,5.2477,5.2694,5.2694,5.282,5.2895,5.2895,5.2895,5.2895,5.2895,5.2895,5.2895,5.2895,5.2895,5.2895,5.2895,5.2895,5.2895,5.2895,5.2895,5.2895,5.2895,5.2895,5.2895,5.2895,5.2895,5.2895,5.2895,5.2895,5.2895,5.2895,5.2895,5.2895,5.2895,0.0,0.0,0.0,0.0,0.0,0.0,0.0,0.0,0.0,0.0,0.0,0.0,0.0,0.0,0.0,0.0,0.0,0.0,0.0,3.9697,3.9697,3.9697,3.9697,3.9697,3.9697,3.9923,4.035,4.0951,4.1175,4.1628,4.2258,4.2537,4.2637,4.2663,4.2889,4.3014,4.3014,4.3014,4.3014,0.0,0.0,4.3014,4.3014,4.3014,4.3014,4.3014,4.3014,4.3014,4.3014,4.3014,4.3014,4.3014,4.3014,4.3014,4.3014,4.3014,4.3014,4.3014,4.3014,4.3014,4.3014,4.3014,4.319,4.3413,4.374,4.4192,4.4618,4.4945,4.5447,4.5849,4.5849,4.6301,4.6823,4.735,4.7933,4.8485,4.9095,4.9866,5.0519,5.077,5.1574,5.2201,5.2452,5.2719,5.2895,5.2895,5.2895,5.2895,5.2895,5.2895,5.2895,5.2895,5.2895,5.2895,5.2895,5.2895,5.2895,5.2895,5.2895,5.2895,5.2895,5.2895,5.2895,5.2895,5.2895,5.2895,5.2895,5.2895,5.2895,5.2895,5.2895,5.2895,5.2895,5.2895,5.2895,5.2895,0.0,0.0,0.0,0.0,0.0,0.0,0.0,0.0,0.0,0.0,0.0,0.0,0.0,0.0,0.0,0.0,0.0,0.0,0.0,0.0,3.9697,3.9697,3.9697,3.9697,3.9697,4.0174,4.0424,4.0499,4.0976,4.1227,4.1327,4.1831,4.2085,4.2085,4.2587,4.276,4.2788,4.2864,4.2889,4.2914,4.2964,4.3014,4.3014,0.0,0.0,4.3014,4.3014,4.3014,4.3014,4.3014,4.3014,4.3014,4.3014,4.3014,4.3014,4.3014,4.3014,4.3014,4.3014,4.3014,4.3014,4.309,4.3438,4.384,4.3991,4.4794,4.5522,4.5573,4.5974,4.6301,4.6301,4.6722,4.7274,4.7832,4.8416,4.9019,4.9615,5.0193,5.0745,5.1356,5.1875,5.2402,5.2845,5.2895,5.2895,5.2895,5.2895,5.2895,5.2895,5.2895,5.2895,5.2895,5.2895,5.2895,5.2895,5.2895,5.2895,5.2895,5.2895,5.2895,5.2895,5.2895,5.2895,5.2895,5.2895,5.2895,5.2895,5.2895,5.2895,5.2895,5.2895,5.2895,5.2895,5.2895,5.2895,5.2895,0.0,0.0,0.0,0.0,0.0,0.0,0.0,0.0,0.0,0.0,0.0,0.0,0.0,0.0,0.0,0.0,0.0,0.0,0.0,0.0,0.0,3.9697,3.9697,3.9697,3.9697,3.9798,4.0049,4.0499,4.0575,4.0876,4.1302,4.1403,4.1453,4.1453,4.1553,4.1603,4.1628,4.2135,4.2363,4.2389,4.2813,4.3014,4.3014,4.3014,0.0,0.0,4.3014,4.3014,4.3014,4.3014,4.3014,4.3014,4.3014,4.3014,4.3014,4.3014,4.3014,4.3014,4.3014,4.3014,4.3115,4.3539,4.374,4.4041,4.497,4.5347,4.5623,4.6075,4.625,4.6301,4.6301,4.6722,4.7274,4.7832,4.8416,4.9145,5.0117,5.077,5.1348,5.19,5.2418,5.2795,5.2895,5.2895,5.2895,5.2895,5.2895,5.2895,5.2895,5.2895,5.2895,5.2895,5.2895,5.2895,5.2895,5.2895,5.2895,5.2895,5.2895,5.2895,5.2895,5.2895,5.2895,5.2895,5.2895,5.2895,5.2895,5.2895,5.2895,5.2895,5.2895,5.2895,5.2895,5.2895,5.2895,5.2895,0.0,0.0,0.0,0.0,0.0,0.0,0.0,0.0,0.0,0.0,3.9497,3.9421,0.0,0.0,0.0,0.0,0.0,0.0,0.0,0.0,0.0,0.0,0.0,0.0,4.0668,4.0032,3.9823,4.0099,0.0,4.0224,4.0474,4.075,4.0876,4.0901,4.1177,4.1302,4.1327,4.163,4.1909,4.2238,4.2462,4.2738,4.3014,0.0,0.0,0.0,4.3014,4.3014,4.3014,4.3014,4.3014,4.3014,4.3014,4.3014,4.3014,4.3014,4.3014,4.3014,4.3014,4.3215,4.3463,4.374,4.4242,4.4819,4.5401,4.5723,4.5999,4.625,4.6301,4.6301,4.6301,4.6979,4.7575,4.7857,4.8636,4.949,5.0293,5.0921,5.1498,5.2051,5.2544,5.2895,5.2895,5.2895,5.2895,5.2895,5.2895,5.2895,5.2895,5.2895,5.2895,5.2895,5.2895,5.2895,5.2895,5.3206,5.3331,5.3331,5.3632,5.3783,5.3783,5.3783,5.3783,5.3783,5.3783,5.3607,5.3331,5.3331,5.3146,5.2895,5.2895,5.2895,5.2895,5.2895,5.2895,5.2895,0.0,0.0,0.0,0.0,0.0,0.0,0.0,4.2084,4.1144,3.9852,3.9929,4.0006,3.9723,3.9697,0.0,0.0,0.0,0.0,0.0,0.0,0.0,0.0,0.0,0.0,4.1169,0.0,0.0,3.9697,3.9697,0.0,0.0,0.0,0.0,0.0,4.1199,4.135,4.135,4.1477,4.1724,0.0,0.0,4.2512,4.3014,0.0,0.0,0.0,0.0,4.3014,4.3014,4.3014,4.3014,4.3014,4.3014,4.3014,4.3014,4.3014,4.3014,4.3014,4.3014,4.3388,4.384,4.394,4.4744,4.5522,4.5648,4.5999,4.6301,4.6301,4.6301,4.6351,4.6446,4.7255,4.7958,4.8083,4.8937,4.9816,5.0519,5.0996,5.1523,5.2201,5.2619,5.2895,5.2895,5.2895,5.2895,5.2895,5.2895,5.2895,5.2895,5.2895,5.2895,5.2895,5.2995,5.3046,5.3046,5.3632,5.3884,5.3884,5.4371,5.4597,5.4597,5.4597,5.4597,5.4597,5.4597,5.4346,5.3884,5.3884,5.3632,5.3246,5.3246,5.3246,5.3256,5.3096,5.3046,5.3046,0.0,0.0,0.0,0.0,0.0,0.0,0.0,4.0945,4.1144,3.9852,4.0718,4.0995,3.9826,3.9697,0.0,0.0,0.0,0.0,0.0,0.0,0.0,0.0,0.0,0.0,0.0,0.0,0.0,3.9697,3.9697,0.0,0.0,0.0,0.0,0.0,0.0,4.1576,4.1603,4.2103,0.0,0.0,0.0,0.0,0.0,0.0,0.0,0.0,0.0,4.3014,4.3014,4.3014,4.3014,4.3014,4.3014,4.3014,4.3014,4.3014,4.3014,4.3014,4.3014,4.3388,4.3915,4.4389,4.502,4.5623,4.6125,4.6276,4.6301,4.6301,4.6301,4.6446,4.6948,4.7531,4.8083,4.8642,4.9188,4.9967,5.1046,5.128,5.1674,5.2694,5.287,5.2895,5.2895,5.2895,5.2895,5.2895,5.2895,5.2895,5.2895,5.2895,5.2895,5.2895,5.3381,5.3632,5.3632,5.4245,5.4522,5.4522,5.4572,5.4597,5.4597,5.4597,5.4597,5.4597,5.4597,5.4572,5.4522,5.4522,5.4496,5.4446,5.4446,5.4446,5.4396,5.3833,5.3632,5.3557,0.0,0.0,0.0,0.0,0.0,0.0,0.0,4.1119,4.0541,4.0819,4.0617,4.0541,4.0819,4.016,3.9697,0.0,0.0,0.0,0.0,0.0,0.0,0.0,0.0,0.0,0.0,0.0,4.0844,4.0844,4.0083,0.0,0.0,0.0,0.0,0.0,0.0,4.0895,4.1568,4.1001,0.0,0.0,0.0,0.0,0.0,0.0,0.0,0.0,0.0,0.0,4.3014,4.3014,4.3014,4.3014,4.3014,4.3014,4.3014,4.3014,4.3014,4.309,4.3388,4.3865,4.4443,4.4995,4.5573,4.605,4.625,4.6301,4.6301,4.6301,4.6301,4.6446,4.6998,4.7525,4.8109,4.8718,4.927,4.9992,5.1155,5.1306,5.1699,5.277,5.2895,5.2895,5.2895,5.2895,5.2895,5.2895,5.2895,5.302,5.3381,5.3381,5.3381,5.3381,5.3934,5.4245,5.4245,5.4823,5.5099,5.5099,5.539,5.5541,5.5541,5.5541,5.5541,5.5541,5.5541,5.5365,5.5099,5.5099,5.4898,5.4597,5.4597,5.4597,5.4572,5.4346,5.4245,5.4185,0.0,0.0,0.0,0.0,0.0,0.0,4.2181,4.1493,4.0895,4.1019,4.0567,4.0592,4.1518,4.0465,3.9852,4.0211,0.0,0.0,0.0,0.0,0.0,0.0,0.0,0.0,0.0,0.0,4.1419,4.1019,4.016,4.016,0.0,0.0,4.0389,4.1566,0.0,0.0,0.0,0.0,0.0,0.0,0.0,0.0,0.0,0.0,0.0,0.0,0.0,0.0,0.0,0.0,0.0,4.3014,4.3014,4.3014,4.3014,4.3014,4.3014,4.314,4.3639,4.4192,4.474,4.5347,4.5899,4.6301,4.6301,4.6301,4.6301,4.6301,4.6451,4.6697,4.7224,4.7807,4.836,4.8944,4.9339,4.9992,5.1155,5.1306,5.1699,5.277,5.2895,5.2895,5.2895,5.2895,5.2895,5.2895,5.3046,5.3306,5.3683,5.4009,5.4135,5.3959,5.4547,5.4848,5.4848,5.5365,5.5641,5.5641,5.6018,5.6219,5.6219,5.6219,5.6219,5.6219,5.6219,5.5993,5.5641,5.5641,5.539,5.5074,5.5074,5.5074,5.5039,5.4898,5.4848,5.4823,0.0,0.0,0.0,0.0,0.0,0.0,0.0,4.1862,4.2544,4.0057,4.0819,4.1591,4.1591,4.0465,4.0211,4.1493,0.0,0.0,0.0,0.0,0.0,0.0,0.0,0.0,0.0,0.0,0.0,3.9723,3.9723,3.9723,3.9723,3.9723,4.0389,4.164,0.0,0.0,0.0,0.0,0.0,0.0,0.0,0.0,0.0,0.0,0.0,0.0,0.0,0.0,0.0,0.0,0.0,0.0,0.0,4.3014,4.3014,4.3014,4.3014,4.314,4.3639,4.4192,4.474,4.5347,4.5899,4.6301,4.6301,4.6301,4.6301,4.6301,4.6722,4.7249,4.7807,4.836,4.8969,4.949,4.959,4.9992,5.1155,5.1306,5.1699,5.277,5.2895,5.2895,5.2895,5.2895,5.2895,5.2895,5.3406,5.3683,5.3708,5.4762,5.5114,5.4622,5.5125,5.539,5.539,5.5917,5.6194,5.6194,5.6219,5.6219,5.6219,5.6219,5.6219,5.6219,5.6219,5.6219,5.6194,5.6194,5.6194,5.6194,5.6194,5.6194,5.6118,5.5591,5.539,5.5326,0.0,0.0,0.0,0.0,0.0,0.0,0.0,4.0945,4.0945,4.0969,4.1344,4.1936,4.2786,4.1764,4.1862,4.3999,0.0,0.0,0.0,0.0,0.0,0.0,0.0,0.0,0.0,0.0,0.0,0.0,0.0,4.0994,4.0994,4.0994,4.1219,4.1616,4.2035,4.1985,0.0,0.0,0.0,0.0,0.0,0.0,4.3014,0.0,0.0,0.0,0.0,0.0,0.0,0.0,0.0,0.0,0.0,0.0,0.0,4.3014,4.3266,4.3664,4.4217,4.4769,4.5347,4.5924,4.6175,4.6301,4.6301,4.6301,4.6301,4.6301,4.6722,4.7249,4.7807,4.8385,4.8994,4.9515,4.9916,5.0419,5.1172,5.1599,5.2126,5.282,5.2895,5.2895,5.2895,5.2895,5.3046,5.3432,5.3607,5.4034,5.4813,5.5189,5.5315,5.5139,5.5666,5.5942,5.5942,5.6118,5.6219,5.6219,5.6219,5.6219,5.6219,5.6219,5.6219,5.6219,5.6219,5.6219,5.6219,5.6219,5.6219,5.6219,5.6219,5.6219,5.6194,5.6018,5.5942,5.5917,0.0,0.0,0.0,0.0,0.0,0.0,0.0,4.0617,4.0693,4.1518,4.1169,4.1541,4.3313,4.235,4.2255,4.3834,0.0,0.0,0.0,0.0,0.0,0.0,0.0,0.0,0.0,0.0,0.0,0.0,0.0,0.0,0.0,0.0,4.1591,4.1591,4.1591,4.1344,0.0,0.0,0.0,0.0,0.0,0.0,4.3014,0.0,0.0,0.0,0.0,0.0,0.0,0.0,0.0,0.0,0.0,0.0,0.0,0.0,4.3689,4.4163,4.4514,4.5045,4.5623,4.6175,4.6301,4.6301,4.6301,4.6301,4.6376,4.6547,4.7023,4.755,4.8134,4.8711,4.922,4.954,5.0067,5.0619,5.1197,5.1749,5.2302,5.282,5.2895,5.2895,5.2895,5.2895,5.3096,5.3658,5.3909,5.4436,5.534,5.5591,5.5691,5.5691,5.6043,5.6219,5.6219,5.6219,5.6219,5.6219,5.6219,5.6219,5.6219,5.6219,5.6219,5.6219,5.6219,5.6219,0.0,5.6219,5.6219,5.6219,5.6219,5.6219,5.6219,5.6219,5.6219,5.6219,0.0,0.0,0.0,0.0,0.0,0.0,0.0,0.0,0.0,0.0,4.0567,4.0769,4.3242,4.235,4.1665,0.0,0.0,0.0,0.0,0.0,0.0,0.0,0.0,0.0,0.0,0.0,0.0,4.1739,4.3002,4.293,4.1591,0.0,0.0,4.1591,4.1591,4.0945,0.0,0.0,0.0,0.0,0.0,0.0,0.0,0.0,0.0,0.0,0.0,0.0,0.0,0.0,0.0,0.0,0.0,0.0,0.0,0.0,0.0,0.0,0.0,4.5095,4.5673,4.6175,4.6301,4.6301,4.6301,4.6301,0.0,4.6998,4.7525,4.8083,4.8693,4.9213,4.959,4.959,5.0092,5.067,5.1197,5.18,5.2352,5.2845,5.2895,5.2895,5.2895,5.292,5.3171,5.3733,5.4321,5.4898,5.5415,5.5942,5.6219,5.6219,5.6219,5.6219,5.6219,5.6219,5.6219,5.6219,5.6219,5.6219,5.6219,5.6219,5.6219,5.6219,5.6219,5.6219,5.6219,5.6219,5.6219,5.6219,5.6219,5.6219,5.6219,5.6219,5.6219,5.6219,0.0,0.0,0.0,0.0,0.0,0.0,0.0,0.0,0.0,0.0,0.0,4.1739,4.3337,4.235,0.0,0.0,0.0,0.0,0.0,0.0,0.0,0.0,0.0,0.0,0.0,0.0,0.0,4.305,4.4326,4.3811,4.1616,4.2593,0.0,0.0,0.0,0.0,0.0,0.0,0.0,0.0,0.0,0.0,0.0,0.0,0.0,0.0,4.3014,4.3014,0.0,0.0,0.0,0.0,0.0,0.0,0.0,0.0,4.4192,4.469,4.5171,0.0,4.615,4.6276,4.6301,4.6301,0.0,4.6301,4.6446,4.6998,4.7525,4.8083,4.8693,4.9213,4.959,4.959,5.0419,5.1122,5.1272,5.2126,5.2744,5.287,5.2895,5.2895,5.2895,5.3246,5.3758,5.4346,5.4924,5.544,5.5993,5.6143,5.6219,5.6219,5.6219,5.6219,5.6219,5.6219,5.6219,5.6219,5.6219,5.6219,5.6219,5.6219,5.6219,5.6219,5.6219,5.6219,5.6219,5.6219,5.6219,5.6219,5.6219,5.6219,5.6219,5.6219,5.6219,5.6219,0.0,0.0,0.0,0.0,0.0,0.0,0.0,0.0,0.0,0.0,0.0,0.0,0.0,0.0,0.0,0.0,0.0,0.0,0.0,0.0,0.0,0.0,0.0,0.0,0.0,0.0,0.0,0.0,0.0,4.4396,0.0,0.0,0.0,0.0,0.0,0.0,0.0,0.0,0.0,0.0,4.2386,0.0,0.0,0.0,0.0,0.0,4.3014,4.3014,0.0,4.3014,4.3014,4.3014,0.0,0.0,0.0,0.0,4.4364,4.4765,4.5648,4.6075,4.6301,4.6301,4.6301,4.6301,4.6301,4.6471,4.6823,4.735,4.7933,4.8485,4.9038,4.9389,4.9665,4.9941,5.072,5.1448,5.1975,5.2519,5.2895,5.2895,5.2895,5.2895,5.2895,5.3406,5.3934,5.4547,5.5125,5.5616,5.6168,5.6219,5.6219,5.6219,5.6219,5.6219,5.6219,5.6219,5.6219,5.6219,5.6219,5.6219,5.6219,5.6219,5.6219,5.6219,5.6219,5.6219,5.6219,5.6219,5.6219,5.6219,5.6219,5.6219,5.6219,5.6219,5.6219,5.6219,0.0,0.0,0.0,0.0,0.0,0.0,0.0,0.0,0.0,0.0,0.0,0.0,0.0,0.0,0.0,0.0,0.0,0.0,0.0,0.0,0.0,0.0,0.0,0.0,0.0,0.0,0.0,0.0,0.0,0.0,0.0,0.0,4.281,0.0,0.0,0.0,0.0,0.0,0.0,0.0,4.2313,0.0,0.0,0.0,0.0,0.0,0.0,0.0,0.0,4.3014,4.3014,4.3014,4.3014,0.0,0.0,0.0,0.0,0.0,4.6024,4.6301,4.6301,4.6301,4.6301,4.6301,4.6301,4.6697,4.7249,4.7807,4.836,4.8969,4.949,4.959,4.9766,5.0318,5.0971,5.1774,5.2744,5.2895,5.2895,5.2895,5.2895,5.2895,5.2895,5.3482,5.4034,5.4572,5.5164,5.5717,5.6194,5.6219,5.6219,5.6219,5.6219,5.6219,5.6219,5.6219,5.6219,5.6219,5.6219,5.6219,5.6219,5.6219,5.6219,5.6219,5.6219,0.0,5.6219,5.6219,5.6219,5.6219,5.6219,5.6219,5.6219,5.6219,5.6219,5.6219,0.0,0.0,0.0,0.0,0.0,0.0,0.0,0.0,0.0,0.0,0.0,0.0,0.0,0.0,0.0,0.0,0.0,0.0,0.0,0.0,0.0,0.0,0.0,0.0,0.0,0.0,0.0,0.0,0.0,0.0,4.1912,4.3002,4.281,0.0,0.0,0.0,0.0,0.0,0.0,0.0,4.2688,0.0,0.0,0.0,0.0,0.0,0.0,0.0,0.0,4.3014,4.3014,4.3014,4.3014,0.0,0.0,0.0,0.0,0.0,4.6125,4.6301,4.6301,4.6301,4.6301,4.6301,4.6301,4.6697,4.7249,4.7807,4.836,4.8969,4.949,4.959,4.9766,5.0318,5.1297,5.2201,5.2795,5.2895,5.2895,5.2895,5.2895,5.2895,5.2895,5.3833,5.4496,5.4597,5.5516,5.6118,5.6219,5.6219,5.6219,5.6219,5.6219,5.6219,5.6219,5.6219,5.6219,5.6219,5.6219,5.6219,5.6219,5.6219,5.6219,5.6219,0.0,5.6219,5.6219,5.6219,5.6219,5.6219,5.6219,5.6219,5.6219,5.6219,5.6219,5.6219,0.0,0.0,0.0,0.0,0.0,0.0,0.0,0.0,0.0,0.0,0.0,0.0,0.0,0.0,0.0,0.0,0.0,0.0,0.0,0.0,0.0,0.0,0.0,0.0,0.0,0.0,0.0,0.0,0.0,4.3432,4.1591,4.1493,4.1302,4.1004,0.0,0.0,0.0,0.0,0.0,0.0,0.0,0.0,0.0,0.0,0.0,0.0,0.0,0.0,0.0,0.0,4.3014,4.3014,4.3014,0.0,0.0,0.0,0.0,0.0,4.615,4.6301,4.6301,4.6301,4.6301,4.6376,4.6672,4.7149,4.7676,4.8259,4.8843,4.9321,4.954,4.9841,5.0318,5.1197,5.2026,5.2594,5.287,5.2895,5.2895,5.2895,5.2895,5.2995,5.3306,5.4084,5.4723,5.5024,5.5767,5.6219,5.6219,5.6219,5.6219,5.6219,5.6219,5.6219,5.6219,5.6219,5.6219,5.6219,5.6219,5.6219,5.6219,5.6219,5.6219,5.6219,0.0,5.6219,5.6219,5.6219,5.6219,5.6219,5.6219,5.6219,5.6219,5.6219,5.6219,5.6219,0.0,0.0,0.0,0.0,0.0,0.0,0.0,0.0,0.0,0.0,0.0,0.0,0.0,0.0,0.0,0.0,0.0,0.0,0.0,0.0,0.0,0.0,0.0,0.0,0.0,0.0,4.3834,4.4512,4.3834,4.2858,4.1566,4.0746,4.0541,0.0,0.0,0.0,0.0,0.0,0.0,0.0,0.0,0.0,0.0,0.0,0.0,0.0,0.0,0.0,0.0,0.0,0.0,0.0,0.0,0.0,0.0,4.4464,4.5121,4.5773,4.62,4.6301,4.6301,4.6301,4.6371,4.6572,4.6998,4.76,4.8234,4.8718,4.9245,4.964,4.9766,5.0343,5.1096,5.1975,5.2578,5.2895,5.2895,5.2895,5.2895,5.2895,5.2895,5.3096,5.3658,5.427,5.4823,5.534,5.5892,5.6219,5.6219,5.6219,5.6219,5.6219,5.6219,5.6219,5.6219,5.6219,5.6219,5.6219,5.6219,5.6219,5.6219,5.6219,5.6219,5.6219,5.6219,5.6219,5.6219,5.6219,5.6219,5.6219,5.6219,5.6219,5.6219,5.6219,5.6219,5.6219,0.0,0.0,0.0,0.0,0.0,0.0,0.0,0.0,0.0,0.0,0.0,0.0,0.0,0.0,0.0,0.0,0.0,0.0,0.0,0.0,0.0,0.0,0.0,0.0,0.0,4.3551,4.2978,4.1862,4.2978,4.2858,4.1617,4.202,4.2233,4.2261,0.0,0.0,0.0,0.0,0.0,0.0,0.0,0.0,0.0,0.0,0.0,0.0,0.0,0.0,0.0,0.0,0.0,0.0,0.0,0.0,4.4539,4.4589,4.5367,4.625,4.6301,4.6301,4.6301,4.6301,4.6672,4.7048,4.7099,4.7958,4.8743,4.8793,4.9245,4.9741,5.0268,5.1247,5.2,5.2101,5.2578,5.2895,5.2895,5.2895,5.2895,5.2895,5.2895,5.3096,5.3658,5.427,5.4823,5.534,5.5892,5.6219,5.6219,5.6219,5.6219,5.6219,5.6219,5.6219,5.6219,5.6219,5.6219,5.6219,5.6219,5.6219,5.6219,5.6219,5.6219,5.6219,5.6219,5.6219,5.6219,5.6219,5.6219,5.6219,5.6219,5.6219,5.6219,5.6219,5.6219,5.6219,0.0,0.0,0.0,0.0,0.0,0.0,0.0,0.0,0.0,0.0,0.0,0.0,0.0,0.0,0.0,0.0,0.0,0.0,0.0,0.0,0.0,4.2245,0.0,4.1616,4.1144,4.1912,4.2471,4.2786,4.1665,4.1478,4.2095,4.1492,0.0,0.0,0.0,0.0,0.0,0.0,0.0,0.0,0.0,0.0,0.0,0.0,0.0,0.0,0.0,0.0,0.0,0.0,4.3014,4.3065,4.3388,4.4016,4.4665,4.5045,4.5698,4.6301,4.6301,4.6301,4.6401,4.6697,4.7199,4.7575,4.7575,4.8209,4.8894,4.9213,4.9715,5.0393,5.1297,5.1825,5.2226,5.2519,5.2744,5.2895,5.2895,5.2895,5.2895,5.2895,5.3171,5.3632,5.4185,5.4773,5.5315,5.5867,5.6093,5.6219,5.6219,5.6219,5.6219,5.6219,5.6219,5.6219,5.6219,5.6219,5.6219,5.6219,5.6219,5.6219,5.6219,5.6219,5.6219,5.6219,5.6219,5.6219,5.6219,5.6219,5.6219,5.6219,5.6219,5.6219,5.6219,5.6219,5.6219,5.6219,0.0,0.0,0.0,0.0,0.0,0.0,0.0,0.0,0.0,0.0,0.0,0.0,0.0,0.0,0.0,0.0,0.0,0.0,0.0,0.0,4.2496,4.2189,4.1286,4.0823,4.0823,4.1286,4.184,4.2547,4.1386,4.1235,4.2061,0.0,0.0,0.0,0.0,0.0,0.0,0.0,0.0,0.0,0.0,4.3014,0.0,0.0,0.0,0.0,0.0,0.0,0.0,0.0,4.3014,4.309,4.3639,4.4192,4.4715,4.5321,4.5874,4.6301,4.6301,4.6426,4.6622,4.7023,4.7657,4.8184,4.8184,4.8611,4.9188,4.9741,5.0444,5.1197,5.1975,5.2251,5.2443,5.2845,5.2895,5.2895,5.2895,5.2895,5.2945,5.3121,5.3482,5.4009,5.4798,5.5164,5.5616,5.6168,5.6219,5.6219,5.6219,5.6219,5.6219,5.6219,5.6219,5.6219,5.6219,5.6219,5.6219,5.6219,5.6219,5.6219,5.6219,5.6219,5.6219,5.6219,5.6219,5.6219,5.6219,5.6219,5.6219,5.6219,5.6219,5.6219,5.6219,5.6219,5.6219,5.6219,0.0,0.0,0.0,0.0,0.0,0.0,0.0,0.0,0.0,0.0,0.0,0.0,0.0,0.0,0.0,0.0,0.0,0.0,0.0,4.3204,4.2631,4.1383,4.25,4.3178,4.3178,4.1945,4.1051,4.0499,4.2294,4.2527,4.1354,4.3202,0.0,0.0,0.0,0.0,0.0,0.0,0.0,0.0,4.3014,4.3014,0.0,0.0,0.0,0.0,0.0,0.0,0.0,0.0,4.3014,4.3115,4.3639,4.4192,4.4715,4.5321,4.5874,4.6301,4.6301,4.6672,4.7099,4.7124,4.7958,4.8793,4.8818,4.9213,4.9766,5.0285,5.1322,5.2101,5.2126,5.2519,5.2895,5.2895,5.2895,5.2895,5.2895,5.2895,5.3096,5.3632,5.3708,5.416,5.529,5.539,5.5616,5.6168,5.6219,5.6219,5.6219,5.6219,5.6219,5.6219,5.6219,5.6219,5.6219,5.6219,5.6219,5.6219,5.6219,5.6219,5.6219,5.6219,5.6219,5.6219,5.6219,5.6219,5.6219,5.6219,5.6219,5.6219,5.6219,5.6219,5.6219,5.6219,5.6219,5.6219,0.0,0.0,0.0,0.0,0.0,0.0,0.0,0.0,0.0,0.0,0.0,0.0,0.0,0.0,0.0,0.0,0.0,0.0,0.0,4.3221,4.2747,4.3334,4.2389,4.1865,4.1865,4.1922,4.1656,4.1076,4.1603,4.1881,0.0,0.0,0.0,4.2763,0.0,0.0,0.0,0.0,0.0,4.3014,4.3014,4.3014,0.0,0.0,0.0,0.0,0.0,0.0,0.0,0.0,0.0,0.0,4.4192,4.4769,4.5347,4.5899,4.6175,4.6301,4.6301,4.6672,4.7199,4.755,4.8234,4.8894,4.9264,4.9766,5.0444,5.1398,5.1875,5.2226,5.2569,5.2795,5.2895,5.2895,5.2895,5.2895,5.2895,5.2895,5.3096,5.3632,5.4059,5.4622,5.5315,5.5742,5.6043,5.6194,5.6219,5.6219,5.6219,5.6219,5.6219,5.6219,5.6219,5.6219,5.6219,5.6219,5.6219,5.6219,5.6219,5.6219,5.6219,5.6219,5.6219,5.6219,5.6219,5.6219,5.6219,5.6219,5.6219,5.6219,5.6219,5.6219,5.6219,5.6219,5.6219,5.6219,0.0,0.0,0.0,0.0,0.0,0.0,0.0,0.0,0.0,0.0,0.0,0.0,0.0,0.0,0.0,0.0,0.0,0.0,0.0,0.0,4.2872,4.369,4.2596,4.1982,4.1982,4.2336,4.2336,4.1982,4.1982,0.0,0.0,0.0,4.2688,4.3014,0.0,4.3014,4.3014,4.3014,4.3014,4.3014,4.3014,4.3014,4.3014,0.0,0.0,0.0,0.0,0.0,0.0,0.0,0.0,0.0,4.4719,4.5196,4.5598,4.615,4.6301,4.6351,4.6547,4.6998,4.755,4.8109,4.8686,4.9346,5.0092,5.0519,5.1021,5.1925,5.2277,5.2528,5.2845,5.2895,5.2895,5.2895,5.2895,5.2895,5.2895,5.3071,5.3432,5.3984,5.4572,5.515,5.5666,5.6018,5.6219,5.6219,5.6219,5.6219,5.6219,5.6219,5.6219,5.6219,5.6219,5.6219,5.6219,5.6219,5.6219,5.6219,5.6219,5.6219,5.6219,5.6219,5.6219,5.6219,5.6219,5.6219,5.6219,5.6219,5.6219,5.6219,5.6219,5.6219,5.6219,5.6219,5.6219,5.6219,0.0,0.0,0.0,0.0,0.0,0.0,0.0,0.0,0.0,0.0,0.0,0.0,0.0,0.0,0.0,0.0,0.0,0.0,0.0,0.0,4.3014,4.3014,4.3014,4.3014,4.3014,4.3014,4.3014,4.3014,4.3014,0.0,0.0,0.0,4.3014,4.3014,0.0,4.3014,4.3014,4.3014,4.3014,4.3014,4.3014,4.3014,4.3014,4.3014,0.0,0.0,0.0,0.0,0.0,0.0,0.0,0.0,4.5171,4.5522,4.5673,4.6175,4.6301,4.6426,4.6948,4.7475,4.8033,4.8667,4.9213,4.9967,5.1046,5.1356,5.1523,5.2076,5.2544,5.2895,5.2895,5.2895,5.2895,5.2895,5.2895,5.292,5.2945,5.3406,5.3934,5.4597,5.5089,5.5591,5.6168,5.6219,5.6219,5.6219,5.6219,5.6219,5.6219,5.6219,5.6219,5.6219,5.6219,5.6219,5.6219,5.6219,5.6219,5.6219,5.6219,5.6219,5.6219,5.6219,5.6219,5.6219,5.6219,5.6219,5.6219,5.6219,5.6219,5.6219,5.6219,5.6219,5.6219,5.6219,5.6219,5.6219,0.0,0.0,0.0,0.0,0.0,0.0,0.0,0.0,0.0,0.0,0.0,0.0,0.0,0.0,0.0,0.0,0.0,0.0,0.0,0.0,4.3014,4.3014,4.3014,4.3014,4.3014,4.3014,4.3014,4.3014,4.3014,0.0,0.0,0.0,0.0,4.3014,0.0,4.3014,4.3014,4.3014,4.3014,4.3014,4.3014,4.3014,4.3014,4.3014,4.3014,0.0,0.0,0.0,0.0,0.0,0.0,0.0,4.5422,4.5773,4.615,4.6276,4.6301,4.6426,4.6948,4.7475,4.8033,4.8667,4.9515,5.0419,5.1155,5.1624,5.2076,5.2594,5.282,5.2895,5.2895,5.2895,5.2895,5.2895,5.2895,5.3046,5.3482,5.3632,5.4084,5.5125,5.5315,5.5591,5.6168,5.6219,5.6219,5.6219,5.6219,5.6219,5.6219,5.6219,5.6219,5.6219,5.6219,5.6219,5.6219,5.6219,5.6219,5.6219,5.6219,5.6219,5.6219,5.6219,5.6219,5.6219,5.6219,5.6219,5.6219,5.6219,5.6219,5.6219,5.6219,5.6219,5.6219,5.6219,5.6219,5.6219,0.0,0.0,0.0,0.0,0.0,0.0,0.0,0.0,0.0,0.0,0.0,0.0,0.0,0.0,0.0,0.0,0.0,0.0,0.0,0.0,0.0,4.3014,4.3014,4.3014,4.3014,4.3014,4.3014,4.3014,4.3014,0.0,0.0,0.0,0.0,4.3014,0.0,4.3014,4.3014,4.3014,4.3014,4.3014,4.3014,4.3014,4.3014,4.3014,4.3165,4.3363,4.3363,0.0,0.0,0.0,0.0,0.0,0.0,0.0,4.6301,4.6301,4.6471,4.6798,4.7324,4.7908,4.846,4.9044,5.0017,5.0921,5.1222,5.1925,5.2544,5.2845,5.2895,5.2895,5.2895,5.2895,5.2895,5.2895,5.2895,5.3071,5.3632,5.3934,5.4436,5.529,5.5616,5.5892,5.6194,5.6219,5.6219,5.6219,5.6219,5.6219,5.6219,5.6219,5.6219,5.6219,5.6219,5.6219,5.6219,5.6219,5.6219,5.6219,5.6219,5.6219,5.6219,5.6219,5.6219,5.6219,5.6219,5.6219,5.6219,5.6219,5.6219,5.6219,5.6219,5.6219,5.6219,5.6219,5.6219,5.6219,0.0,0.0,0.0,0.0,0.0,0.0,0.0,0.0,0.0,0.0,0.0,0.0,0.0,0.0,0.0,0.0,0.0,0.0,0.0,0.0,0.0,0.0,4.3014,4.3014,4.3014,4.3014,4.3014,4.3014,4.3014,0.0,0.0,0.0,0.0,4.3014,0.0,4.3014,4.3014,4.3014,4.3014,4.3014,4.3014,4.3014,4.3014,0.0,0.0,4.3815,4.3915,4.4292,4.4815,4.5321,0.0,0.0,0.0,0.0,4.6326,4.6396,4.6747,4.7249,4.7883,4.8485,4.9069,4.959,5.0519,5.1297,5.1398,5.2201,5.2895,5.2895,5.2895,5.2895,5.2895,5.2895,5.2895,5.2895,5.2895,5.3096,5.3758,5.4295,5.4848,5.544,5.5942,5.6219,5.6219,5.6219,5.6219,5.6219,5.6219,5.6219,5.6219,5.6219,5.6219,5.6219,5.6219,5.6219,5.6219,5.6219,5.6219,5.6219,5.6219,5.6269,5.6344,5.6344,5.6294,5.6219,5.6219,5.6269,5.6344,5.6344,5.642,5.6495,5.6495,5.6495,5.6495,5.6495,5.6495,5.6495,0.0,0.0,0.0,0.0,0.0,0.0,0.0,0.0,0.0,0.0,0.0,0.0,0.0,0.0,0.0,0.0,0.0,0.0,4.3014,0.0,0.0,4.3014,4.3014,4.3014,4.3014,4.3014,4.3014,4.3014,4.3014,0.0,0.0,0.0,0.0,4.3014,0.0,4.3014,4.3014,4.3014,4.3014,4.3014,4.3014,4.3014,4.3065,0.0,0.0,0.0,0.0,4.4895,4.5372,4.5472,4.5799,0.0,0.0,0.0,4.6401,4.6848,4.7048,4.7324,4.8385,4.9063,4.9615,5.0167,5.0795,5.1398,5.1875,5.2477,5.2895,5.2895,5.2895,5.2895,5.2895,5.2895,5.2895,5.2895,5.2895,5.3281,5.4346,5.4547,5.4974,5.5968,5.6168,5.6219,5.6219,5.6219,5.6219,5.6219,5.6219,5.6219,5.6219,5.6219,5.6219,5.6219,5.6219,5.6219,5.6219,5.6219,5.6219,5.6219,5.6219,5.6433,5.6885,5.6885,5.6634,5.6219,5.6219,5.6433,5.6885,5.6885,5.7186,5.7675,5.7675,5.7675,5.7675,5.7675,5.7675,5.7675,0.0,0.0,0.0,0.0,0.0,0.0,0.0,0.0,0.0,0.0,0.0,0.0,0.0,0.0,0.0,4.3014,4.3014,4.3014,4.3014,4.3014,4.3014,4.3014,4.3014,4.3014,4.3014,4.3014,4.3014,4.3014,4.3014,0.0,0.0,4.3014,4.3014,0.0,0.0,0.0,0.0,4.3014,4.3014,4.3039,4.3341,4.3438,0.0,0.0,0.0,0.0,0.0,0.0,0.0,4.5949,4.61,4.6301,4.6301,0.0,0.0,0.0,4.755,4.8234,4.9012,4.9414,4.9715,5.0268,5.0845,5.1423,5.1975,5.2494,5.2895,5.2895,5.2895,5.2895,5.2895,5.2895,5.2895,5.2895,5.3146,5.3632,5.4496,5.4873,5.5315,5.6118,5.6219,5.6219,5.6219,5.6219,5.6219,5.6219,5.6219,5.6219,5.6219,5.6219,5.6219,5.6219,5.6219,5.6219,5.6219,5.6219,5.6369,5.6634,5.6634,5.6935,5.7524,5.7524,5.7399,5.7148,5.7148,5.7298,5.7524,5.7524,5.7675,5.7901,5.7901,5.7901,5.7901,5.7901,5.7901,5.7901,0.0,0.0,0.0,0.0,0.0,0.0,0.0,0.0,0.0,0.0,0.0,0.0,0.0,0.0,0.0,0.0,4.3014,4.3014,4.3014,4.3014,4.3014,4.3014,4.3014,4.3014,4.3014,4.3014,4.3014,4.3014,4.3014,0.0,4.3014,4.3014,4.3014,0.0,4.3014,4.3014,0.0,0.0,0.0,4.3266,0.0,0.0,0.0,0.0,0.0,0.0,0.0,0.0,0.0,0.0,4.6301,4.6326,4.6446,4.6772,0.0,0.0,0.0,4.9095,4.949,4.959,4.9766,5.0469,5.0971,5.1473,5.2151,5.2594,5.2895,5.2895,5.2895,5.2895,5.2895,5.2895,5.2895,5.2895,5.3356,5.3909,5.4522,5.5074,5.5591,5.6143,5.6219,5.6219,5.6219,5.6219,5.6219,5.6219,5.6219,5.6219,5.6219,5.6219,5.6219,5.6219,5.6219,5.6219,5.6219,5.6344,5.6659,5.7211,5.7211,5.7549,5.8102,5.8102,5.8177,5.8278,5.8027,5.7976,5.8102,5.8102,5.8177,5.8303,5.8303,5.8303,5.8303,5.8303,5.8303,5.8303,0.0,0.0,0.0,0.0,0.0,0.0,0.0,0.0,0.0,0.0,0.0,0.0,0.0,0.0,4.3014,4.3014,4.3014,4.3014,4.3014,4.3014,4.3014,4.3014,4.3014,0.0,4.3014,4.3014,4.3014,4.3014,4.3014,4.3014,4.3014,4.3014,4.3014,4.3014,4.3014,4.3014,4.3039,0.0,0.0,0.0,0.0,0.0,0.0,0.0,0.0,0.0,0.0,0.0,0.0,0.0,0.0,4.6401,4.6898,4.7074,4.7299,0.0,0.0,0.0,4.959,4.959,4.9866,5.1004,5.128,5.1548,5.2594,5.287,5.2895,5.2895,5.2895,5.2895,5.2895,5.2895,5.2895,5.2895,5.3356,5.3909,5.4522,5.5074,5.5591,5.6143,5.6219,5.6219,5.6219,5.6219,5.6219,5.6219,5.6219,5.6219,5.6219,5.6219,5.6219,5.6219,5.6219,5.6219,5.6219,5.6684,5.7236,5.7851,5.7851,5.8152,5.8641,5.8641,5.8956,5.9357,5.8328,5.8202,5.8641,5.8641,5.8981,5.9408,5.9408,5.9408,5.9408,5.9408,5.9408,5.9408,0.0,0.0,0.0,0.0,0.0,0.0,0.0,0.0,0.0,0.0,0.0,0.0,0.0,4.3014,4.3014,4.3014,4.3014,4.3014,4.3014,4.3014,4.3014,4.3014,4.3014,4.3014,4.3014,4.3014,4.3014,0.0,4.3014,4.3014,4.3014,4.3014,4.3014,4.3014,4.3014,4.319,4.3514,4.3714,0.0,0.0,0.0,0.0,0.0,0.0,0.0,0.0,0.0,0.0,0.0,0.0,0.0,0.0,0.0,0.0,4.8335,4.9088,4.9439,4.959,4.959,4.9841,5.0318,5.1096,5.1548,5.2,5.2719,5.2895,5.2895,5.2895,5.2895,5.2895,5.2895,5.2895,5.2895,5.2895,5.3356,5.3909,5.4522,5.5074,5.5591,5.6143,5.6219,5.6219,5.6219,5.6219,5.6219,5.6219,5.6219,5.6219,5.6219,5.6219,5.6219,5.6219,5.6219,5.6394,5.6709,5.6885,5.7499,5.8403,5.8403,5.8704,5.9207,5.9207,5.9332,5.9483,5.9081,5.9031,5.9207,5.9207,5.9332,5.9483,5.9483,6.0265,6.1203,5.9959,6.1026,6.2998,0.0,0.0,0.0,0.0,0.0,0.0,0.0,0.0,0.0,0.0,0.0,0.0,0.0,0.0,4.3014,4.3014,4.3014,4.3014,4.3014,4.3014,4.3014,4.3014,4.3014,4.3014,4.3014,0.0,0.0,0.0,0.0,0.0,4.3014,4.319,4.3263,4.3291,4.3438,4.3639,0.0,0.0,0.0,4.497,0.0,0.0,4.5799,0.0,0.0,0.0,0.0,0.0,0.0,0.0,0.0,0.0,0.0,0.0,0.0,4.949,4.959,4.964,4.9816,5.0142,5.0594,5.1373,5.1825,5.2251,5.277,5.2895,5.2895,5.2895,5.2895,5.2895,5.2895,5.2895,5.2895,5.2895,5.3356,5.3909,5.4522,5.5074,5.5591,5.6143,5.6219,5.6219,5.6219,5.6219,5.6219,5.6219,5.6219,5.6219,5.6219,5.6219,5.6219,5.6219,5.6358,5.6734,5.7286,5.7462,5.8052,5.8956,5.8981,5.9156,5.9483,5.9483,5.9483,5.9483,5.9483,5.9483,5.9483,5.9483,5.9907,6.0469,6.0469,6.1666,6.3172,6.1902,6.3035,6.5036,0.0,0.0,0.0,0.0,0.0,0.0,0.0,0.0,0.0,0.0,0.0,0.0,0.0,0.0,0.0,4.3014,4.3014,4.3014,4.3014,4.3014,4.3014,4.3014,4.3014,4.3014,4.3014,0.0,0.0,0.0,0.0,0.0,0.0,0.0,4.3815,4.384,4.4392,4.4342,4.3915,4.502,4.5497,4.5573,0.0,4.6301,4.6301,0.0,0.0,0.0,4.7124,4.745,0.0,4.7933,0.0,0.0,0.0,0.0,0.0,0.0,0.0,4.9741,0.0,0.0,0.0,5.1825,5.2126,5.2277,5.277,5.2895,5.2895,5.2895,5.2895,5.2895,5.2895,5.2895,5.2895,5.2895,5.3356,5.3884,5.4522,5.5074,5.5566,5.6143,5.6219,5.6219,5.6219,5.6219,5.6219,5.6219,5.6219,5.6219,5.6219,5.6219,5.6219,5.6219,5.6709,5.7286,5.7901,5.8453,5.8981,5.9483,5.9483,5.9483,5.9483,5.9483,5.9483,5.9483,5.9483,5.9521,5.9599,5.9599,6.0698,6.2413,6.2461,6.3621,6.5257,6.5222,6.5257,6.5328,0.0,0.0,0.0,0.0,0.0,0.0,0.0,0.0,0.0,0.0,0.0,0.0,0.0,0.0,0.0,4.3014,4.3014,4.3014,4.3014,4.3014,4.3014,4.3014,4.3014,4.3014,4.3014,0.0,0.0,0.0,0.0,0.0,0.0,0.0,0.0,0.0,4.4995,4.5171,4.5045,4.5347,4.5723,4.61,4.625,4.6301,0.0,0.0,0.0,0.0,0.0,4.8058,4.8567,0.0,4.8812,4.9163,0.0,0.0,0.0,0.0,0.0,0.0,5.0336,0.0,0.0,0.0,0.0,0.0,5.287,5.2895,5.2895,5.2895,5.2895,5.2895,5.2895,5.2895,5.2895,5.2895,5.302,5.3482,5.4471,5.4723,5.5139,5.6093,5.6219,5.6219,5.6219,5.6219,5.6219,5.6219,5.6219,5.6219,5.6219,5.6219,5.6219,5.6219,5.6709,5.7286,5.7901,5.8453,5.8981,5.9483,5.9483,5.9483,5.9483,5.9483,5.9483,5.9483,5.9483,6.0304,6.1591,6.1591,6.1891,6.2535,6.3912,6.5604,6.7128,6.571,6.6933,6.9124,0.0,0.0,0.0,0.0,0.0,0.0,0.0,0.0,0.0,0.0,0.0,0.0,0.0,0.0,0.0,0.0,4.3014,4.3014,4.3014,4.3014,4.3014,4.3014,4.3014,4.3115,0.0,0.0,0.0,0.0,0.0,0.0,0.0,0.0,0.0,0.0,0.0,4.5824,4.5849,4.6075,4.6351,4.6622,4.6622,4.6747,0.0,4.7299,4.7575,0.0,0.0,0.0,4.9113,4.9113,4.9339,0.0,0.0,0.0,0.0,0.0,0.0,0.0,0.0,0.0,5.2151,5.2402,0.0,0.0,5.2895,5.2895,5.2895,5.2895,5.2895,5.2895,5.2895,5.2895,5.2895,5.2895,5.2895,5.3196,5.4084,5.4446,5.4924,5.5767,5.6068,5.6219,5.6219,5.6219,5.6219,5.6219,5.6219,5.6219,5.6219,5.6219,5.6219,5.6219,5.6935,5.7549,5.7901,5.8654,5.9207,5.9483,5.9483,5.9483,5.9483,5.9483,5.9483,5.9483,5.9483,6.015,6.124,6.2078,6.3319,6.4813,6.5071,6.6892,6.9052,6.71,6.832,7.0726,0.0,0.0,0.0,0.0,0.0,0.0,0.0,0.0,0.0,0.0,0.0,0.0,0.0,0.0,0.0,0.0,4.319,4.319,4.319,4.319,0.0,0.0,0.0,0.0,0.0,0.0,0.0,0.0,0.0,0.0,0.0,0.0,0.0,0.0,0.0,0.0,4.6426,4.6948,4.7224,4.7274,4.7224,4.745,0.0,0.0,4.8309,4.8818,4.8868,4.922,4.9615,4.9665,4.969,0.0,0.0,0.0,0.0,0.0,5.0921,0.0,0.0,0.0,0.0,5.277,5.2895,0.0,5.2895,5.2895,5.2895,5.2895,5.2895,5.2895,5.2895,5.2895,5.2895,5.2895,5.2895,5.3071,5.3632,5.4135,5.4723,5.5315,5.5817,5.6143,5.6194,5.6219,5.6219,5.6219,5.6219,5.6219,5.6219,5.6219,5.6219,5.6219,5.7298,5.7901,5.7901,5.8956,5.9483,5.9483,5.9483,5.9483,5.9483,5.9483,5.9483,5.9483,5.9483,5.9599,5.9959,6.1666,6.4409,6.7301,6.578,6.741,7.037,6.8721,6.9286,7.0889,0.0,0.0,0.0,0.0,0.0,0.0,0.0,0.0,0.0,0.0,0.0,0.0,0.0,0.0,0.0,0.0,0.0,4.4292,0.0,0.0,0.0,0.0,0.0,0.0,0.0,0.0,0.0,0.0,0.0,0.0,0.0,0.0,0.0,0.0,0.0,0.0,4.6973,4.7531,4.8033,4.8441,4.7933,4.7807,4.7958,4.8435,4.8718,4.8868,4.9264,4.9515,4.9665,5.0117,5.0243,5.0343,0.0,0.0,0.0,5.1096,0.0,0.0,0.0,0.0,0.0,0.0,5.2895,0.0,5.2895,5.2895,5.2895,5.2895,5.2895,5.2895,5.2895,5.2895,5.2895,5.2895,5.2895,5.3071,5.3632,5.3808,5.4235,5.5265,5.5491,5.5717,5.6168,5.6219,5.6219,5.6219,5.6219,5.6219,5.6219,5.6219,5.6219,5.6219,5.7298,5.7901,5.7901,5.8956,5.9483,5.9483,5.9483,5.9483,5.9483,5.9483,5.9483,5.9483,5.9483,6.0393,6.1853,6.2264,6.2831,6.3611,6.475,6.6614,6.8586,6.8248,6.9286,7.0889,0.0,0.0,0.0,0.0,0.0,0.0,0.0,0.0,0.0,0.0,0.0,0.0,0.0,0.0,0.0,0.0,0.0,0.0,0.0,0.0,0.0,0.0,0.0,0.0,0.0,0.0,0.0,0.0,0.0,0.0,0.0,0.0,0.0,0.0,0.0,0.0,4.7525,4.8109,4.8661,4.917,4.856,4.851,4.8812,4.9364,4.959,4.9665,5.0243,5.0444,5.0469,5.077,5.0845,0.0,5.1197,5.1473,5.1699,0.0,5.2076,5.2528,0.0,0.0,0.0,5.2895,0.0,0.0,0.0,5.2895,5.2895,5.2895,5.2895,5.2895,5.2895,5.2895,5.2895,5.2895,5.2895,5.2995,5.3246,5.3532,5.3909,5.4486,5.5039,5.5491,5.5767,5.6043,5.6219,5.6219,5.6219,5.6219,5.6219,5.6219,5.6219,5.6219,5.7298,5.7901,5.7901,5.8956,5.9483,5.9483,5.9483,5.9483,5.9483,5.9483,5.9483,5.9483,5.9483,6.0035,6.0938,6.0938,6.1542,6.2572,6.4463,6.6405,6.8112,6.8112,6.9286,7.0889,4.5767,0.0,0.0,0.0,0.0,0.0,0.0,0.0,0.0,0.0,0.0,0.0,0.0,0.0,0.0,0.0,0.0,0.0,0.0,0.0,0.0,0.0,0.0,4.5171,0.0,0.0,0.0,0.0,0.0,0.0,0.0,0.0,0.0,0.0,0.0,4.8083,4.8109,4.8812,4.9339,4.9715,4.9421,4.9547,4.9967,5.0419,5.0569,5.0645,5.1122,5.1306,5.1331,5.1398,5.1448,5.1448,5.1574,5.211,0.0,0.0,0.0,0.0,0.0,0.0,0.0,0.0,0.0,5.2895,0.0,0.0,0.0,5.2895,5.2895,5.2895,5.2895,5.2895,5.282,5.2619,5.2744,5.282,5.2594,5.3155,5.3582,5.3683,5.4511,5.5139,5.5365,5.5892,5.6219,5.6219,5.6219,5.6219,5.6219,5.6219,5.6219,5.6219,5.7298,5.7901,5.7901,5.8956,5.9483,5.9483,5.9483,5.9483,5.9483,5.9483,5.9483,5.9483,5.9483,5.9483,5.9521,5.9882,6.0976,6.2535,6.4093,6.609,6.8112,6.8112,6.9286,7.0889,4.7487,4.6004,0.0,0.0,0.0,0.0,0.0,0.0,0.0,0.0,0.0,0.0,0.0,0.0,0.0,0.0,0.0,0.0,4.6125,0.0,0.0,0.0,0.0,0.0,4.6225,0.0,0.0,0.0,0.0,0.0,0.0,0.0,0.0,0.0,4.841,4.8718,4.8768,4.9791,5.0235,5.0368,5.082,5.1054,5.1096,5.1147,5.1197,5.1197,5.128,5.1306,5.1348,0.0,5.2026,5.2101,0.0,5.3766,5.4737,5.3249,0.0,0.0,0.0,0.0,0.0,0.0,5.2895,0.0,5.2895,0.0,5.2895,5.2895,0.0,5.2895,5.2895,0.0,0.0,5.1624,5.2277,5.2578,5.1599,5.2352,5.3181,5.3658,5.3808,5.4285,5.529,5.5892,5.6219,5.6219,5.6219,5.6219,5.6219,5.6219,5.6219,5.6219,5.7298,5.7901,5.7901,5.8956,5.9483,5.9483,5.9483,5.9483,5.9483,5.9483,5.9483,5.9483,5.9483,5.9483,5.9637,6.1354,6.219,6.245,6.2646,6.492,6.8112,6.8112,6.9286,7.0889,4.8015,4.7449,0.0,0.0,0.0,0.0,0.0,0.0,0.0,0.0,0.0,0.0,0.0,0.0,0.0,0.0,0.0,4.6421,0.0,0.0,0.0,0.0,0.0,0.0,0.0,0.0,0.0,0.0,4.755,0.0,0.0,0.0,0.0,0.0,4.8987,4.9439,4.9766,5.0218,5.0795,5.1423,5.1674,5.195,5.2201,5.1875,5.195,5.2226,5.2226,5.2226,5.2277,0.0,5.2544,0.0,0.0,0.0,0.0,5.311,0.0,0.0,0.0,0.0,0.0,0.0,0.0,0.0,5.2895,0.0,5.2895,5.2895,0.0,0.0,0.0,0.0,0.0,0.0,5.2628,5.2719,5.2302,5.2594,5.297,5.3196,5.3507,5.416,5.529,5.5892,5.6219,5.6219,5.6219,5.6219,5.6219,5.6219,5.6219,5.6219,5.7298,5.7901,5.7901,5.8956,5.9483,5.9483,5.9483,5.9483,5.9483,5.9483,5.9483,5.9483,5.9483,5.9483,5.956,6.038,6.1391,6.2413,6.2413,6.4057,6.6684,6.8923,6.8793,6.7918,4.9322,0.0,0.0,0.0,0.0,0.0,0.0,0.0,0.0,0.0,0.0,0.0,4.6527,4.6652,0.0,0.0,4.6753,4.6898,0.0,0.0,4.7475,0.0,0.0,0.0,0.0,0.0,0.0,0.0,0.0,0.0,0.0,0.0,0.0,0.0,4.964,5.0142,5.067,5.082,5.1348,5.2126,5.2277,5.2544,5.2845,5.2477,5.2544,5.2895,5.2895,5.2895,5.2895,5.2895,5.2895,0.0,5.2895,5.3213,5.3495,0.0,0.0,0.0,5.3145,0.0,0.0,0.0,0.0,0.0,0.0,0.0,0.0,0.0,5.2895,0.0,0.0,0.0,5.2795,5.2528,0.0,5.2795,5.2528,5.2694,5.2895,5.2895,5.3381,5.4034,5.4838,5.5566,5.5993,5.5993,5.6118,5.6219,5.6219,5.6219,5.6219,5.6219,5.7148,5.7725,5.7901,5.883,5.9357,5.9483,5.9483,5.9483,5.9483,5.9483,5.9483,5.9483,5.9483,5.9483,5.9521,6.0074,6.1127,6.2424,6.2951,6.4021,6.5604,6.8923,6.8054,6.5675,5.2165,4.8023,0.0,0.0,4.645,0.0,0.0,0.0,0.0,0.0,0.0,0.0,0.0,0.0,0.0,0.0,0.0,4.7857,4.7883,0.0,4.7883,0.0,0.0,4.7908,0.0,0.0,0.0,0.0,0.0,0.0,0.0,0.0,0.0,0.0,5.0393,5.072,5.1331,5.1825,5.2076,5.2151,5.2644,5.287,5.2895,5.287,5.287,5.2895,5.2895,0.0,0.0,5.2895,5.2895,0.0,0.0,0.0,0.0,0.0,0.0,0.0,0.0,0.0,0.0,5.3291,0.0,0.0,0.0,0.0,5.2895,0.0,0.0,0.0,0.0,0.0,0.0,0.0,0.0,0.0,0.0,5.2251,5.2895,5.2895,5.3381,5.3708,5.3758,5.4762,5.5415,5.5415,5.5917,5.6219,5.6219,5.6219,5.6219,5.6219,5.6734,5.7286,5.7901,5.8453,5.9006,5.9483,5.9483,5.9483,5.9483,5.9483,5.9483,5.9483,5.9483,5.9483,5.9637,6.1542,6.2312,6.2572,6.4391,6.5151,6.5462,6.7439,6.6927,6.5498,0.0,0.0,0.0,4.8006,4.7012,4.6225,0.0,4.7124,0.0,0.0,4.7531,0.0,0.0,4.7807,4.7908,0.0,0.0,4.8083,4.8492,4.8517,0.0,0.0,0.0,4.9012,0.0,0.0,0.0,0.0,0.0,0.0,0.0,0.0,0.0,0.0,5.0996,5.1297,5.185,5.2026,5.2327,5.2678,5.282,5.2895,5.2895,5.2895,5.2895,5.2895,5.2895,5.2895,0.0,5.2895,5.2895,5.2895,5.2895,5.3316,5.364,5.3076,5.45,0.0,0.0,0.0,5.6726,5.4982,0.0,0.0,0.0,0.0,0.0,0.0,0.0,0.0,0.0,0.0,0.0,0.0,0.0,0.0,0.0,5.2644,5.2895,5.2895,5.3381,5.3708,5.3708,5.4712,5.539,5.539,5.5892,5.6219,5.6219,5.6219,5.6219,5.6219,5.6709,5.7286,5.7901,5.8453,5.8981,5.9483,5.9483,5.9483,5.9483,5.9483,5.9483,5.9483,5.9483,5.9483,5.956,6.0227,6.0469,6.066,6.2582,6.3355,6.373,6.6921,6.6858,6.5498,5.3972,0.0,0.0,4.9536,4.8088,4.7004,0.0,0.0,0.0,0.0,4.8259,0.0,4.851,0.0,4.9113,0.0,4.9113,4.9264,4.9672,4.9698,0.0,5.0167,5.0193,0.0,0.0,0.0,0.0,0.0,0.0,5.072,0.0,0.0,0.0,0.0,5.1574,5.1875,5.2368,5.2368,5.2569,5.2895,5.2895,5.2995,5.3171,5.3171,5.3046,5.2895,0.0,5.2895,5.2998,5.3572,5.3393,5.311,5.4325,5.4291,5.381,5.381,5.5008,5.6206,5.5584,5.6239,0.0,5.5683,5.4949,0.0,5.3145,0.0,5.2895,0.0,0.0,0.0,0.0,0.0,0.0,0.0,0.0,0.0,0.0,5.2895,5.2895,5.2895,5.3231,5.3432,5.3432,5.426,5.4863,5.5089,5.5616,5.6018,5.6194,5.6219,5.6219,5.6219,5.6533,5.7123,5.7901,5.8252,5.878,5.9483,5.9483,5.9483,5.9483,5.9483,5.9483,5.9483,5.9483,5.9907,6.0545,6.0545,6.0938,6.164,6.2915,6.3803,6.4706,6.7163,6.6858,6.5391,5.2907,5.2507,5.2255,5.1618,4.9539,4.7958,4.7983,0.0,4.8033,0.0,4.9012,4.9665,4.9665,5.0645,5.1306,5.1306,5.1306,5.1306,5.1306,5.1306,0.0,0.0,5.1306,5.1306,5.1306,0.0,0.0,0.0,0.0,0.0,0.0,0.0,0.0,0.0,5.2151,5.2427,5.2895,5.2895,5.292,5.292,5.292,5.3246,5.3733,5.3733,5.3466,5.3142,5.3142,5.3142,5.3392,5.5061,5.4511,5.3708,5.7033,5.6904,5.5466,5.5466,5.6742,5.7706,5.5959,5.5532,5.5598,5.5499,0.0,0.0,0.0,0.0,5.292,0.0,0.0,0.0,0.0,0.0,0.0,0.0,0.0,0.0,5.2895,5.2895,5.2895,5.2895,5.2895,5.2895,5.2895,5.3432,5.3959,5.4572,5.5125,5.5666,5.6194,5.6219,5.6219,5.6219,5.6219,5.6746,5.7901,5.7901,5.8428,5.9483,5.9483,5.9483,5.9483,5.9483,5.9483,5.9483,5.9483,6.0584,6.2413,6.2413,6.3511,6.5186,6.532,6.6545,6.8248,6.8248,6.7094,6.5498,5.4283,5.2692,5.1111,5.0256,4.9253,4.8686,4.9088,4.9515,0.0,0.0,5.067,5.0845,5.0845,5.1096,5.1306,5.1306,5.1306,0.0,0.0,0.0,0.0,5.1306,5.1306,5.1306,5.1306,5.1306,0.0,5.1306,0.0,0.0,5.19,5.2302,5.2544,5.2669,5.2669,5.277,5.2895,5.2895,5.3121,5.3507,5.3507,5.3833,5.4371,0.0,5.5121,5.6154,5.6154,5.6154,5.6461,5.822,5.7651,5.6562,5.8778,5.828,5.6806,5.6806,5.8016,5.8941,5.715,5.7584,5.822,5.6948,5.6359,5.5701,0.0,0.0,0.0,0.0,0.0,0.0,0.0,0.0,0.0,0.0,0.0,0.0,5.2895,5.2895,5.2895,5.2895,5.2895,5.2895,5.2895,5.3783,5.4446,5.4597,5.5465,5.6068,5.6194,5.6219,5.6219,5.6219,5.6219,5.6746,5.7901,5.7901,5.8428,5.9483,5.9483,5.9483,5.9483,5.9483,5.9483,5.9483,5.9483,6.0584,6.2413,6.2413,6.3511,6.5328,6.6788,6.849,7.0173,7.0173,6.988,6.9424,5.463,5.2554,5.0867,5.1274,5.1126,5.0749,5.0071,5.0444,0.0,5.128,5.1498,0.0,5.1649,5.185,5.2,5.2,5.2,0.0,5.2,0.0,0.0,5.2,5.2,5.2,5.2,5.2,0.0,5.2,0.0,0.0,5.2477,5.2744,5.2895,5.2895,5.2895,5.2895,5.292,5.3146,5.3582,5.4084,5.4084,5.4914,0.0,5.5269,5.6194,5.7995,5.7995,5.7678,5.7568,5.9309,5.8241,5.6701,5.9963,5.9243,5.7222,5.7222,5.7872,5.8408,5.7391,5.7256,5.7358,5.7153,5.6529,5.5751,5.4819,5.4346,5.4084,0.0,5.3858,0.0,0.0,0.0,0.0,0.0,0.0,0.0,0.0,5.2895,5.2895,5.2895,5.2895,5.2895,5.2895,5.3683,5.422,5.422,5.5214,5.5842,5.5842,5.6068,5.6219,5.6219,5.6219,5.6746,5.7901,5.7901,5.8428,5.9483,5.9483,5.9946,6.0736,5.9907,5.9959,6.0774,6.0774,6.1827,6.3694,6.4526,6.602,6.7787,6.8889,6.9946,7.0889,7.0889,7.037,6.9781,5.4396,5.2434,5.134,5.3009,5.3462,5.2906,5.0925,5.1245,5.1739,5.1815,0.0,5.2201,5.2201,5.2594,5.2895,5.2895,5.2895,5.2895,5.2895,5.2895,5.2895,5.2895,5.2895,5.2895,5.2895,5.2895,5.2895,0.0,0.0,0.0,5.2895,5.2895,5.2895,5.2895,5.297,5.3046,5.3146,5.3632,5.431,5.5052,5.4804,5.6108,5.7991,5.6193,5.7081,5.9218,5.8973,5.8304,5.7773,5.9456,5.7875,5.5991,6.0733,5.9983,5.7357,5.7357,5.7357,5.7288,5.7048,5.5947,5.5153,5.6626,5.5912,5.4823,5.4823,5.4773,5.4697,5.4697,5.4647,5.4597,0.0,0.0,0.0,5.3071,0.0,0.0,0.0,5.3247,5.3247,5.3247,5.3247,0.0,5.2929,5.3406,5.3708,5.3708,5.4762,5.539,5.539,5.5917,5.6219,5.6219,5.6219,5.6746,5.7901,5.7901,5.8428,5.9483,5.9753,6.0774,6.2376,6.09,6.1165,6.2757,6.2757,6.3839,6.571,6.7404,6.922,7.0889,7.0889,7.0889,7.0889,7.0889,6.988,6.8687,5.4244,5.3461,5.2887,5.1859,5.2092,5.227,5.1858,5.3068,5.4177,5.4616,5.3572,5.2744,5.2744,5.2845,5.2895,5.2895,5.2895,0.0,0.0,0.0,0.0,5.2895,5.2895,5.2895,5.2895,5.2895,5.2895,0.0,0.0,0.0,0.0,5.2895,5.2895,5.292,5.3381,5.3833,5.4321,5.4421,5.5615,5.7373,5.5868,5.6672,5.8561,5.6743,5.8181,6.092,5.9462,5.8771,5.8865,6.0687,5.9872,5.8578,6.099,6.0281,5.8578,5.8578,5.8578,5.8263,5.677,5.6135,5.599,5.6291,5.6135,5.5917,5.5917,5.5566,5.5239,5.5239,5.4924,5.4597,5.4597,0.0,0.0,0.0,0.0,0.0,0.0,5.4949,5.4949,5.4949,5.4949,5.4433,5.3007,5.3406,5.3708,5.3708,5.4762,5.539,5.539,5.5917,5.6219,5.6219,5.6219,5.6746,5.7901,5.7901,5.8428,5.9521,6.1127,6.2078,6.2424,6.3657,6.4391,6.4714,6.4714,6.578,6.7639,6.7947,6.922,7.0889,7.0889,7.0889,7.0889,7.0889,7.0694,7.0436,5.4554,5.3466,5.3031,5.338,5.44,5.5148,5.5148,5.6078,5.6135,5.4332,5.3621,5.3296,5.3296,5.3607,5.3783,5.3783,5.3783,5.3783,5.3783,5.3783,5.3783,5.3783,5.3783,5.3783,5.3783,5.3783,5.3783,5.3783,0.0,0.0,0.0,0.0,5.3783,5.3783,5.4034,5.4975,5.6337,5.5426,5.6918,5.9764,5.7913,5.8604,6.0619,5.9818,6.0773,6.2432,6.1634,6.1322,6.1379,6.1546,6.1022,6.047,6.1326,6.0367,5.8903,5.8903,5.8224,5.7338,5.6449,5.6219,5.6219,5.6219,5.6219,5.6219,5.6219,5.6018,5.5817,5.5817,5.5591,5.534,5.5074,5.5024,0.0,0.0,0.0,0.0,0.0,0.0,5.7083,5.5211,5.6618,5.6611,5.3608,5.438,5.4705,5.3778,5.4762,5.539,5.539,5.5917,5.6219,5.6219,5.6219,5.6746,5.7901,0.0,5.9408,5.9547,6.2471,6.3839,6.3875,6.4786,6.5745,6.6684,6.6684,6.7232,6.818,6.9153,7.0078,7.0889,7.0889,7.0889,7.0889,7.0889,7.0889,7.0889,5.5564,5.4557,5.4346,5.5894,5.7275,5.813,5.7884,5.8198,5.7294,5.4031,5.3775,5.3884,5.3884,5.4321,5.4597,5.4597,5.4597,5.4597,5.4597,5.4597,5.4597,5.4597,5.4597,5.4597,5.4597,5.4597,5.4597,0.0,0.0,0.0,0.0,0.0,5.4672,5.4773,5.4773,5.5877,5.7642,0.0,5.8236,6.1138,6.0242,6.0982,6.2598,6.2323,6.2729,6.3391,6.3522,6.3826,6.3899,6.2483,6.1711,6.1337,6.0953,5.9835,5.8687,5.8687,5.7697,5.6545,5.642,5.6394,5.6369,5.6244,5.6219,5.6219,5.6219,5.6219,5.6219,5.6219,5.6219,5.6068,5.5641,5.5566,0.0,0.0,0.0,0.0,0.0,0.0,5.8341,5.5462,5.7529,5.7958,5.4763,5.5305,5.5645,5.5246,5.5198,5.5455,5.5949,5.6482,5.6605,5.6219,5.6968,5.7539,5.7901,0.0,6.0897,6.015,6.3993,6.5816,6.5816,6.6237,6.7238,6.8687,6.8687,6.8687,6.8788,7.0305,7.0889,7.0889,7.0889,7.0889,7.0889,7.0889,7.0889,7.0889,5.7989,5.8772,5.9496,5.8791,5.8806,5.8547,5.7531,5.7394,5.71,5.6108,5.5132,5.4522,5.4522,5.4572,5.4597,5.4597,5.4597,5.4597,5.4597,5.4597,5.4597,5.4597,5.4597,5.4597,5.4597,5.4597,5.4597,0.0,0.0,5.4321,0.0,0.0,0.0,5.5315,5.5315,0.0,0.0,5.8612,5.9642,6.0076,6.2271,6.3239,6.3135,6.1479,6.1931,6.3391,6.3391,6.4482,6.5593,6.383,6.2139,6.0486,5.8766,5.8112,5.7987,5.7987,5.7875,5.7625,5.706,5.6935,5.6809,5.6344,5.6219,5.6219,5.6219,5.6219,5.6219,5.6219,5.6219,5.6194,5.6143,5.6143,5.5968,0.0,0.0,0.0,0.0,0.0,5.7256,5.6907,5.6739,5.6715,5.692,5.5151,5.5641,5.9806,5.6739,5.5592,5.772,5.8368,5.7895,5.6255,5.9392,6.0056,5.7913,6.1372,6.2792,6.219,6.5984,6.7844,6.7878,6.9586,7.0468,7.0629,7.0629,7.0629,7.0661,7.0824,7.0889,7.0889,7.0889,7.0889,7.0889,7.0889,7.0889,7.0889,6.0225,6.0134,6.041,6.098,6.11,6.0586,5.9051,5.9046,5.8535,5.6498,5.5553,5.5099,5.5099,5.5365,5.5541,5.5541,5.5541,5.5541,5.5541,5.5541,5.5541,5.5541,5.5541,5.5541,5.5541,5.5541,5.6091,0.0,0.0,0.0,0.0,0.0,0.0,0.0,0.0,5.9005,6.0501,6.042,6.1598,6.3437,6.2256,6.2652,6.3943,6.436,6.4513,6.4784,6.7074,6.8364,6.8723,6.6832,6.5202,6.3418,6.0454,5.9547,5.9547,5.9547,5.8723,5.7851,5.7625,5.7549,5.7499,5.7273,5.7223,5.7148,5.6734,5.6659,5.6584,5.6269,5.6219,5.6219,5.6219,5.6219,5.6143,5.5917,0.0,0.0,0.0,0.0,6.0611,5.8459,6.0882,6.186,5.9624,5.8537,5.92,6.2187,5.8853,5.7251,5.8499,5.982,5.9183,5.6267,6.0095,6.0825,5.7913,6.3105,6.4623,6.2461,6.7439,6.9186,6.8151,7.0012,7.0889,7.0889,7.0889,7.0889,7.0889,7.0889,7.0889,7.0889,7.0889,7.0889,7.0889,7.0889,7.0889,7.0889,6.2511,6.1937,6.1905,6.3289,6.3246,6.2444,6.0804,6.059,5.9689,5.7024,5.6369,5.6118,5.6118,5.647,5.6721,5.6721,5.6721,5.6721,5.6721,5.6721,5.6721,5.6721,5.6721,0.0,5.6721,5.6721,5.7331,5.8629,5.7898,0.0,0.0,0.0,0.0,0.0,6.0403,6.136,6.3384,6.228,6.3249,6.547,6.3539,6.3833,6.5488,6.6884,6.6496,6.5639,6.8923,6.9685,6.9023,6.7679,6.6634,6.5289,6.2122,6.0724,6.0272,6.0272,5.9394,5.8328,5.8177,5.8152,5.8102,5.7951,5.7901,5.7801,5.7336,5.7236,5.7085,5.657,5.6445,5.6394,5.6244,5.6219,5.6219,5.6219,0.0,0.0,0.0,5.9504,6.0954,5.8401,6.1357,6.2912,6.1187,6.0395,6.1262,6.4311,6.1654,6.0077,6.0477,0.0,0.0,0.0,0.0,0.0,5.9558,6.5196,6.6708,6.4156,6.8692,7.0206,6.8985,7.0305,7.0889,7.0889,7.0889,7.0889,7.0889,7.0889,7.0889,7.0889,7.0889,7.0889,7.0889,7.0889,7.0889,7.0889,6.4964,6.4964,6.5144,6.5861,6.4919,6.3708,6.2539,6.136,5.9945,5.8114,5.7876,5.7876,5.7876,5.7876,5.7876,5.7876,5.7876,5.7876,5.7876,5.7876,5.7876,0.0,0.0,5.7876,5.7876,5.7876,5.7876,5.7913,0.0,0.0,5.9889,0.0,6.1172,6.3481,6.1523,6.1772,6.3612,6.4159,6.4407,6.4638,6.7045,6.8049,6.8049,6.8083,6.6892,6.5462,6.7439,6.6892,6.5257,6.5222,6.5222,6.4865,6.2988,6.1063,5.9496,5.9496,5.9521,5.9357,5.8817,5.8666,5.8541,5.8027,5.7901,5.7901,5.7901,5.7901,5.7725,5.7111,5.6985,5.6835,5.6319,5.6219,5.6219,5.6219,0.0,0.0,0.0,5.6255,0.0,5.6255,5.5825,5.7158,6.1204,5.9485,6.0593,6.651,6.5263,6.4217,6.4217,0.0,0.0,6.1595,6.5717,0.0,6.3356,6.7673,6.9231,6.8049,6.9979,7.0889,7.0856,7.0889,7.0889,7.0889,7.0889,7.0889,7.0889,7.0889,7.0889,7.0889,7.0889,7.0889,7.0889,7.0889,7.0889,7.0889,6.5682,6.643,6.7089,6.7329,6.63,6.5372,6.5108,6.3618,6.2005,6.054,6.036,6.0022,5.9084,5.8328,5.8413,5.9715,5.9825,6.0382,0.0,6.179,6.1184,5.9862,6.1076,6.1148,5.9862,6.1112,6.2364,6.3619,0.0,0.0,0.0,6.0462,6.2497,6.6105,6.5498,6.5758,6.6663,6.6862,6.6919,6.6879,6.6356,6.6892,6.8112,6.8112,6.7742,6.7439,6.932,6.9619,6.909,6.909,6.8253,6.7094,6.6468,6.3172,5.9753,6.1089,6.1504,6.1177,5.9666,6.0239,6.0881,5.935,5.8981,5.8905,5.8554,5.8177,5.7851,5.765,5.7625,5.7449,5.6835,5.6734,5.6609,5.6269,5.6219,0.0,5.6219,0.0,5.9885,5.9885,6.1897,6.3826,6.5139,6.35,6.3633,6.6755,6.4185,6.3018,0.0,0.0,0.0,0.0,6.6452,0.0,6.4103,6.8381,6.9769,6.8146,6.9979,7.0889,7.0889,7.0889,7.0889,7.0889,7.0889,7.0889,7.0889,7.0889,7.0889,7.0889,7.0889,7.0889,7.0889,7.0889,7.0889,7.0889,6.7148,6.7807,6.8407,6.8407,6.7328,6.6494,6.659,6.5152,6.3798,6.3001,6.2874,6.2562,6.1738,6.1051,0.0,6.0265,6.0265,6.0755,6.1968,6.2758,6.2615,6.1414,6.3193,6.3653,6.2445,6.3582,0.0,6.5896,6.4284,6.3836,6.4534,6.3801,6.5311,6.8635,6.7939,6.8176,6.9119,6.8417,6.8519,6.8956,6.7065,6.7616,6.9537,6.9537,6.9244,6.9106,7.0981,7.1179,7.0559,7.029,6.8968,6.7337,6.7081,6.3548,5.9907,6.1816,6.1891,6.1051,5.983,6.0393,6.1014,5.9792,5.9483,5.9408,5.9081,5.8755,5.8453,5.8252,5.8202,5.8027,5.7437,5.7336,5.7136,5.6584,5.6483,5.6408,5.6244,0.0,5.9574,5.9574,6.1562,6.3476,6.4822,6.3959,6.4313,6.6815,6.4281,6.3411,0.0,0.0,6.5555,6.4679,6.7447,6.8189,6.6531,6.9457,7.0305,6.9153,7.0337,7.0889,7.0889,7.0889,7.0889,7.0889,7.0889,7.0889,7.0889,7.0889,7.0889,7.0889,7.0889,7.0889,7.0889,7.0889,7.0889,7.0889,6.9004,6.9034,6.9064,6.9064,6.8001,6.7224,6.7358,6.6282,6.5482,6.5482,6.551,6.5467,6.536,6.5324,6.3911,6.0329,0.0,0.0,6.0278,6.1977,6.2941,6.2794,6.4571,6.5533,6.5427,6.5533,6.5533,6.5391,6.7197,6.899,7.0661,6.8918,6.9119,7.0824,6.9115,6.9312,7.0881,6.9169,6.9433,7.0908,6.9136,6.9851,7.1966,7.1966,7.1264,7.0535,7.226,7.179,7.0211,6.9563,6.8052,6.635,6.5732,6.291,6.0175,6.2067,6.124,5.9714,5.9714,5.9714,5.9676,5.9521,5.9483,5.9483,5.9483,5.9483,5.9357,5.888,5.878,5.8604,5.8052,5.7951,5.7813,5.7321,5.7172,5.6934,5.6502,5.6572,5.662,5.6594,5.6787,0.0,6.1629,6.1964,6.3378,0.0,6.5385,0.0,0.0,0.0,6.5545,6.7985,6.8704,6.9393,7.0083,7.062,7.0889,7.0889,7.0889,7.0889,7.0889,7.0889,7.0889,7.0889,7.0889,7.0889,7.0889,7.0889,7.0889,7.0889,7.0889,7.0889,7.0889,7.0889,7.0889,7.0889,6.9004,6.9393,6.9752,6.9752,6.8738,6.8354,6.9775,6.8944,6.8187,6.8187,6.8615,6.8344,6.6913,6.6731,6.6368,6.545,6.5802,6.6684,6.8122,6.8625,6.8253,6.6817,6.8557,6.8889,6.7439,6.8822,6.8856,6.7404,6.7878,6.8349,6.8755,6.8315,6.9119,7.0886,7.0971,7.1275,7.1697,7.1744,7.2016,7.2412,7.1949,7.2138,7.2684,7.2684,7.2477,7.2294,7.2727,7.2626,7.223,7.2048,7.0677,6.8995,6.8852,6.6112,6.3168,6.4228,6.3209,6.1704,6.1704,6.1704,6.1354,5.9869,5.9483,5.9483,5.9483,5.9483,5.9458,5.9332,5.9307,5.9156,5.8629,5.8529,5.8794,5.9695,5.8604,5.8007,5.8909,6.0101,6.0785,6.0387,6.2788,6.479,6.5639,6.5702,6.6075,0.0,0.0,6.5866,6.7685,6.6522,6.6744,6.8703,6.9393,7.0051,7.0679,7.0829,7.0889,7.0889,7.0889,7.0889,7.0889,7.0889,7.0889,7.0889,7.0889,7.0889,7.0889,7.0889,7.0889,7.0889,7.0889,7.0889,7.0889,7.0889,7.0889,7.0889,6.9871,7.0171,7.05,7.0831,7.0282,7.0278,7.1592,7.1258,7.0857,7.0857,7.1151,7.0979,6.9914,6.9808,6.9808,6.9808,6.8519,6.812,6.9153,7.0034,7.0097,6.9079,7.0829,7.1325,7.0329,7.1291,7.1325,7.0296,7.0296,7.0296,7.0296,7.0296,7.0829,7.1846,7.2206,7.2355,7.2385,7.2744,7.2924,7.2924,7.2924,7.3103,7.3373,7.3373,7.3552,7.3821,7.3821,7.3821,7.3762,7.3462,7.2032,7.0217,6.8953,6.6523,6.4186,6.4543,6.3117,6.1577,6.2231,6.1741,6.0812,5.9753,5.9483,5.9483,5.9483,5.9483,5.9483,5.9483,6.0227,6.0747,6.0426,6.0375,6.0544,6.0974,6.0189,5.9702,6.0213,6.1814,6.2502,6.1345,6.3699,6.5402,6.5369,6.614,6.7023,6.7834,6.6587,0.0,6.8372,6.7373,6.7593,6.9421,6.9782,7.029,7.0889,7.0889,7.0889,7.0889,7.0889,7.0889,7.0889,7.0889,7.0889,7.0889,7.0889,7.0889,7.0889,7.0889,7.0889,7.0889,7.0889,7.0889,7.0889,7.0889,7.0889,7.0889,7.1188,7.1218,7.1368,7.1936,7.2056,7.2235,7.2834,7.3013,7.3073,7.3073,7.3163,7.3223,7.3223,7.3223,7.3223,7.3223,7.0236,6.8277,6.8081,6.9604,7.0535,7.0535,7.2028,7.2924,7.2924,7.2924,7.2924,7.2924,7.2924,7.2924,7.2924,7.2924,7.2924,7.2924,7.3013,7.3073,7.3073,7.3163,7.3223,7.3223,7.3223,7.3552,7.4031,7.4031,7.439,7.4903,7.4903,7.4903,7.4813,7.424,7.2743,7.075,6.8437,6.6426,6.4874,6.4642,6.2909,6.1246,6.2243,6.1053,5.956,5.9869,5.9714,5.9483,5.9483,5.9714,5.9869,5.956,6.1051,6.2301,6.2003,6.219,6.2228,6.17,6.1621,6.1556,6.1299,0.0,6.3147,6.1728,6.3245,6.4374,6.4277,6.575,6.7318,6.8909,6.7662,6.7529,6.909,6.8338,6.8562,7.0079,7.0143,7.038,7.0889,7.0889,7.0889,7.0889,7.0889,7.0889,7.0889,7.0889,7.0889,7.0889,7.0889,7.0889,7.0889,7.0889,7.0889,7.0889,7.0889,7.0889,7.0889,7.0889,7.0889,7.0889,7.2505,7.2595,7.2624,7.2744,7.2744,7.2804,7.286,7.3373,7.3732,7.3732,7.424,7.4604,7.4604,7.4604,7.4604,7.4604,7.403,7.3246,7.2087,7.2294,7.2462,7.2462,7.2727,7.2924,7.2924,7.2924,7.2924,7.2924,7.2924,7.2924,7.2924,7.2924,7.2924,7.2924,7.3492,7.3732,7.3791,7.433,7.4604,7.4604,7.4604,7.4663,7.4719,7.4719,7.4813,7.4903,7.4903,7.4903,7.4903,7.4783,7.342,7.1683,7.1245,6.977,6.8051,6.753,6.5882,6.4113,6.3302,6.1324,5.9907,6.1542,6.0736,5.9483,5.9483,6.0774,6.1478,5.983,6.1051,6.1891,6.0265,6.1278,6.236,6.2281,6.2254,6.2632,6.3684,0.0,6.4451,6.5339,6.7058,6.8151,6.8119,6.8404,6.8689,6.8972,6.9259,6.9555,6.9842,7.0184,7.048,7.0769,7.0769,7.0799,7.0889,7.0889,7.0889,7.0889,7.0889,7.0889,7.0889,7.0889,7.0889,7.0889,7.0889,7.0889,7.0889,7.0889,7.0889,7.0889,7.0889,7.0889,7.0889,7.0889,7.0889,7.0889,7.2864,7.2924,7.3013,7.3373,7.3432,7.3552,7.3911,7.424,7.442,7.442,7.4723,7.4903,7.4903,7.4903,7.4903,7.4903,7.4903,7.4663,7.4001,7.3971,7.3971,7.3971,7.3971,7.3971,7.3971,7.3971,7.3971,7.3971,7.3971,7.3971,7.3971,7.3971,7.3971,7.3971,7.43,7.442,7.445,7.4783,7.4903,7.4903,7.4903,7.4903,7.4903,7.4903,7.4903,7.4903,7.4903,7.4903,7.4903,7.4903,7.4258,7.3328,7.2243,7.1278,7.0244,6.8864,6.7343,6.5479,6.2844,6.2579,6.276,6.1592,6.117,6.0812,5.9753,6.0189,6.0888,6.1014,6.2582,6.3621,6.2741,6.4165,6.5135,6.4093,6.4777,0.0,6.6317,6.7186,6.767,6.7281,6.8897,6.9638,6.8602,6.9444,7.0021,7.0021,7.032,7.047,7.047,7.0739,7.0889,7.0889,7.0889,7.0889,7.0889,7.0889,7.0889,7.0889,7.0889,7.0889,7.0889,7.0889,7.0889,7.0889,7.0889,7.0889,7.0889,7.0889,7.0889,7.0889,7.0889,7.0889,7.0889,7.0889,7.0889,7.0889,7.3343,7.3373,7.3522,7.4031,7.4121,7.43,7.4843,7.4903,7.4903,7.4903,7.4903,7.4903,7.4903,7.4903,7.4903,7.4903,7.4903,7.4903,7.4903,7.4903,7.4903,7.4903,7.4903,7.4903,7.4903,7.4903,7.4903,7.4903,7.4903,7.4903,7.4903,7.4903,7.4903,7.4903,7.4903,7.4903,7.4903,7.4903,7.4903,7.4903,7.4903,7.4903,7.4903,7.4903,7.4903,7.4903,7.4903,7.4903,7.4903,7.4903,7.4903,7.4633,7.3088,7.2599,7.2278,7.0769,6.9267,6.7359,6.3738,6.4194,6.4947,6.1917,6.1518,6.1648,6.0597,6.029,6.0584,6.2078,6.3912,6.5071,6.4642,6.6475,6.7473,6.5533,0.0,6.8112,6.8112,6.932,6.988,6.8856,7.0012,7.0337,6.8889,7.0075,7.0889,7.0889,7.0889,7.0889,7.0889,7.0889,7.0889,7.0889,7.0889,7.0889,7.0889,7.0889,7.0889,7.0889,7.0889,7.0889,7.0889,7.0889,7.0889,7.0889,7.0889,7.0889,7.0889,7.0889,7.0889,7.0889,7.0889,7.0889,7.0889,7.0889,7.0889,7.0889,7.4634,7.4753,7.4783,7.4843,7.4843,7.4843,7.4903,7.4903,7.4903,7.4903,7.4903,7.4903,7.4903,7.4903,7.4903,7.4903,7.4903,7.4903,7.4903,7.4903,7.4903,7.4903,7.4903,7.4903,7.4903,7.4903,7.4903,7.4903,7.4903,7.4903,7.4903,7.4903,7.4903,7.4903,7.4903,7.4903,7.4903,7.4903,7.4903,7.4903,7.4903,7.4903,7.4903,7.4903,7.4903,7.4903,7.4903,7.4903,7.4903,7.4903,7.4903,7.4869,7.4731,7.4697,7.4633,7.4495,7.3064,7.0956,6.8142,6.5889,6.4239,6.3846,6.2071,6.0874,6.255,6.252,6.2227,6.2376,6.3912,6.4678,6.2915,6.5596,6.7473,6.5533,0.0,0.0,6.8112,6.8214,6.8889,7.0501,7.0791,7.0854,7.0694,7.0824,7.0889,7.0889,7.0889,7.0889,7.0889,7.0889,7.0889,7.0889,7.0889,7.0889,7.0889,7.0889,7.0889,7.0889,7.0889,7.0889,7.0889,7.0889,7.0889,7.0889,7.0889,7.0889,7.0889,7.0889,7.0889,7.0889,7.0889,7.0889,7.0889,7.0889,7.0889,7.0889,7.4873,7.4903,7.4903,7.4903,7.4903,7.4903,7.4903,7.4903,7.4903,7.4903,7.4903,7.4903,7.4903,7.4903,7.4903,7.4903,7.4903,7.4903,7.4903,7.4903,7.4903,7.4903,7.4903,7.4903,7.4903,7.4903,7.4903,7.4903,7.4903,7.4903,7.4903,7.4903,7.4903,7.4903,7.4903,7.4903,7.4903,7.4903,7.4903,7.4903,7.4903,7.4903,7.4903,7.4903,7.4903,7.4903,7.4903,7.4903,7.4903,7.4903,7.4903,7.4903,7.4903,7.4903,7.4903,7.4903,7.4357,7.3269,7.1,6.8466,6.6201,6.4898,6.4524,6.4337,6.3937,6.4283,6.4772,6.4772,6.5953,6.6405,6.4463,6.7238,6.922,6.7301,0.0,6.9847,6.9847,6.9847,7.0108,7.0791,7.0889,7.0889,7.0889,7.0889,7.0889,7.0889,7.0889,7.0889,7.0889,7.0889,7.0889,7.0889,7.0889,7.0889,7.0889,7.0889,7.0889,7.0889,7.0889,7.0889,7.0889,7.0889,7.0889,7.0889,7.0889,7.0889,7.0889,7.0889,7.0889,7.0889,7.0889,7.0889,7.0889,7.0889,7.0889,7.0889,7.4903,7.4903,7.4903,7.4903,7.4903,7.4903,7.4903,7.4903,7.4993,7.5168,7.5198,7.5288,7.5467,7.5497,7.5497,7.5497,7.5497,7.5497,7.5497,7.5497,7.5318,7.4933,7.4903,7.4903,7.4903,7.4903,7.4903,7.4903,7.4903,7.4903,7.4903,7.4903,7.4903,7.4903,7.4903,7.4903,7.4903,7.4903,7.4903,7.4903,7.4903,7.4903,7.4903,7.4903,7.4903,7.4903,7.4903,7.4903,7.4903,7.4903,7.4903,7.4903,7.4903,7.4903,7.4903,7.4903,7.4903,7.4598,7.3222,7.1044,6.8522,6.5932,6.6288,6.6982,6.5668,6.5953,6.6627,6.7034,6.7795,6.7936,6.6398,6.8726,7.0498,6.9186,7.0075,7.0889,7.0889,7.0889,7.0889,7.0889,7.0889,7.0889,7.0889,7.0889,7.0889,7.0889,7.0889,7.0889,7.0889,7.0889,7.0889,7.0889,7.0889,7.0889,7.0889,7.0889,7.0889,7.0889,7.0889,7.0889,7.0889,7.0889,7.0889,7.0889,7.0889,7.0889,7.0889,7.0889,7.0889,7.0889,7.0889,7.0889,7.0889,7.0889,7.0889,7.0889,7.4903,7.4903,7.4933,7.4933,7.4933,7.4933,7.4933,7.4933,7.5138,7.5826,7.5916,7.6155,7.6719,7.6779,7.6779,7.6779,7.6779,7.6779,7.6779,7.6779,7.6245,7.4993,7.4933,7.4933,7.4933,7.4933,7.4933,7.4933,7.4933,7.4933,7.4933,7.4933,7.4933,7.4933,7.4933,7.4933,7.4933,7.4933,7.4933,7.4933,7.4933,7.4933,7.4933,7.4903,7.4903,7.4903,7.4903,7.4903,7.4903,7.4903,7.4903,7.4903,7.4903,7.4903,7.4903,7.4903,7.4903,7.4903,7.4903,7.3433,7.0959,6.6868,6.6947,6.7985,6.7948,6.7552,6.7625,6.8865,6.9131,6.8929,6.8227,6.9648,7.0919,7.0889,7.0889,7.0889,7.0889,7.0889,7.0889,7.0889,7.0889,7.0889,7.0889,7.0889,7.0889,7.0889,7.0889,7.0889,7.0889,7.0889,7.0889,7.0889,7.0889,7.0889,7.0889,7.0889,7.0889,7.0889,7.0889,7.0889,7.0889,7.0889,7.0889,7.0889,7.0889,7.0889,7.0889,7.0889,7.0889,7.0889,7.0889,7.0889,7.0889,7.0889,7.0889,7.0889,7.4903,7.5258,7.5587,7.5587,7.5946,7.6245,7.6245,7.6245,7.627,7.6509,7.6509,7.6599,7.6779,7.6779,7.6779,7.6779,7.6779,7.6779,7.6779,7.6779,7.6629,7.6275,7.6245,7.6245,7.6245,7.6245,7.6245,7.6245,7.6245,7.6245,7.6245,7.6245,7.6245,7.6245,7.6245,7.6245,7.6245,7.6245,7.6245,7.6215,7.5766,7.5587,7.5557,7.5083,7.4903,7.4903,7.4903,7.4903,7.4903,7.4903,7.4903,7.4903,7.4903,7.4903,7.4903,7.4903,7.4903,7.4903,7.4903,7.4461,7.3363,7.074,7.0416,7.0711,7.0711,7.132,7.1626,7.0661,7.1146,7.1154,6.9164,7.0359,7.1457,7.0979,7.0889,7.0889,7.0889,7.0889,7.0889,7.0889,7.0889,7.0889,7.0889,7.0889,7.0889,7.0889,7.0889,7.0889,7.0889,7.0889,7.0889,7.0889,7.0889,7.0889,7.0889,7.0889,7.0889,7.0889,7.0889,7.0889,7.0889,7.0889,7.0889,7.0889,7.0889,7.0889,7.0889,7.0889,7.0889,7.0889,7.0889,7.0889,7.0889,7.0889,7.0889,7.0889,7.5647,7.5976,7.6275,7.6275,7.6539,7.6779,7.6779,7.6779,7.6898,7.7137,7.7197,7.7287,7.7562,7.7592,7.7592,7.7592,7.7592,7.7592,7.7592,7.7592,7.7592,7.7592,7.7592,7.7352,7.6808,7.6779,7.6779,7.6779,7.6779,7.6779,7.6779,7.6779,7.6779,7.6779,7.6779,7.6779,7.6779,7.6779,7.6779,7.6749,7.639,7.6275,7.6215,7.5796,7.5497,7.5288,7.5288,7.5142,7.4903,7.4903,7.4903,7.4903,7.4903,7.4903,7.4903,7.4903,7.4903,7.4903,7.4903,7.4903,7.4598,7.3398,7.3088,7.2876,7.2071,7.3139,7.3874,7.2453,7.2777,7.2738,7.095,7.1536,7.2086,7.1398,7.1308,7.1188,7.0949,7.0889,7.0889,7.0889,7.0889,7.0889,7.0889,7.0889,7.0889,7.0889,7.0889,7.0889,7.0889,7.0889,7.0889,7.0889,7.0889,7.0889,7.0889,7.0889,7.0889,7.0889,7.0889,7.0889,7.0889,7.0889,7.0889,7.0889,7.0889,7.0889,7.0889,7.0889,7.0889,7.0889,7.0889,7.0889,7.0889,7.0889,7.0889,7.0889,7.6779,7.6838,7.6868,7.6868,7.6928,7.6958,7.6958,7.6958,7.7197,7.7831,7.7891,7.813,7.8729,7.8789,7.8789,7.8789,7.8789,7.8789,7.8789,7.8789,7.8789,7.8789,7.8789,7.822,7.6988,7.6958,7.6958,7.6958,7.6958,7.6958,7.6958,7.6958,7.6958,7.6958,7.6958,7.6958,7.6958,7.6958,7.6958,7.6958,7.6898,7.6868,7.6868,7.6808,7.645,7.5976,7.5976,7.5557,7.4993,7.4933,7.4903,7.4903,7.4903,7.4903,7.4903,7.4903,7.4903,7.4903,7.4903,7.4903,7.4903,7.4903,7.4903,7.4426,7.2563,7.3603,7.4753,7.4121,7.3971,7.3791,7.3133,7.3013,7.2774,7.2086,7.1966,7.1757,7.1158,7.1038,7.0979,7.0979,7.0949,7.0889,7.0889,7.0889,7.0889,7.0889,7.0889,7.0889,7.0889,7.0889,7.0889,7.0889,7.0889,7.0889,7.0889,7.0889,7.0889,7.0889,7.0889,7.0889,7.0889,7.0889,7.0889,7.0889,7.0889,7.0889,7.0889,7.0889,7.0889,7.0889,7.0889,7.0889,7.0889,7.0889,7.0889,7.0889,7.6779,7.7197,7.7592,7.7592,7.8011,7.837,7.837,7.837,7.84,7.8549,7.8579,7.8639,7.8759,7.8789,7.8789,7.8789,7.8789,7.8789,7.8789,7.8789,7.8789,7.8789,7.8789,7.8639,7.837,7.837,7.837,7.837,7.837,7.837,7.837,7.837,7.837,7.837,7.837,7.837,7.837,7.837,7.837,7.831,7.7801,7.7592,7.7532,7.6988,7.6719,7.6599,7.6599,7.6215,7.5587,7.5083,7.4903,7.4903,7.4903,7.4903,7.4903,7.4903,7.4903,7.4903,7.4903,7.4903,7.4903,7.4903,7.4903,7.48,7.4357,7.4598,7.4873,7.4723,7.4659,7.4484,7.3821,7.3672,7.3462,7.2804,7.2684,7.2624,7.2505,7.1996,7.1667,7.1667,7.1218,7.0889,7.0889,7.0889,7.0889,7.0889,7.0889,7.0889,7.0889,7.0889,7.0889,7.0889,7.0889,7.0889,7.0889,7.0889,7.0889,7.0889,7.0889,7.0889,7.0889,7.0889,7.0889,7.0889,7.0889,7.0889,7.0889,7.0889,7.0889,7.0889,7.0889,7.0889,7.0889,7.0889,7.0889,7.0889,7.7771,7.8041,7.828,7.828,7.8549,7.8789,7.8789,7.8789,7.8789,7.8789,7.8789,7.8789,7.8789,7.8789,7.8789,7.8789,7.8789,7.8789,7.8789,7.8789,7.8789,7.8789,7.8789,7.8789,7.8789,7.8789,7.8789,7.8789,7.8789,7.8789,7.8789,7.8789,7.8789,7.8789,7.8789,7.8789,7.8789,7.8789,7.8789,7.8759,7.84,7.828,7.825,7.7891,7.7562,7.7293,7.7293,7.6694,7.5856,7.5497,7.5138,7.4903,7.4903,7.4903,7.4903,7.4903,7.4903,7.4903,7.4903,7.4903,7.4903,7.4903,7.4903,7.4903,7.4903,7.4903,7.4903,7.4903,7.4903,7.4813,7.442,7.436,7.4151,7.3492,7.3373,7.3283,7.292,7.2595,7.2385,7.2385,7.2086,7.1846,7.1846,7.1846,7.1727,7.1398,7.1368,7.1248,7.0919,7.0889,7.0889,7.0889,7.0889,7.0889,7.0889,7.0889,7.0889,7.0889,7.0889,7.0889,7.0889,7.0889,7.0889,7.0889,7.0889,7.0889,7.0889,7.0889,7.0889,7.0889,7.0889,7.0889,7.0889,7.0889,7.0889,7.0889,7.8789,7.8789,7.8789,7.8789,7.8789,7.8789,7.8789,7.8789,7.8789,7.8789,7.8789,7.8789,7.8789,7.8789,7.8789,7.8789,7.8789,7.8789,7.8789,7.8789,7.8789,7.8789,7.8789,7.8789,7.8789,7.8789,7.8789,7.8789,7.8789,7.8789,7.8789,7.8789,7.8789,7.8789,7.8789,7.8789,7.8789,7.8789,7.8789,7.8789,7.8789,7.8789,7.8789,7.8789,7.846,7.7981,7.7981,7.7233,7.6215,7.6096,7.5617,7.5083,7.5083,7.4993,7.4903,7.4903,7.4903,7.4903,7.4903,7.4903,7.4903,7.4903,7.4903,7.4903,7.4903,7.4903,7.4903,7.4903,7.4903,7.4903,7.4903,7.4903,7.4723,7.4151,7.4061,7.3881,7.3343,7.3163,7.3073,7.3073,7.2984,7.2924,7.2924,7.2924,7.2684,7.2116,7.2056,7.1816,7.1278,7.1248,7.1248,7.1248,7.1128,7.1068,7.1068,7.0949,7.0889,7.0889,7.0889,7.0889,7.0889,7.0889,7.0889,7.0889,7.0889,7.0889,7.0889,7.0889,7.0889,7.0889,7.0889,7.0889,7.0889,7.0889,7.0889,7.0889,7.8789,7.8789,7.8789,7.8789,7.8789,7.8789,7.8789,7.8789,7.8789,7.8789,7.8789,7.8789,7.8789,7.8789,7.8789,7.8789,7.8789,7.8789,7.8789,7.8789,7.8789,7.8789,7.8789,7.8789,7.8789,7.8789,7.8789,7.8789,7.8789,7.8789,7.8789,7.8789,7.8789,7.8789,7.8789,7.8789,7.8789,7.8789,7.8789,7.8789,7.8789,7.8789,7.8789,7.8789,7.8729,7.8639,7.8639,7.819,7.7472,7.6868,7.6275,7.5766,7.5766,7.5347,7.4903,7.4903,7.4903,7.4903,7.4903,7.4903,7.4903,7.4903,7.4903,7.4903,7.4903,7.4903,7.4903,7.4903,7.4903,7.4903,7.4903,7.4903,7.4873,7.4783,7.4783,7.4753,7.4663,7.4121,7.3762,7.3762,7.3253,7.2924,7.2924,7.2924,7.2864,7.2774,7.2774,7.2744,7.2654,7.2654,7.2654,7.2654,7.2056,7.1757,7.1757,7.1188,7.0889,7.0889,7.0889,7.0889,7.0889,7.0889,7.0889,7.0889,7.0889,7.0889,7.0889,7.0889,7.0889,7.0889,7.0889,7.0889,7.0889,7.0889,7.0889,7.0889,7.8789,7.8789,7.8789,7.8789,7.8789,7.8789,7.8789,7.8789,7.8789,7.8789,7.8789,7.8789,7.8789,7.8789,7.8789,7.8789,7.8789,7.8789,7.8789,7.8789,7.8789,7.8789,7.8789,7.8789,7.8789,7.8789,7.8789,7.8789,7.8789,7.8789,7.8789,7.8789,7.8789,7.8789,7.8789,7.8789,7.8789,7.8789,7.8789,7.8789,7.8789,7.8789,7.8789,7.8789,7.8789,7.8789,7.8789,7.837,7.7771,7.7472,7.6928,7.6365,7.6006,7.5707,7.5377,7.5023,7.4903,7.4903,7.4903,7.4903,7.4903,7.4903,7.4903,7.4903,7.4903,7.4903,7.4903,7.4903,7.4903,7.4903,7.4903,7.4903,7.4903,7.4903,7.4903,7.4903,7.4903,7.4663,7.445,7.445,7.418,7.4001,7.4001,7.4001,7.3851,7.3492,7.3462,7.3313,7.2924,7.2924,7.2924,7.2924,7.2624,7.2265,7.1876,7.1607,7.1278,7.0889,7.0889,7.0889,7.0889,7.0889,7.0889,7.0889,7.0889,7.0889,7.0889,7.0889,7.0889,7.0889,7.0889,7.0889,7.0889,7.0889,7.0889,7.0889]}]]